[[{"header":{"parameterUnit":"m.s-1","parameterCategory":1,"la1":31.0,"la2":29.5877,"lo1":-88.7671,"lo2":-86.6584,"dy":0.0162,"dx":0.0185,"nx":115,"ny":88,"refTime":"2023-04-09T12:00:00:Z","depth":0,"parameterNumber":2,"parameterNumberName":"U-component_of_WINDS"},"data":[0.0,0.0,0.0,0.0,0.0,0.0,0.0,0.0,0.0,0.0,0.0,0.0,0.0,0.0,0.0,0.0,0.0,0.0,0.0,0.0,0.0,0.0,0.0,0.0,0.0,0.0,0.0,0.0,0.0,0.0,0.0,0.0,0.0,0.0,0.0,0.0,0.0,0.0,0.0,0.0,0.0,0.0,0.0,0.0,0.0,0.0,0.0,0.0,0.0,0.0,0.0,0.0,0.0,0.0,0.0,0.0,0.0,0.0,0.0,0.0,0.0,0.0,0.0,0.0,0.0,0.0,0.0,0.0,0.0,0.0,0.0,0.0,0.0,0.0,0.0,0.0,0.0,0.0,0.0,0.0,0.0,0.0,0.0,0.0,0.0,0.0,0.0,0.0,0.0,0.0,0.0,0.0,0.0,0.0,0.0,0.0,0.0,0.0,0.0,0.0,0.0,0.0,0.0,0.0,0.0,0.0,0.0,0.0,0.0,0.0,0.0,0.0,0.0,0.0,0.0,0.0,0.0,0.0,0.0,0.0,0.0,0.0,0.0,0.0,0.0,0.0,0.0,0.0,0.0,0.0,0.0,0.0,0.0,0.0,0.0,0.0,0.0,0.0,0.0,0.0,0.0,0.0,0.0,0.0,0.0,0.0,0.0,0.0,0.0,0.0,0.0,0.0,0.0,0.0,0.0,0.0,0.0,0.0,0.0,0.0,0.0,0.0,0.0,0.0,0.0,0.0,0.0,0.0,0.0,0.0,0.0,0.0,0.0,0.0,0.0,0.0,0.0,0.0,0.0,0.0,0.0,0.0,0.0,0.0,0.0,0.0,0.0,0.0,0.0,0.0,0.0,0.0,0.0,0.0,0.0,0.0,0.0,0.0,0.0,0.0,0.0,0.0,0.0,0.0,0.0,0.0,0.0,0.0,0.0,0.0,0.0,0.0,0.0,0.0,0.0,0.0,0.0,0.0,0.0,0.0,0.0,0.0,0.0,0.0,0.0,0.0,0.0,0.0,0.0,0.0,0.0,0.0,0.0,0.0,0.0,0.0,0.0,0.0,0.0,0.0,0.0,0.0,0.0,0.0,0.0,0.0,0.0,0.0,0.0,0.0,0.0,0.0,0.0,0.0,0.0,0.0,0.0,0.0,0.0,0.0,0.0,0.0,0.0,0.0,0.0,0.0,0.0,0.0,0.0,0.0,0.0,0.0,0.0,0.0,0.0,0.0,0.0,0.0,0.0,0.0,0.0,0.0,0.0,0.0,0.0,0.0,0.0,0.0,0.0,0.0,0.0,0.0,0.0,0.0,0.0,0.0,0.0,0.0,0.0,0.0,0.0,0.0,0.0,0.0,0.0,0.0,0.0,0.0,0.0,0.0,0.0,0.0,0.0,0.0,0.0,0.0,0.0,0.0,0.0,0.0,0.0,0.0,0.0,0.0,0.0,0.0,0.0,0.0,0.0,0.0,0.0,0.0,0.0,0.0,0.0,0.0,0.0,0.0,0.0,0.0,0.0,0.0,0.0,0.0,0.0,0.0,0.0,0.0,0.0,0.0,0.0,0.0,0.0,0.0,0.0,0.0,0.0,0.0,0.0,0.0,0.0,0.0,0.0,0.0,0.0,0.0,0.0,0.0,0.0,0.0,0.0,0.0,0.0,0.0,0.0,0.0,0.0,0.0,0.0,0.0,0.0,0.0,0.0,0.0,0.0,0.0,0.0,0.0,0.0,0.0,0.0,0.0,0.0,0.0,0.0,0.0,0.0,0.0,0.0,0.0,0.0,0.0,0.0,0.0,0.0,0.0,0.0,0.0,0.0,0.0,0.0,0.0,0.0,0.0,0.0,0.0,0.0,0.0,0.0,0.0,0.0,0.0,0.0,0.0,0.0,0.0,0.0,0.0,0.0,0.0,0.0,0.0,0.0,0.0,0.0,0.0,0.0,0.0,0.0,0.0,0.0,0.0,0.0,0.0,0.0,0.0,0.0,0.0,0.0,0.0,0.0,0.0,0.0,0.0,0.0,0.0,0.0,0.0,0.0,0.0,0.0,0.0,0.0,0.0,0.0,0.0,0.0,0.0,0.0,0.0,0.0,0.0,0.0,0.0,0.0,0.0,0.0,0.0,0.0,0.0,0.0,0.0,0.0,0.0,0.0,0.0,0.0,0.0,0.0,0.0,0.0,0.0,0.0,0.0,0.0,0.0,0.0,0.0,0.0,0.0,0.0,0.0,0.0,0.0,0.0,0.0,0.0,0.0,0.0,0.0,0.0,0.0,0.0,0.0,0.0,0.0,0.0,0.0,0.0,0.0,0.0,0.0,0.0,0.0,0.0,0.0,0.0,0.0,0.0,0.0,0.0,0.0,0.0,0.0,0.0,0.0,0.0,0.0,0.0,0.0,0.0,0.0,0.0,0.0,0.0,0.0,0.0,0.0,0.0,0.0,0.0,0.0,0.0,0.0,0.0,0.0,0.0,0.0,0.0,0.0,0.0,0.0,0.0,0.0,0.0,0.0,0.0,0.0,0.0,0.0,0.0,0.0,0.0,0.0,0.0,0.0,0.0,0.0,0.0,0.0,0.0,0.0,0.0,0.0,0.0,0.0,0.0,0.0,0.0,0.0,0.0,0.0,0.0,0.0,0.0,0.0,0.0,0.0,0.0,0.0,0.0,0.0,0.0,0.0,0.0,0.0,0.0,0.0,0.0,0.0,0.0,0.0,0.0,0.0,0.0,0.0,0.0,0.0,0.0,0.0,0.0,0.0,0.0,0.0,0.0,0.0,0.0,0.0,0.0,0.0,0.0,0.0,0.0,0.0,0.0,0.0,0.0,0.0,0.0,0.0,0.0,0.0,0.0,0.0,0.0,0.0,0.0,0.0,0.0,0.0,0.0,0.0,0.0,0.0,0.0,0.0,0.0,0.0,0.0,0.0,0.0,0.0,0.0,0.0,0.0,0.0,0.0,0.0,0.0,0.0,0.0,0.0,0.0,0.0,0.0,0.0,0.0,0.0,0.0,0.0,0.0,0.0,0.0,0.0,0.0,0.0,0.0,0.0,0.0,0.0,0.0,0.0,0.0,0.0,0.0,0.0,0.0,0.0,0.0,0.0,0.0,0.0,0.0,0.0,0.0,0.0,0.0,0.0,0.0,0.0,0.0,0.0,0.0,0.0,0.0,0.0,0.0,0.0,0.0,0.0,0.0,0.0,0.0,0.0,0.0,0.0,0.0,0.0,0.0,0.0,0.0,0.0,0.0,0.0,0.0,0.0,0.0,0.0,0.0,0.0,0.0,0.0,0.0,0.0,0.0,0.0,0.0,0.0,0.0,0.0,0.0,0.0,0.0,0.0,0.0,0.0,0.0,0.0,0.0,0.0,0.0,0.0,0.0,0.0,0.0,0.0,0.0,0.0,0.0,0.0,0.0,0.0,0.0,0.0,0.0,0.0,0.0,0.0,0.0,0.0,0.0,0.0,0.0,0.0,0.0,0.0,0.0,0.0,0.0,0.0,0.0,0.0,0.0,0.0,0.0,0.0,0.0,0.0,0.0,0.0,0.0,0.0,0.0,0.0,0.0,0.0,0.0,0.0,0.0,0.0,0.0,0.0,0.0,0.0,0.0,0.0,0.0,0.0,0.0,0.0,0.0,0.0,0.0,0.0,0.0,0.0,0.0,0.0,0.0,0.0,0.0,0.0,0.0,0.0,0.0,0.0,0.0,0.0,0.0,0.0,0.0,0.0,0.0,0.0,0.0,0.0,0.0,0.0,0.0,0.0,0.0,0.0,0.0,0.0,0.0,0.0,0.0,0.0,0.0,0.0,0.0,0.0,0.0,0.0,0.0,0.0,0.0,0.0,0.0,0.0,0.0,0.0,0.0,0.0,0.0,0.0,0.0,0.0,0.0,0.0,0.0,0.0,0.0,0.0,0.0,0.0,0.0,0.0,0.0,0.0,0.0,0.0,0.0,0.0,0.0,0.0,0.0,0.0,0.0,0.0,0.0,0.0,0.0,0.0,0.0,0.0,0.0,0.0,0.0,0.0,0.0,0.0,0.0,0.0,0.0,0.0,0.0,0.0,0.0,0.0,0.0,0.0,0.0,0.0,0.0,0.0,0.0,0.0,0.0,0.0,0.0,0.0,0.0,0.0,0.0,0.0,0.0,0.0,0.0,0.0,0.0,0.0,0.0,0.0,0.0,0.0,0.0,0.0,0.0,0.0,0.0,0.0,0.0,0.0,0.0,0.0,0.0,0.0,0.0,0.0,0.0,0.0,0.0,0.0,0.0,0.0,1.1627,0.0,0.0,0.0,0.0,0.0,0.0,0.0,0.0,0.0,0.0,0.0,0.0,0.0,0.0,0.0,0.0,0.0,0.0,0.0,0.0,0.0,0.0,0.0,0.0,0.0,0.0,0.0,0.0,0.0,0.0,0.0,0.0,0.0,0.0,0.0,0.0,0.0,0.0,0.0,0.0,0.0,0.0,0.0,0.0,0.0,0.0,0.0,0.0,0.0,0.0,0.0,0.0,0.0,0.0,0.0,0.0,0.0,0.0,0.0,0.0,0.0,0.0,0.0,0.0,0.0,0.0,0.0,0.0,0.0,0.0,0.0,0.0,0.0,0.0,0.0,0.0,0.0,0.0,0.0,0.0,0.0,0.0,0.0,0.0,0.0,0.0,0.0,0.0,0.0,0.0,0.0,0.0,0.0,0.0,0.0,0.0,0.0,0.0,0.0,0.0,0.0,0.0,0.0,0.0,0.0,0.0,0.0,0.0,0.0,0.0,1.2382,1.2382,1.2246,1.1973,1.1627,0.0,0.0,0.0,0.0,0.0,0.0,0.0,0.0,0.0,0.0,0.0,0.0,0.0,0.0,0.0,0.0,0.0,0.0,0.0,0.0,0.0,0.0,0.0,0.0,0.0,0.0,0.0,0.0,0.0,0.0,0.0,0.0,0.0,0.0,0.0,0.0,0.0,0.0,0.0,0.0,0.0,0.0,0.0,0.0,0.0,0.0,0.0,0.0,0.0,0.0,0.0,0.0,0.0,0.0,0.0,0.0,0.0,0.0,0.0,0.0,0.0,0.0,0.0,0.0,0.0,0.0,0.0,0.0,0.0,0.0,0.0,0.0,0.0,0.0,0.0,0.0,0.0,0.0,0.0,0.0,0.0,0.0,0.0,0.0,0.0,0.0,0.0,0.0,0.0,0.0,0.0,0.0,0.0,0.0,0.0,0.0,0.0,0.0,0.0,0.0,0.0,0.0,0.0,0.0,0.0,0.0,0.0,0.0,0.0,0.0,0.0,0.0,1.2128,1.1881,1.1502,0.0,0.0,0.0,0.0,0.0,0.0,0.0,0.0,0.0,0.0,0.0,0.0,0.0,0.0,0.0,0.0,0.0,0.0,0.0,0.0,0.0,0.0,0.0,0.0,0.0,0.0,0.0,0.0,0.0,0.0,0.0,0.0,0.0,0.0,0.0,0.0,0.0,0.0,0.0,0.0,0.0,0.0,0.0,0.0,0.0,0.0,0.0,0.0,0.0,0.0,0.0,0.0,0.0,0.0,0.0,0.0,0.0,0.0,0.0,0.0,0.0,0.0,0.0,0.0,0.0,0.0,0.0,0.0,0.0,0.0,0.0,0.0,0.0,0.0,0.0,0.0,0.0,0.0,0.0,0.0,0.0,0.0,0.0,0.0,0.0,0.0,0.0,0.0,0.0,0.0,0.0,0.0,0.0,0.0,0.0,0.0,0.0,0.0,0.0,0.0,0.0,0.0,0.0,0.0,0.0,0.0,0.0,0.0,0.0,0.0,1.2273,1.2064,1.2192,0.0,1.1245,0.0,0.0,0.0,0.0,0.0,0.0,0.0,0.0,0.0,0.0,0.0,0.0,0.0,0.0,0.0,0.0,0.0,0.0,0.0,0.0,0.0,0.0,0.0,0.0,0.0,0.0,0.0,0.0,0.0,0.0,0.0,0.0,0.0,0.0,0.0,0.0,0.0,0.0,0.0,0.0,0.0,0.0,0.0,0.0,0.0,0.0,0.0,0.0,0.0,0.0,0.0,0.0,0.0,0.0,0.0,0.0,0.0,0.0,0.0,0.0,0.0,0.0,0.0,0.0,0.0,0.0,0.0,0.0,0.0,0.0,0.0,0.0,0.0,0.0,0.0,0.0,0.0,0.0,0.0,0.0,0.0,0.0,0.0,0.0,0.0,0.0,0.0,0.0,0.0,0.0,0.0,0.0,0.0,0.0,0.0,0.0,0.0,0.0,0.0,0.0,0.0,0.0,0.0,0.0,0.0,0.0,0.0,0.0,0.0,0.0,1.2303,1.2192,1.184,1.1372,0.0,0.0,0.0,0.0,0.0,0.0,0.0,0.0,0.0,0.0,0.0,0.0,0.0,0.0,0.0,0.0,0.0,0.0,0.0,0.0,0.0,0.0,0.0,0.0,0.0,0.0,0.0,0.0,0.0,0.0,0.0,0.0,0.0,0.0,0.0,0.0,0.0,0.0,0.0,0.0,0.0,0.0,0.0,0.0,0.0,0.0,0.0,0.0,0.0,0.0,0.0,0.0,0.0,0.0,0.0,0.0,0.0,0.0,0.0,0.0,0.0,0.0,0.0,0.0,0.0,0.0,0.0,0.0,0.0,0.0,0.0,0.0,0.0,0.0,0.0,0.0,0.0,0.0,0.0,0.0,0.0,0.0,0.0,0.0,0.0,0.0,0.0,0.0,0.0,0.0,0.0,0.0,0.0,0.0,0.0,0.0,0.0,0.0,0.0,0.0,0.0,0.0,0.0,0.0,0.0,0.0,0.0,0.0,0.0,0.0,1.2321,1.2225,1.2049,1.1376,1.0831,1.0457,0.0,0.0,0.0,0.0,0.0,0.0,0.0,0.0,0.0,0.0,0.0,0.0,0.0,0.0,0.0,0.0,0.0,0.0,0.0,0.0,0.0,0.0,0.0,0.0,0.0,0.0,0.0,0.0,0.0,0.0,0.0,0.0,0.0,0.0,0.0,0.0,0.0,0.0,0.0,0.0,0.0,0.0,0.0,0.0,0.0,0.0,0.0,0.0,0.0,0.0,0.0,0.0,0.0,0.0,0.0,0.0,0.0,0.0,0.0,0.0,0.0,0.0,0.0,0.0,0.0,0.0,0.0,0.0,0.0,0.0,0.0,0.0,0.0,0.0,0.0,0.0,0.0,0.0,0.0,0.0,0.0,0.0,0.0,0.0,0.0,0.0,0.0,0.0,0.0,0.0,0.0,0.0,0.0,0.0,0.0,0.0,0.0,0.0,0.0,0.0,0.0,0.0,0.0,0.0,0.0,0.0,0.0,0.0,1.232,1.2283,1.2047,1.1548,1.0864,1.0465,0.0,0.0,0.0,0.0,0.0,0.0,0.0,0.0,0.0,0.0,0.0,0.0,0.0,0.0,0.0,0.0,0.0,0.0,0.0,0.0,0.0,0.0,0.0,0.0,0.0,0.0,0.0,0.0,0.0,0.0,0.0,0.0,0.0,0.0,0.0,0.0,0.0,0.0,0.0,0.0,0.0,0.0,0.0,0.0,0.0,0.0,0.0,0.0,0.0,0.0,0.0,0.0,0.0,0.0,0.0,0.0,0.0,0.0,0.0,0.0,0.0,0.0,0.0,0.0,0.0,0.0,0.0,0.0,0.0,0.0,0.0,0.0,0.0,0.0,0.0,0.0,0.0,0.0,0.0,0.0,0.0,0.0,0.0,0.0,0.0,0.0,0.0,0.0,0.0,0.0,0.0,0.0,0.0,0.0,0.0,0.0,0.0,0.0,0.0,0.0,0.0,0.0,0.0,0.0,0.0,0.0,0.0,0.0,0.0,1.2292,1.1966,1.1565,1.1048,1.0583,1.0251,0.0,0.0,0.0,0.0,0.0,0.0,0.0,0.0,0.0,0.0,0.0,0.0,0.0,0.0,0.0,0.0,0.0,0.0,0.0,0.0,0.0,0.0,0.0,0.0,0.0,0.0,0.0,0.0,0.0,0.0,0.0,0.0,0.0,0.0,0.0,0.0,0.0,0.0,0.0,0.0,0.0,0.0,0.0,0.0,0.0,0.0,0.0,0.0,0.0,0.0,0.0,0.0,0.0,0.0,0.0,0.0,0.0,0.0,0.0,0.0,0.0,0.0,0.0,0.0,0.0,0.0,0.0,0.0,0.0,0.0,0.0,0.0,0.0,0.0,0.0,0.0,0.0,0.0,0.0,0.0,0.0,0.0,0.0,0.0,0.0,0.0,0.0,0.0,0.0,0.0,0.0,0.0,0.0,0.0,0.0,0.0,0.0,0.0,0.0,0.0,0.0,0.0,0.0,0.0,0.0,0.0,0.0,0.0,0.0,1.2027,0.0,1.101,1.0505,1.027,0.9913,0.0,0.0,0.0,0.0,0.0,0.0,0.0,0.0,0.0,0.0,0.0,0.0,0.0,0.0,0.0,0.0,0.0,0.0,0.0,0.0,0.0,0.0,0.0,0.0,0.0,0.0,0.0,0.0,0.0,0.0,0.0,0.0,0.0,0.0,0.0,0.0,0.0,0.0,0.0,0.0,0.0,0.0,0.0,0.0,0.0,0.0,0.0,0.0,0.0,0.0,0.0,0.0,0.0,0.0,0.0,0.0,0.0,0.0,0.0,0.0,0.0,0.0,0.0,0.0,0.0,0.0,0.0,0.0,0.0,0.0,0.0,0.0,0.0,0.0,0.0,0.0,0.0,0.0,0.0,0.0,0.0,0.0,0.0,0.0,0.0,0.0,0.0,0.0,0.0,0.0,0.0,0.0,0.0,0.0,0.0,0.0,0.0,0.0,0.0,0.0,0.0,0.0,0.0,0.0,0.0,0.0,0.0,0.0,1.2008,1.1492,1.1011,1.0474,0.9829,0.9775,0.9342,0.0,0.0,0.0,0.0,0.0,0.0,0.0,0.0,0.0,0.0,0.0,0.0,0.0,0.0,0.0,0.0,0.0,0.0,0.0,0.0,0.0,0.0,0.0,0.0,0.0,0.0,0.0,0.0,0.0,0.0,0.0,0.0,0.0,0.0,0.0,0.0,0.0,0.0,0.0,0.0,0.0,0.0,0.0,0.0,0.0,0.0,0.0,0.0,0.0,0.0,0.0,0.0,0.0,0.0,0.0,0.0,0.0,0.0,0.0,0.0,0.0,0.0,0.0,0.0,0.0,0.0,0.0,0.0,0.0,0.0,0.0,0.0,0.0,0.0,0.0,0.0,0.0,0.0,0.0,0.0,0.0,0.0,0.0,0.0,0.0,0.0,0.0,0.0,0.0,0.0,0.0,0.0,0.0,0.0,0.0,0.0,0.0,0.0,0.0,0.0,0.0,0.0,0.0,0.0,0.0,0.0,0.0,0.0,0.0,1.0461,1.0401,0.9946,0.9092,0.9029,0.8683,0.0,0.0,0.0,0.0,0.0,0.0,0.0,0.0,0.0,0.0,0.0,0.0,0.0,0.0,0.0,0.0,0.0,0.0,0.0,0.0,0.0,0.0,0.0,0.0,0.0,0.0,0.0,0.0,0.0,0.0,0.0,0.0,0.0,0.0,0.0,0.0,0.0,0.0,0.0,0.0,0.0,0.0,0.0,0.0,0.0,0.0,0.0,0.0,0.0,0.0,0.0,0.0,0.0,0.0,0.0,0.0,0.0,0.0,0.0,0.0,0.0,0.0,0.0,0.0,0.0,0.0,0.0,0.0,0.0,0.0,0.0,0.0,0.0,0.0,0.0,0.0,0.0,0.0,0.0,0.0,0.0,0.0,0.0,0.0,0.0,0.0,0.0,0.0,0.0,0.0,0.0,0.0,0.0,0.0,0.0,0.0,0.0,0.0,0.0,0.0,0.0,0.0,0.0,0.0,0.0,0.0,0.0,0.0,0.0,0.9238,0.9481,0.9156,0.8103,0.8103,0.7714,0.6947,0.0,0.0,0.0,0.0,0.0,0.0,0.0,0.0,0.0,0.0,0.0,0.0,0.0,0.0,0.0,0.0,0.0,0.0,0.0,0.0,0.0,0.0,0.0,0.0,0.0,0.0,0.0,0.0,0.0,0.0,0.0,0.0,0.0,0.0,0.0,0.0,0.0,0.0,0.0,0.0,0.0,0.0,0.0,0.0,0.0,0.0,0.0,0.0,0.0,0.0,0.0,0.0,0.0,0.0,0.0,0.0,0.0,0.0,0.0,0.0,0.0,0.0,0.0,0.0,0.0,0.0,0.0,0.0,0.0,0.0,0.0,0.0,0.0,0.0,0.0,0.0,0.0,0.0,0.0,0.0,0.0,0.0,0.0,0.0,0.0,0.0,0.0,0.0,0.0,0.0,0.0,0.0,0.0,0.0,0.0,0.0,0.0,0.0,0.0,0.0,0.0,0.0,0.0,0.0,0.0,0.0,0.0,0.0,0.7861,0.8318,0.8082,0.7089,0.7048,0.6588,0.0,0.0,0.0,0.0,0.0,0.0,0.0,0.0,0.0,0.0,0.0,0.0,0.0,0.0,0.0,0.0,0.0,0.0,0.0,0.0,0.0,0.0,0.0,0.0,0.0,0.0,0.0,0.0,0.0,0.0,0.0,0.0,0.0,0.0,0.0,0.0,0.0,0.0,0.0,0.0,0.0,0.0,0.0,0.0,0.0,0.0,0.0,0.0,0.0,0.0,0.0,0.0,0.0,0.0,0.0,0.0,0.0,0.0,0.0,0.0,0.0,0.0,0.0,0.0,0.0,0.0,0.0,0.0,0.0,0.0,0.0,0.0,0.0,0.0,0.0,0.0,0.0,0.0,0.0,0.0,0.0,0.0,0.0,0.0,0.0,0.0,0.0,0.0,0.0,0.0,0.0,0.0,0.0,0.0,0.0,0.0,0.0,0.0,0.0,0.0,0.0,0.0,0.0,0.0,0.0,0.0,0.0,0.0,0.0,0.736,0.6974,0.6646,0.6373,0.631,0.6043,0.0,0.0,0.0,0.0,0.0,0.0,0.0,0.0,0.0,0.0,0.0,0.0,0.0,0.0,0.0,0.0,0.0,0.0,0.0,0.0,0.0,0.0,0.0,0.0,0.0,0.0,0.0,0.0,0.0,0.0,0.0,0.0,0.0,0.0,0.0,0.0,0.0,0.0,0.0,0.0,0.0,0.0,0.0,0.0,0.0,0.0,0.0,0.0,0.0,0.0,0.0,0.0,0.0,0.0,0.0,0.0,0.0,0.0,0.0,0.0,0.0,0.0,0.0,0.0,0.0,0.0,0.0,0.0,0.0,0.0,0.0,0.0,0.0,0.0,0.0,0.0,0.0,0.0,0.0,0.0,0.0,0.0,0.0,0.0,0.0,0.0,0.0,0.0,0.0,0.0,0.0,0.0,0.0,0.0,0.0,0.0,0.0,0.0,0.0,0.0,0.0,0.0,0.0,0.0,0.0,0.0,0.0,0.0,0.766,0.6731,0.5873,0.5383,0.527,0.5317,0.5077,0.0,0.0,0.0,0.0,0.0,0.0,0.0,0.0,0.0,0.0,0.0,0.0,0.0,0.0,0.0,0.0,0.0,0.0,0.0,0.0,0.0,0.0,0.0,0.0,0.0,0.0,0.0,0.0,0.0,0.0,0.0,0.0,0.0,0.0,0.0,0.0,0.0,0.0,0.0,0.0,0.0,0.0,0.0,0.0,0.0,0.0,0.0,0.0,0.0,0.0,0.0,0.0,0.0,0.0,0.0,0.0,0.0,0.0,0.0,0.0,0.0,0.0,0.0,0.0,0.0,0.0,0.0,0.0,0.0,0.0,0.0,0.0,0.0,0.0,0.0,0.0,0.0,0.0,0.0,0.0,0.0,0.0,0.0,0.0,0.0,0.0,0.0,0.0,0.0,0.0,0.0,0.0,0.0,0.0,0.0,0.0,0.0,0.0,0.0,0.0,0.0,0.0,0.0,0.0,0.0,0.0,0.0,0.0,0.707,0.6176,0.5045,0.432,0.4037,0.4218,0.3996,0.0,0.0,0.0,0.0,0.0,0.0,0.0,0.0,0.0,0.0,0.0,0.0,0.0,0.0,0.0,0.0,0.0,0.0,0.0,0.0,0.0,0.0,0.0,0.0,0.0,0.0,0.0,0.0,0.0,0.0,0.0,0.0,0.0,0.0,0.0,0.0,0.0,0.0,0.0,0.0,0.0,0.0,0.0,0.0,0.0,0.0,0.0,0.0,0.0,0.0,0.0,0.0,0.0,0.0,0.0,0.0,0.0,0.0,0.0,0.0,0.0,0.0,0.0,0.0,0.0,0.0,0.0,0.0,0.0,0.0,0.0,0.0,0.0,0.0,0.0,0.0,0.0,0.0,0.0,0.0,0.0,0.0,0.0,0.0,0.0,0.0,0.0,0.0,0.0,0.0,0.0,0.0,0.0,0.0,0.0,0.0,0.0,0.0,0.0,0.0,0.0,0.0,0.0,0.0,0.0,0.0,0.0,0.0,0.6599,0.582,0.4763,0.3996,0.3646,0.3615,0.3526,0.0,0.0,0.0,0.0,0.0,0.0,0.0,0.0,0.0,0.0,0.0,0.0,0.0,0.0,0.0,0.0,0.0,0.0,0.0,0.0,0.0,0.0,0.0,0.0,0.0,0.0,0.0,0.0,0.0,0.0,0.0,0.0,0.0,0.0,0.0,0.0,0.0,0.0,0.0,0.0,0.0,0.0,0.0,0.0,0.0,0.0,0.0,0.0,-0.2458,0.0,0.0,0.0,0.0,0.0,0.0,0.0,0.0,0.0,0.0,0.0,0.0,0.0,0.0,0.0,0.0,0.0,0.0,0.0,0.0,0.0,0.0,0.0,0.0,0.0,0.0,0.0,0.0,0.0,0.0,0.0,0.0,0.0,0.0,0.0,0.0,0.0,0.0,0.0,0.0,0.0,0.0,0.0,0.0,0.0,0.0,0.0,0.0,0.0,0.0,0.0,0.0,0.0,0.0,0.0,0.0,0.0,0.0,0.0,0.6109,0.5241,0.4346,0.3561,0.3005,0.2749,0.2744,0.0,0.0,0.0,0.0,0.0,0.0,0.0,0.0,0.0,0.0,0.0,0.0,0.0,0.0,0.0,0.0,0.0,0.0,0.0,0.0,0.0,0.0,0.0,0.0,0.0,0.0,0.0,0.0,0.0,0.0,0.0,0.0,0.0,0.0,0.0,0.0,0.0,0.0,0.0,0.0,0.0,0.0,0.0,0.0,0.0,0.0,0.0,0.0,0.0,0.0,0.0,0.0,0.0,0.0,0.0,0.0,0.0,0.0,0.0,0.0,0.0,0.0,0.0,0.0,0.0,0.0,0.0,0.0,0.0,0.0,0.0,0.0,0.0,0.0,0.0,0.0,0.0,0.0,0.0,0.0,0.0,0.0,0.0,0.0,0.0,0.0,0.0,0.0,0.0,0.0,0.0,0.0,0.0,0.0,0.0,0.0,0.0,0.0,0.0,0.0,0.0,0.0,0.0,0.0,0.0,0.0,0.0,0.6673,0.5663,0.4654,0.3763,0.2952,0.2233,0.1761,0.1658,0.1945,0.0,0.0,0.0,0.0,0.0,0.0,0.0,0.0,0.0,0.0,0.0,0.0,0.0,0.0,0.0,0.0,0.0,0.0,0.0,0.0,0.0,0.0,0.0,0.0,0.0,0.0,0.0,0.0,0.0,0.0,0.0,0.0,0.0,0.0,0.0,0.0,0.0,0.0,-0.2398,-0.2399,0.0,0.0,0.0,0.0,0.0,0.0,0.0,0.0,-0.2538,0.0,0.0,0.0,0.0,0.0,0.0,0.0,0.0,0.0,0.0,0.0,0.0,0.0,0.0,0.0,0.0,0.0,0.0,0.0,0.0,0.0,0.0,0.0,0.0,0.0,0.0,0.0,0.0,0.0,0.0,0.0,0.0,0.0,0.0,0.0,0.0,0.0,0.0,0.0,0.0,0.0,0.0,0.0,0.0,0.0,0.0,0.0,0.0,0.0,0.0,0.0,0.0,0.0,0.0,0.0,0.0,0.7944,0.6312,0.5063,0.4301,0.2798,0.1779,0.1287,0.0604,0.0262,0.0406,0.0,0.0,0.0,0.0,0.0,0.0,0.0,0.0,0.0,0.0,0.0,0.0,0.0,0.0,0.0,0.0,0.0,0.0,0.0,0.0,0.0,0.0,0.0,0.0,0.0,0.0,0.0,0.0,0.0,0.0,0.0,0.0,0.0,0.0,0.0,0.0,0.0,0.0,0.0,-0.2499,-0.2499,0.0,0.0,0.0,0.0,0.0,0.0,0.0,0.0,-0.2592,0.0,0.0,0.0,0.0,0.0,0.0,0.0,0.0,0.0,0.0,0.0,0.0,0.0,0.0,0.0,0.0,0.0,0.0,0.0,0.0,0.0,0.0,0.0,0.0,0.0,0.0,0.0,0.0,0.0,0.0,0.0,0.0,0.0,0.0,0.0,0.0,0.0,0.0,0.0,0.0,0.0,0.0,0.0,0.0,0.0,0.0,0.0,0.0,0.0,0.0,0.0,0.0,0.0,0.0,0.0,0.6185,0.504,0.3835,0.2675,0.1653,0.0617,-0.0424,-0.0843,-0.1215,0.0,0.0,0.0,0.0,0.0,0.0,0.0,0.0,0.0,0.0,0.0,0.0,0.0,0.0,0.0,0.0,0.0,0.0,0.0,0.0,0.0,0.0,0.0,0.0,0.0,0.0,0.0,0.0,0.0,0.0,0.0,0.0,0.0,0.0,0.0,0.0,0.0,0.0,0.0,0.0,-0.2527,-0.2578,-0.2578,0.0,0.0,0.0,0.0,0.0,0.0,-0.2592,-0.2582,0.0,0.0,0.0,0.0,0.0,0.0,0.0,0.0,0.0,0.0,0.0,0.0,0.0,0.0,0.0,0.0,0.0,0.0,0.0,0.0,0.0,0.0,0.0,0.0,0.0,0.0,0.0,0.0,0.0,0.0,0.0,0.0,0.0,0.0,0.0,0.0,0.0,0.0,0.0,0.0,0.0,0.0,0.0,0.0,0.0,0.0,0.0,0.0,0.0,0.0,0.0,0.0,0.0,0.0,0.0,0.4331,0.341,0.2276,0.089,0.0195,-0.0824,-0.2235,-0.2448,-0.2802,0.0,0.0,0.0,0.0,0.0,0.0,0.0,0.0,0.0,0.0,0.0,0.0,0.0,0.0,0.0,0.0,0.0,0.0,0.0,0.0,0.0,0.0,0.0,0.0,0.0,0.0,0.0,0.0,0.0,0.0,0.0,0.0,0.0,0.0,0.0,0.0,0.0,0.0,0.0,0.0,0.0,-0.2602,-0.2607,-0.2587,0.0,0.0,0.0,0.0,-0.2602,-0.2585,0.0,0.0,0.0,0.0,0.0,0.0,0.0,0.0,0.0,0.0,0.0,0.0,0.0,0.0,0.0,0.0,0.0,0.0,0.0,0.0,0.0,0.0,0.0,0.0,0.0,0.0,0.0,0.0,0.0,0.0,0.0,0.0,0.0,0.0,0.0,0.0,0.0,0.0,0.0,0.0,0.0,0.0,0.0,0.0,0.0,0.0,0.0,0.0,0.0,0.0,0.0,0.0,0.0,0.0,0.0,0.0,0.361,0.1795,0.0465,-0.0391,-0.1881,-0.2982,-0.3572,-0.427,-0.4647,0.0,0.0,0.0,0.0,0.0,0.0,0.0,0.0,0.0,0.0,0.0,0.0,0.0,0.0,0.0,0.0,0.0,0.0,0.0,0.0,0.0,0.0,0.0,0.0,0.0,0.0,0.0,0.0,0.0,0.0,0.0,0.0,0.0,0.0,0.0,0.0,0.0,0.0,0.0,0.0,0.0,-0.2608,-0.2593,-0.26,-0.2601,0.0,0.0,-0.2602,-0.2605,-0.2602,0.0,0.0,0.0,0.0,0.0,0.0,0.0,0.0,0.0,0.0,0.0,0.0,0.0,0.0,0.0,0.0,0.0,0.0,0.0,0.0,0.0,0.0,0.0,0.0,0.0,0.0,0.0,0.0,0.0,0.0,0.0,0.0,0.0,0.0,0.0,0.0,0.0,0.0,0.0,0.0,0.0,0.0,0.0,0.0,0.0,0.0,0.0,0.0,0.0,0.0,0.0,0.0,0.0,0.0,0.0,0.2497,0.108,-0.0468,-0.1699,-0.2519,-0.3719,-0.4681,-0.5322,-0.5646,-0.5857,0.0,0.0,0.0,0.0,0.0,0.0,0.0,0.0,0.0,0.0,0.0,0.0,0.0,0.0,0.0,0.0,0.0,0.0,0.0,0.0,0.0,0.0,0.0,0.0,0.0,0.0,0.0,0.0,0.0,0.0,0.0,0.0,0.0,0.0,0.0,0.0,0.0,0.0,0.0,0.0,0.0,0.0,-0.2583,-0.2615,0.0,0.0,0.0,-0.2724,-0.2724,0.0,0.0,0.0,0.0,0.0,0.0,0.0,0.0,0.0,0.0,0.0,0.0,0.0,0.0,0.0,0.0,0.0,0.0,0.0,0.0,0.0,0.0,0.0,0.0,0.0,0.0,0.0,0.0,0.0,0.0,0.0,0.0,0.0,0.0,0.0,0.0,0.0,0.0,0.0,0.0,0.0,0.0,0.0,0.0,0.0,0.0,0.0,0.0,0.0,0.0,0.0,0.0,0.0,0.0,0.0,0.0,0.0,-0.1255,-0.2586,-0.3663,-0.4467,-0.5318,-0.6091,-0.6661,-0.6726,0.0,0.0,0.0,0.0,0.0,0.0,0.0,0.0,0.0,0.0,0.0,0.0,0.0,0.0,0.0,0.0,0.0,0.0,0.0,0.0,0.0,0.0,0.0,0.0,0.0,0.0,0.0,-0.2492,0.0,0.0,0.0,0.0,0.0,0.0,0.0,0.0,0.0,0.0,0.0,0.0,0.0,0.0,-0.2635,-0.2624,-0.2673,-0.2707,0.0,0.0,-0.2827,-0.2827,-0.2827,-0.2769,0.0,0.0,0.0,0.0,0.0,0.0,0.0,0.0,0.0,0.0,0.0,0.0,0.0,0.0,0.0,0.0,0.0,0.0,0.0,0.0,0.0,0.0,0.0,0.0,0.0,0.0,0.0,0.0,0.0,0.0,0.0,0.0,0.0,0.0,0.0,0.0,0.0,0.0,0.0,0.0,0.0,0.0,0.0,0.0,0.0,0.0,0.0,0.0,0.0,0.0,0.0,0.0,0.0,0.0,0.0,-0.2552,-0.4174,-0.528,-0.5767,-0.6617,-0.7103,-0.7143,-0.7508,-0.7629,0.0,0.0,0.0,0.0,0.0,0.0,0.0,0.0,0.0,0.0,0.0,0.0,0.0,0.0,0.0,0.0,0.0,0.0,0.0,0.0,0.0,0.0,0.0,0.0,0.0,0.0,0.0,0.0,0.0,0.0,0.0,0.0,0.0,0.0,0.0,0.0,0.0,0.0,0.0,0.0,0.0,-0.2697,-0.2685,-0.2759,-0.2781,0.0,0.0,-0.2827,-0.2827,-0.2827,-0.2824,-0.2778,0.0,0.0,0.0,0.0,0.0,0.0,0.0,0.0,0.0,0.0,0.0,0.0,0.0,0.0,0.0,0.0,0.0,0.0,0.0,0.0,0.0,0.0,0.0,0.0,0.0,0.0,0.0,0.0,0.0,0.0,0.0,0.0,0.0,0.0,0.0,0.0,0.0,0.0,0.0,0.0,0.0,0.0,0.0,0.0,0.0,0.0,0.0,0.0,0.0,0.0,0.0,0.0,0.0,-0.2687,-0.425,-0.5459,-0.6303,-0.6801,-0.7421,-0.7752,-0.7752,-0.7827,-0.7811,0.0,0.0,0.0,0.0,0.0,0.0,0.0,0.0,0.0,0.0,0.0,0.0,0.0,0.0,0.0,0.0,0.0,0.0,0.0,0.0,0.0,0.0,0.0,0.0,0.0,0.0,0.0,0.0,-0.3018,-0.2906,-0.2657,0.0,0.0,0.0,0.0,0.0,0.0,0.0,0.0,0.0,0.0,-0.271,-0.2759,-0.2792,0.0,0.0,-0.2827,-0.2884,-0.284,-0.2883,-0.2833,-0.2814,-0.2792,0.0,0.0,0.0,0.0,0.0,0.0,0.0,0.0,0.0,0.0,0.0,0.0,0.0,0.0,0.0,0.0,0.0,0.0,0.0,0.0,0.0,0.0,0.0,0.0,0.0,0.0,0.0,0.0,0.0,0.0,0.0,0.0,0.0,0.0,0.0,0.0,0.0,0.0,0.0,0.0,0.0,0.0,0.0,0.0,0.0,0.0,0.0,0.0,0.0,0.0,0.0,0.0,-0.3917,-0.5405,-0.6351,-0.7089,-0.7604,-0.7939,-0.8102,-0.8102,-0.8003,-0.7962,0.0,0.0,0.0,0.0,0.0,0.0,0.0,0.0,0.0,0.0,0.0,0.0,0.0,0.0,0.0,0.0,0.0,0.0,0.0,0.0,0.0,0.0,0.0,0.0,0.0,0.0,0.0,0.0,-0.3385,-0.3191,-0.2831,0.0,0.0,0.0,0.0,0.0,0.0,0.0,0.0,0.0,0.0,-0.2748,-0.2791,-0.2823,-0.2842,-0.2842,-0.286,-0.2919,-0.2919,-0.2919,-0.287,-0.2856,0.0,0.0,0.0,0.0,0.0,0.0,0.0,0.0,0.0,0.0,0.0,0.0,0.0,0.0,0.0,0.0,0.0,0.0,0.0,0.0,0.0,0.0,0.0,0.0,0.0,0.0,0.0,0.0,0.0,0.0,1.1627,0.0,0.0,0.0,0.0,0.0,0.0,0.0,0.0,0.0,0.0,0.0,0.0,0.0,0.0,0.0,0.0,0.0,0.0,0.0,0.0,0.0,0.0,-0.4994,-0.5888,-0.6849,-0.76,-0.806,-0.8102,-0.8102,-0.8102,-0.8102,-0.8061,-0.7896,0.0,0.0,0.0,0.0,0.0,0.0,0.0,0.0,0.0,0.0,0.0,0.0,0.0,0.0,0.0,0.0,0.0,0.0,0.0,0.0,0.0,0.0,0.0,0.0,0.0,0.0,-0.4001,-0.3633,-0.3388,0.0,0.0,0.0,0.0,0.0,0.0,0.0,0.0,0.0,0.0,-0.2746,-0.2826,-0.2829,-0.2853,-0.2917,-0.2917,-0.2919,-0.292,-0.292,-0.292,-0.2883,0.0,0.0,0.0,0.0,0.0,0.0,0.0,0.0,0.0,0.0,0.0,0.0,0.0,0.0,0.0,0.0,0.0,0.0,0.0,0.0,0.0,0.0,0.0,0.0,0.0,0.0,0.0,1.0933,1.1018,0.0,0.0,0.0,0.0,0.0,0.0,0.0,0.0,0.0,0.0,0.0,0.0793,-0.0317,0.0,0.0,0.0,0.0,0.0,0.0,0.0,0.0,0.0,0.0,0.0,0.0,-0.5567,-0.6705,-0.7184,-0.7646,-0.806,-0.8102,-0.8102,-0.8102,-0.8102,-0.8019,-0.7896,0.0,0.0,0.0,0.0,0.0,0.0,0.0,0.0,0.0,0.0,0.0,0.0,0.0,0.0,0.0,0.0,0.0,0.0,0.0,0.0,0.0,0.0,0.0,0.0,0.0,-0.5836,0.0,0.0,0.0,0.0,0.0,0.0,0.0,0.0,0.0,0.0,0.0,-0.2772,-0.2822,-0.2829,-0.2798,-0.2881,-0.2879,-0.2881,0.0,0.0,0.0,0.0,0.0,0.0,0.0,0.0,0.0,0.0,0.0,0.0,0.0,0.0,-0.2889,-0.2895,-0.2888,-0.2888,-0.2888,0.0,0.0,0.0,0.0,0.0,0.0,0.0,0.0,0.0,0.0,0.0,0.0,0.0,0.0,0.8977,0.0,0.8606,0.0,0.0,0.0,0.0,0.0,0.0,0.0,0.0,0.08,-0.0403,-0.1503,-0.2317,-0.2928,0.0,-0.3495,-0.308,0.0,0.0,0.0,0.0,0.0,0.0,0.0,0.0,-0.6337,-0.7151,-0.7474,-0.7855,-0.8273,-0.8315,-0.8399,-0.8566,-0.8399,-0.8207,-0.7978,-0.7909,-0.788,0.0,0.0,0.0,0.0,0.0,0.0,0.0,0.0,0.0,0.0,0.0,0.0,0.0,0.0,0.0,0.0,0.0,0.0,0.0,0.0,0.0,0.0,0.0,-0.7087,0.0,0.0,0.0,0.0,0.0,0.0,0.0,0.0,0.0,-0.2798,-0.2789,-0.2881,-0.2942,-0.2887,-0.2889,-0.2926,0.0,0.0,0.0,0.0,0.0,0.0,0.0,-0.3004,-0.2949,-0.2972,-0.3043,-0.3054,-0.3018,-0.3021,-0.301,0.0,0.0,-0.2919,-0.295,-0.295,-0.295,-0.2949,-0.2949,-0.295,-0.295,-0.2949,0.0,0.0,0.0,0.0,0.0,0.0,0.0,0.0,0.7261,0.6774,0.0,0.5607,0.0,0.0,0.0,0.0,0.0,0.1414,0.0,0.0,-0.1098,-0.1953,-0.2809,-0.3667,-0.4275,-0.4717,-0.5088,-0.5491,-0.5848,-0.4663,0.0,0.0,0.0,0.0,0.0,0.0,-0.7228,-0.7276,-0.7846,-0.8357,-0.8738,-0.8738,-0.8947,-0.937,-0.8951,-0.8533,-0.811,-0.7999,-0.7905,-0.79,-0.7856,0.0,0.0,0.0,0.0,0.0,0.0,0.0,0.0,0.0,0.0,0.0,0.0,0.0,0.0,0.0,0.0,0.0,0.0,0.0,0.0,-0.79,0.0,0.0,0.0,0.0,0.0,0.0,0.0,0.0,0.0,0.0,-0.3056,-0.2921,-0.2944,-0.3,0.0,0.0,0.0,0.0,-0.3007,-0.3009,-0.3009,-0.3009,-0.3011,-0.3011,-0.3024,-0.3005,0.0,0.0,-0.3093,-0.3122,-0.3081,-0.3104,-0.3118,-0.3106,-0.3036,-0.3017,-0.3017,-0.3016,-0.3018,-0.2968,-0.3014,-0.302,-0.3018,0.5817,0.0,0.0,0.0,0.0,0.6355,0.5857,0.5367,0.4847,0.4382,0.4018,0.3461,0.0,0.0,0.0,0.0,0.0,0.0,-0.1145,-0.2018,-0.3195,-0.404,-0.4664,-0.5829,-0.6452,-0.6618,-0.7074,-0.7319,-0.744,-0.7319,-0.6763,-0.5783,0.0,0.0,0.0,0.0,-0.793,-0.8229,-0.8755,-0.9235,-0.9694,-0.9699,-0.9608,-0.9465,-0.9047,-0.8658,-0.8252,-0.8189,-0.8148,-0.8125,-0.8036,0.0,0.0,0.0,0.0,0.0,0.0,0.0,0.0,0.0,0.0,0.0,0.0,0.0,0.0,0.0,0.0,0.0,0.0,0.0,-1.0752,-0.9821,-0.9196,0.0,0.0,0.0,0.0,0.0,0.0,0.0,0.0,0.0,-0.4073,-0.3409,-0.295,0.0,0.0,-0.2969,-0.2991,-0.2976,-0.2969,-0.2991,-0.2994,0.0,-0.3071,-0.3092,-0.3062,-0.307,-0.3097,-0.312,-0.3129,-0.3137,-0.3091,-0.3131,-0.3137,-0.3081,-0.3101,-0.3091,-0.3042,-0.3091,-0.3091,-0.3091,-0.3091,-0.3042,-0.3089,0.3786,0.4668,0.4763,0.4907,0.5028,0.4503,0.3873,0.3262,0.2644,0.2058,0.1502,0.0893,0.0364,-0.004,-0.0482,0.0,0.0,0.0,-0.2901,-0.3832,-0.4779,-0.5633,-0.6514,-0.7478,-0.8102,-0.8478,-0.8938,-0.9226,-0.9434,-0.9831,-0.9538,-0.8523,0.0,0.0,-0.8239,-0.8575,-0.8976,-0.9477,-0.9829,-1.0199,-1.0493,-1.0334,-1.0021,-0.9569,-0.9146,-0.8749,-0.833,-0.829,-0.8266,-0.8256,-0.8199,-0.8146,0.0,0.0,0.0,0.0,0.0,0.0,0.0,0.0,0.0,0.0,0.0,-0.905,-0.9886,0.0,0.0,0.0,-1.2277,-1.2798,-1.3236,-1.1943,0.0,0.0,0.0,0.0,0.0,0.0,0.0,-0.6528,-0.6299,-0.5915,-0.528,-0.4493,-0.393,-0.3686,-0.349,-0.3351,-0.3371,0.0,-0.304,-0.3058,-0.3061,-0.3067,-0.3085,-0.3103,-0.3119,-0.3131,-0.3148,-0.3116,-0.3127,-0.3128,-0.3128,-0.3128,-0.3128,-0.3128,-0.3128,-0.3128,-0.3119,-0.3099,-0.3093,-0.3093,-0.3093,-0.3093,-0.3093,0.2564,0.2562,0.2779,0.3127,0.3405,0.2633,0.2034,0.1506,0.057,-0.0285,-0.11,-0.1956,-0.2567,-0.2935,-0.3302,0.0,-0.3604,-0.4018,-0.4664,-0.5552,-0.6011,-0.693,-0.8269,-0.878,-0.9449,-1.0367,-1.0748,-1.117,-1.1593,-1.2131,-1.2234,-1.1757,-1.0225,-0.9658,-0.9936,-1.0081,-1.0433,-1.0962,-1.1115,-1.1189,-1.1171,-1.0665,-1.0153,-0.9726,-0.925,-0.8779,-0.8354,-0.8315,-0.8311,-0.8315,-0.8307,-0.8303,-0.8342,0.0,0.0,0.0,0.0,0.0,0.0,0.0,0.0,0.0,0.0,0.0,0.0,0.0,0.0,0.0,-1.4368,0.0,-1.5478,-1.4123,0.0,0.0,0.0,-1.0736,-1.058,-1.0025,-0.9251,-0.7955,0.0,0.0,-0.6636,-0.611,-0.5602,-0.5026,-0.4382,-0.397,-0.397,-0.3559,-0.324,-0.3284,-0.3239,-0.3191,-0.324,-0.3149,-0.316,-0.3183,-0.3191,-0.3201,-0.3221,-0.3227,-0.3178,-0.3176,-0.3179,-0.3178,-0.3179,-0.3227,-0.3163,-0.3112,-0.3103,-0.3103,-0.3105,-0.3105,-0.3107,0.2141,0.2061,0.1119,0.1152,0.1702,0.0942,0.0123,-0.0742,-0.1952,-0.2751,-0.3295,-0.4211,-0.4669,-0.4753,-0.4836,-0.5093,-0.5485,-0.5527,-0.6079,-0.6933,-0.7725,-0.8599,-0.9648,-1.0902,-1.1746,-1.2306,-1.287,-1.3219,-1.3311,-1.3471,-1.3491,-1.3357,-1.2962,-1.2221,-1.1246,-1.1897,-1.2353,-1.2468,-1.2605,-1.235,-1.165,-1.0789,-1.0139,-0.9787,-0.9311,-0.8908,-0.8542,-0.8542,-0.8542,-0.8542,-0.8477,-0.844,-0.848,-0.8334,0.0,0.0,0.0,0.0,0.0,0.0,0.0,0.0,0.0,-1.2232,-1.3418,0.0,-1.493,0.0,-1.5571,-1.5836,-1.6,-1.5345,0.0,0.0,-1.3622,-1.2703,-1.2671,-1.2061,-1.134,-1.0615,-1.0381,-1.0065,-0.9382,-0.8547,-0.7928,-0.7699,-0.5907,-0.4598,-0.4598,-0.4508,-0.4418,-0.4322,-0.3978,-0.3739,-0.3767,-0.3445,-0.321,-0.3219,-0.322,-0.3223,-0.323,-0.3179,-0.3179,-0.3179,-0.3179,-0.3179,-0.3179,-0.3179,-0.3227,-0.3162,-0.3209,-0.3209,-0.3159,-0.3159,-0.3159,0.1458,0.1042,0.0084,-0.0501,-0.0866,-0.1121,-0.1707,-0.2625,-0.3772,-0.4539,-0.4959,-0.5673,-0.5969,-0.5969,-0.5969,-0.6137,-0.6392,-0.6421,-0.7067,-0.8168,-0.9047,-1.0208,-1.1523,-1.2743,-1.3546,-1.4019,-1.4529,-1.4778,-1.4828,-1.5073,-1.5066,-1.4887,-1.5109,-1.4672,-1.364,-1.3664,-1.3749,-1.3774,-1.3102,-1.2518,-1.1995,-1.0817,-1.019,-1.0205,-0.9719,-0.9397,-0.9228,-0.9232,-0.9232,-0.9232,-0.918,-0.9149,-0.9149,-0.9276,-0.9412,0.0,0.0,0.0,0.0,0.0,0.0,0.0,0.0,0.0,0.0,0.0,-1.6349,-1.6638,-1.6832,-1.7003,-1.7204,-1.6727,-1.6418,-1.6567,-1.5445,-1.4686,-1.4752,-1.4235,-1.3513,-1.2791,-1.2579,-1.2205,-1.1471,-1.0482,-0.9773,-0.9522,-0.7646,-0.6101,-0.5537,-0.5153,-0.4772,-0.4772,-0.4523,-0.433,-0.4356,-0.4125,-0.3836,-0.3635,-0.3534,-0.3483,-0.3231,-0.3179,-0.3179,-0.3179,-0.3179,-0.3179,-0.3179,-0.3179,-0.3179,-0.3179,-0.3179,-0.3179,-0.3179,-0.3179,-0.3179,0.0589,-0.021,-0.0841,-0.2059,-0.3572,-0.3318,-0.3614,-0.433,-0.5253,-0.5924,-0.6389,-0.6727,-0.6857,-0.6909,-0.6909,-0.6913,-0.6926,-0.7032,-0.7828,-0.92,-1.0222,-1.1638,-1.3366,-1.4336,-1.5036,-1.5506,-1.5864,-1.6043,-1.6051,-1.6588,-1.6625,-1.627,-1.6625,-1.6625,-1.6226,-1.5369,-1.4938,-1.4887,-1.3255,-1.2343,-1.2254,-1.0921,-1.0431,-1.0876,-1.056,-1.0382,-1.0337,-1.0387,-1.0387,-1.0387,-1.0387,-1.0387,-1.0382,-1.0705,-1.0957,0.0,-1.134,0.0,0.0,0.0,0.0,0.0,0.0,0.0,0.0,-1.7125,-1.7591,-1.7924,-1.7973,-1.8119,-1.8508,-1.8017,-1.7765,-1.8048,-1.7094,-1.6491,-1.6669,-1.6222,-1.56,-1.4728,-1.4605,-1.425,-1.3368,-1.2366,-1.1518,-1.0958,-0.9452,-0.7981,-0.6894,-0.5821,-0.5093,-0.4999,-0.4948,-0.4887,-0.4793,-0.4744,-0.4595,-0.419,-0.4089,-0.3937,-0.3534,-0.3483,-0.3433,-0.3433,-0.3382,-0.3332,-0.3281,-0.3231,-0.323,-0.3332,-0.3332,-0.3332,-0.3231,-0.3332,-0.3281,-0.0589,-0.1178,-0.2732,-0.3784,-0.4542,-0.5502,-0.584,-0.5759,-0.664,-0.7311,-0.7725,-0.7809,-0.7853,-0.7916,-0.792,-0.7959,-0.7984,-0.8043,-0.8779,-1.0156,-1.1122,-1.2509,-1.4279,-1.5354,-1.6105,-1.6509,-1.6768,-1.6876,-1.6876,-1.7003,-1.702,-1.6932,-1.702,-1.6976,-1.694,0.0,0.0,0.0,-1.4095,-1.3135,-1.2742,-1.171,-1.1399,-1.1888,-1.2198,0.0,-1.2331,-1.2331,-1.2331,-1.2331,-1.2376,0.0,0.0,0.0,0.0,0.0,0.0,0.0,0.0,0.0,0.0,0.0,-1.6393,-1.652,-1.6784,-1.744,-1.79,-1.8111,-1.8312,-1.8436,-1.8647,-1.8551,-1.8503,-1.852,-1.8016,-1.7672,-1.771,-1.7333,-1.6977,-1.683,-1.6574,-1.6326,-1.5972,-1.4806,-1.3672,-1.3023,-1.1323,-0.9715,-0.8546,-0.7104,-0.6209,-0.6158,-0.5755,-0.5352,-0.4898,-0.4847,-0.4898,-0.4645,-0.4645,-0.4597,-0.4447,-0.4447,-0.4496,-0.4447,-0.4139,-0.3838,-0.3838,-0.3483,-0.3385,-0.3786,-0.3838,-0.3735,-0.3332,-0.3584,-0.3836,-0.2393,0.0,-0.4229,-0.517,0.0,-0.679,-0.722,-0.7213,-0.7554,-0.7897,-0.8106,-0.8151,-0.8196,-0.8199,-0.8248,-0.8289,-0.8294,-0.86,-0.9488,-1.0879,-1.2109,-1.3533,-1.5111,-1.615,-1.6764,-1.6947,-1.7161,-1.7242,-1.725,-1.7331,-1.7327,-1.7327,-1.7327,-1.7327,-1.7327,-1.7425,-1.6976,-1.5943,-1.4771,-1.4054,-1.3835,-1.3104,-1.2969,-1.3463,-1.3688,0.0,0.0,0.0,0.0,0.0,0.0,0.0,0.0,-1.4113,0.0,-1.4599,-1.4892,-1.534,-1.6025,-1.631,-1.6758,-1.7486,-1.7707,-1.7731,-1.7556,-1.802,-1.8355,-1.8436,-1.8533,-1.8663,-1.8826,-1.885,-1.8891,-1.8972,-1.8793,-1.8647,-1.8598,-1.8474,-1.8226,-1.7988,-1.781,-1.7608,-1.7318,-1.6126,-1.513,-1.4476,-1.2624,-1.0922,-0.9769,-0.8065,-0.6864,-0.6564,-0.6309,-0.6007,-0.5705,-0.5654,-0.5514,-0.533,-0.5235,-0.5145,-0.496,-0.4913,-0.4913,-0.4861,-0.4655,-0.4502,-0.4451,-0.4246,-0.4195,-0.4399,-0.4502,-0.4399,-0.4142,-0.4269,-0.4393,-0.4171,-0.4737,-0.5602,-0.6425,-0.7165,-0.7598,-0.7992,-0.8282,0.0,0.0,0.0,-0.8187,-0.8232,-0.8248,-0.8282,-0.8323,-0.8387,-0.8943,-0.9985,-1.1352,-1.2902,-1.4387,-1.5786,-1.672,-1.7177,-1.7165,-1.7356,-1.7429,-1.7437,-1.753,-1.7595,-1.7595,-1.7595,-1.7611,-1.7643,-1.7643,-1.7296,-1.6545,-1.5528,-1.5045,-1.5045,-1.4681,-1.4681,-1.5181,-1.5272,-1.5318,-1.5272,-1.5318,-1.5272,-1.5318,-1.5272,-1.5272,-1.5318,-1.5711,-1.5922,-1.5997,-1.6354,-1.675,-1.7202,-1.7514,-1.7859,-1.8273,-1.8582,-1.8631,-1.8298,-1.855,-1.8736,-1.8721,-1.8769,-1.8842,-1.9013,-1.9078,-1.9094,-1.9297,-1.9314,-1.9306,-1.9256,-1.9314,-1.905,-1.8704,-1.8605,-1.8507,-1.8069,-1.7169,-1.6325,-1.5628,-1.4027,-1.2134,-1.074,-0.883,-0.7264,-0.6813,-0.6673,-0.6631,-0.648,-0.6443,-0.6307,-0.5942,-0.5847,-0.571,-0.5381,-0.5289,-0.5289,-0.5386,-0.5237,-0.5131,-0.5133,-0.5024,-0.5032,-0.5136,-0.5136,-0.5187,-0.5285,-0.523,-0.5132,-0.5258,-0.6082,-0.6995,-0.7472,-0.7645,-0.8031,-0.8247,-0.829,-0.8262,-0.8297,-0.8254,-0.8266,-0.8358,-0.8475,-0.8444,-0.8497,-0.8566,-0.9068,-1.0056,-1.1427,-1.2901,-1.4435,-1.595,-1.6902,-1.7429,-1.7514,-1.7546,-1.7554,-1.7562,-1.7587,-1.7595,-1.7603,-1.7595,-1.7676,-1.7822,-1.7884,-1.7856,-1.7901,-1.6651,-1.6007,-1.6007,-1.5916,-1.6151,-1.656,-1.6968,-1.7187,-1.7232,-1.7187,-1.7187,-1.7232,-1.7187,-1.7187,-1.7232,-1.7391,-1.7618,-1.7816,-1.8062,-1.827,-1.8415,-1.8527,-1.8551,-1.8607,-1.8834,-1.8858,-1.8671,-1.8696,-1.8737,-1.8923,-1.8948,-1.9021,-1.924,-1.9265,-1.9273,-1.9297,-1.9314,-1.9314,-1.9314,-1.9314,-1.9256,-1.9157,-1.9157,-1.9157,-1.896,-1.8457,-1.7813,-1.7218,-1.5691,-1.4019,-1.1777,-0.9415,-0.7921,-0.7323,-0.7214,-0.7044,-0.6695,-0.6583,-0.6554,-0.6466,-0.6417,-0.6371,-0.6286,-0.6236,-0.6236,-0.633,-0.5977,-0.5715,-0.5661,-0.5291,-0.53,-0.5613,-0.572,-0.5819,-0.6184,-0.6265,-0.6146,-0.6539,-0.7247,-0.7912,-0.8221,-0.8221,-0.8397,-0.8481,-0.8441,-0.8441,-0.838,-0.8299,-0.8343,-0.8432,-0.8516,-0.8522,-0.857,-0.8656,-0.9419,-1.0565,-1.1995,-1.3495,-1.5014,-1.6438,-1.7166,-1.7567,-1.7603,-1.77,-1.7749,-1.7749,-1.7884,-1.7924,-1.7932,-1.7932,-1.7973,-1.8054,-1.8054,-1.8141,-1.8168,-1.7597,-1.7288,-1.7288,-1.7288,-1.738,-1.761,-1.784,-1.7932,-1.7932,-1.7932,-1.7973,-1.8079,-1.8079,-1.8127,-1.8178,-1.8267,-1.8395,-1.8468,-1.8558,-1.8639,-1.872,-1.8809,-1.8907,-1.9013,-1.9086,-1.9102,-1.9021,-1.9021,-1.9045,-1.9175,-1.9183,-1.9216,-1.9297,-1.9314,-1.9314,-1.9314,-1.9314,-1.9314,-1.9314,-1.9314,-1.9314,-1.9314,-1.9314,-1.9314,-1.9314,-1.8853,-1.8457,-1.8069,-1.6828,-1.5189,-1.3638,-1.2288,-1.063,-0.8804,-0.8119,-0.7674,-0.7166,-0.7083,-0.696,-0.6731,-0.6632,-0.6648,-0.6725,-0.6681,-0.6733,-0.6683,-0.6473,-0.6368,-0.6313,-0.6158,-0.6158,-0.621,-0.6368,-0.6473,-0.6683,-0.6683,-0.6554,-0.7531,-0.8112,-0.8429,-0.8607,-0.8607,-0.8607,-0.8607,-0.8607,-0.8607,-0.853,-0.8419,-0.8473,-0.8501,-0.8509,-0.8595,-0.8636,-0.8783,-0.9726,-1.1038,-1.2493,-1.3991,-1.5521,-1.6886,-1.7432,-1.7676,-1.7724,-1.7862,-1.7981,-1.7989,-1.8111,-1.8176,-1.8176,-1.8176,-1.8176,-1.8176,-1.8176,-1.8192,-1.828,-1.8288,-1.8263,-1.8176,-1.8176,-1.8192,-1.828,-1.8288,-1.8304,-1.8298,-1.8298,-1.8363,-1.8548,-1.8556,-1.8574,-1.8664,-1.8728,-1.8744,-1.8777,-1.8785,-1.8801,-1.885,-1.8964,-1.9151,-1.9297,-1.9314,-1.9314,-1.9314,-1.9314,-1.9314,-1.9314,-1.9306,-1.9306,-1.9314,-1.9314,-1.9314,-1.9314,-1.9314,-1.9314,-1.9314,-1.9314,-1.9314,-1.9314,-1.9314,-1.9322,-1.9255,-1.8958,-1.8742,-1.8448,-1.7479,-1.6452,-1.5712,-1.507,-1.3379,-1.1338,-0.9676,-0.8684,-0.8061,-0.7824,-0.7539,-0.7004,-0.6957,-0.6921,-0.6849,-0.6815,-0.6815,-0.6809,-0.6812,-0.6754,-0.6762,-0.6762,-0.6756,-0.6754,-0.6751,-0.6756,-0.6754,-0.6966,-0.6896,-0.7713,-0.8473,-0.8563,-0.8607,-0.8607,-0.8607,-0.8607,-0.8607,-0.8611,-0.8603,-0.8583,-0.8591,-0.8595,-0.8607,-0.8685,-0.8676,-0.8775,-0.9821,-1.11,-1.2615,-1.4036,-1.5578,-1.7141,-1.7654,-1.7973,-1.8103,-1.8135,-1.8135,-1.8135,-1.816,-1.8176,-1.8176,-1.8176,-1.8184,-1.8184,-1.8184,-1.8304,-1.8467,-1.8475,-1.8394,-1.8184,-1.8176,-1.8304,-1.8467,-1.8475,-1.8501,-1.8591,-1.8623,-1.868,-1.8696,-1.8656,-1.8656,-1.8728,-1.8728,-1.8801,-1.8948,-1.8956,-1.9078,-1.9232,-1.9273,-1.9281,-1.9306,-1.9314,-1.9314,-1.9314,-1.9314,-1.9314,-1.9314,-1.9314,-1.9314,-1.9314,-1.9314,-1.9314,-1.9314,-1.9314,-1.9314,-1.9314,-1.9314,-1.9314,-1.9314,-1.9338,-1.9371,-1.9459,-1.9392,-1.9247,-1.9029,-1.846,-1.7887,-1.7305,-1.6558,-1.5717,-1.4441,-1.253,-1.0491,-0.9449,-0.872,-0.8319,-0.7756,-0.76,-0.7391,-0.7081,-0.6871,-0.6818,-0.6818,-0.6818,-0.6818,-0.6871,-0.6818,-0.6871,-0.7098,-0.7044,-0.6879,-0.6874,-0.7255,-0.7402,-0.7576,-0.8201,-0.8473,-0.8607,-0.8607,-0.8607,-0.8607,-0.8611,-0.866,-0.8681,-0.8693,-0.8738,-0.8734,-0.8689,-0.8775,-0.8815,-0.8911,-0.9926,-1.1264,-1.2795,-1.4296,-1.5821,-1.7274,-1.7838,-1.8111,-1.8168,-1.8176,-1.8176,-1.8176,-1.8176,-1.8176,-1.8192,-1.8328,-1.8385,-1.8394,-1.8444,-1.8541,-1.8606,-1.8615,-1.8574,-1.8509,-1.8501,-1.8533,-1.8598,-1.8615,-1.8647,-1.8664,-1.8728,-1.8777,-1.8866,-1.8883,-1.8931,-1.9037,-1.9045,-1.9069,-1.9192,-1.9192,-1.9224,-1.9306,-1.9314,-1.9314,-1.9314,-1.9314,-1.9314,-1.9314,-1.9314,-1.9314,-1.9314,-1.9314,-1.9314,-1.9314,-1.9314,-1.9314,-1.9314,-1.9314,-1.9314,-1.9314,-1.9354,-1.941,-1.9419,-1.9508,-1.9589,-1.9654,-1.9678,-1.965,-1.9599,-1.9442,-1.9145,-1.8722,-1.8284,-1.7732,-1.6839,-1.5385,-1.352,-1.1419,-1.0078,-0.9417,-0.8784,-0.809,-0.7559,-0.7453,-0.6977,-0.6818,-0.6818,-0.6876,-0.7033,-0.7349,-0.7352,-0.7408,-0.7652,-0.7931,-0.795,-0.8,-0.8162,-0.8216,-0.7397,-0.7933,-0.8429,-0.8607,-0.8611,-0.8636,-0.8644,-0.8652,-0.8734,-0.8771,-0.8783,-0.8869,-0.8873,-0.8824,-0.8881,-0.8956,-0.9056,-1.0077,-1.1377,-1.2876,-1.4471,-1.5978,-1.7336,-1.7943,-1.8176,-1.8176,-1.8176,-1.8247,-1.8288,-1.8296,-1.832,-1.8338,-1.846,-1.8573,-1.8589,-1.8663,-1.8704,-1.8793,-1.8793,-1.8818,-1.8858,-1.8874,-1.885,-1.8801,-1.8793,-1.8818,-1.8874,-1.8874,-1.8931,-1.9045,-1.9061,-1.9167,-1.9297,-1.9314,-1.9314,-1.9314,-1.9314,-1.9314,-1.9314,-1.9314,-1.9314,-1.9314,-1.9314,-1.9314,-1.9314,-1.9314,-1.9314,-1.9314,-1.9346,-1.9321,-1.9314,-1.9314,-1.933,-1.9321,-1.9329,-1.9387,-1.946,-1.9524,-1.9589,-1.9597,-1.9687,-1.9817,-1.9857,-1.9906,-2.0003,-2.0109,-2.0141,-2.0062,-1.9819,-1.9634,-1.9268,-1.8439,-1.7751,-1.617,-1.3427,-1.1954,-1.1006,-1.0057,-0.9258,-0.8462,-0.8196,-0.7668,-0.7296,-0.7618,-0.7361,-0.7432,-0.7874,-0.8032,-0.8104,-0.8536,-0.8756,-0.8794,-0.861,-0.8845,-0.9008,-0.7036,-0.7933,-0.8429,-0.8611,-0.8615,-0.8689,-0.868,-0.8734,-0.8828,-0.891,-0.8877,-0.8962,-0.8999,-0.8991,-0.8999,-0.8999,-0.9152,-1.0126,-1.1438,-1.2893,-1.4463,-1.5978,-1.739,-1.7943,-1.8176,-1.8176,-1.82,-1.8328,-1.8483,-1.8483,-1.8533,-1.868,-1.8704,-1.8712,-1.872,-1.8744,-1.8818,-1.8956,-1.8972,-1.9045,-1.9249,-1.9273,-1.9183,-1.8988,-1.8972,-1.9045,-1.9191,-1.9273,-1.9281,-1.9289,-1.9289,-1.9297,-1.9314,-1.9314,-1.9314,-1.9314,-1.9314,-1.9314,-1.9314,-1.9314,-1.9314,-1.9314,-1.9314,-1.9314,-1.9314,-1.9314,-1.9322,-1.9314,-1.9402,-1.9427,-1.9371,-1.9371,-1.9362,-1.9484,-1.95,-1.9573,-1.9735,-1.9743,-1.9776,-1.9776,-1.9817,-1.9906,-2.0095,-2.0198,-2.0247,-2.0288,-2.0304,-2.0252,-2.02,-2.0216,-1.9955,-1.9485,-1.8798,-1.7744,-1.5599,-1.4066,-1.2958,-1.206,-1.1059,-0.9902,-0.9371,-0.8893,-0.8631,-0.8382,-0.8322,-0.8355,-0.858,-0.8719,-0.8814,-0.9015,-0.908,-0.9098,-0.9291,-0.9411,-0.9528,-0.7215,-0.8339,-0.8518,-0.864,-0.8644,-0.8676,-0.8766,-0.8828,-0.8918,-0.8958,-0.8975,-0.9005,-0.9046,-0.905,-0.9046,-0.9046,-0.9144,-0.984,-1.1033,-1.2497,-1.3999,-1.5509,-1.6915,-1.7803,-1.8176,-1.8192,-1.8345,-1.8444,-1.8615,-1.8623,-1.8655,-1.8728,-1.8842,-1.8891,-1.8907,-1.9013,-1.9102,-1.92,-1.9208,-1.924,-1.9289,-1.9314,-1.9273,-1.9216,-1.9208,-1.924,-1.9306,-1.9314,-1.9314,-1.9314,-1.9314,-1.9314,-1.9314,-1.9314,-1.9314,-1.9314,-1.9314,-1.9314,-1.9314,-1.9314,-1.9314,-1.9314,-1.9314,-1.9314,-1.9314,-1.9314,-1.9354,-1.9402,-1.9467,-1.9516,-1.9597,-1.9597,-1.9672,-1.9678,-1.9695,-1.9711,-1.9792,-1.9941,-2.0022,-2.0038,-2.0052,-2.0166,-2.0198,-2.0288,-2.032,-2.0268,-2.0268,-2.0268,-2.0268,-2.0268,-2.0216,-2.0059,-1.9798,-1.9321,-1.8282,-1.6328,-1.4856,-1.396,-1.2963,-1.1688,-1.0855,-0.9813,-0.9343,-0.9014,-0.9006,-0.9082,-0.9208,-0.9633,-0.9682,-0.9807,-0.9814,-0.9786,-1.0104,-1.0065,-1.0187,-0.7442,-0.8522,-0.864,-0.8636,-0.8693,-0.8753,-0.8856,-0.8922,-0.9011,-0.9052,-0.9018,-0.907,-0.9099,-0.9099,-0.9099,-0.9099,-0.9142,-0.9664,-1.0659,-1.1983,-1.3487,-1.4986,-1.64,-1.7476,-1.8068,-1.829,-1.8452,-1.8631,-1.8785,-1.8809,-1.8834,-1.8907,-1.9021,-1.9037,-1.9021,-1.9159,-1.92,-1.9102,-1.9086,-1.9086,-1.9086,-1.9135,-1.9167,-1.9208,-1.9224,-1.9249,-1.9306,-1.9314,-1.9314,-1.9314,-1.9314,-1.9314,-1.9314,-1.9314,-1.9314,-1.9314,-1.9314,-1.9314,-1.9314,-1.9314,-1.9314,-1.9314,-1.9314,-1.9322,-1.9379,-1.9337,-1.9427,-1.9557,-1.967,-1.9752,-1.9849,-1.9922,-1.9938,-1.9898,-1.9882,-1.9906,-1.9955,-2.0076,-2.0141,-2.0158,-2.0231,-2.0304,-2.0268,-2.0268,-2.0268,-2.0268,-2.0268,-2.0268,-2.0268,-2.0268,-2.0268,-2.0268,-2.0268,-2.0099,-1.9623,-1.8384,-1.7119,-1.6162,-1.4786,-1.3503,-1.2331,-1.1182,-1.025,-0.9817,-0.9582,-0.9659,-0.9913,-1.0345,-1.0534,-1.0657,-1.0567,-1.042,-1.0611,-1.0683,-1.0667,-0.7766,-0.8587,-0.8656,-0.8742,-0.8733,-0.8918,-0.8999,-0.902,-0.905,-0.9083,-0.9083,-0.9095,-0.9099,-0.9099,-0.9099,-0.9099,-0.919,-0.9569,-1.0422,-1.1553,-1.301,-1.4476,-1.5985,-1.7031,-1.7899,-1.8476,-1.8639,-1.8809,-1.8948,-1.8956,-1.9029,-1.9232,-1.9216,-1.9086,-1.9021,-1.8972,-1.8907,-1.8826,-1.8809,-1.8737,-1.8736,-1.8809,-1.8899,-1.9004,-1.9078,-1.9151,-1.9306,-1.9314,-1.9314,-1.9314,-1.9314,-1.9314,-1.9314,-1.9314,-1.9314,-1.9314,-1.9314,-1.9314,-1.9355,-1.9355,-1.9404,-1.9462,-1.9363,-1.9544,-1.9701,-1.97,-1.974,-1.9971,-2.0127,-2.0206,-2.0179,-2.0286,-2.0266,-2.0101,-2.006,-2.0125,-2.0247,-2.0252,-2.0268,-2.0304,-2.032,-2.0268,-2.0268,-2.0268,-2.0268,-2.0268,-2.0268,-2.0268,-2.0268,-2.0268,-2.0268,-2.0292,-2.0377,-2.0329,-2.047,-2.0438,-1.9432,-1.8371,-1.6823,-1.5355,-1.4381,-1.3295,-1.2081,-1.1481,-1.0545,-1.0569,-1.0325,-1.0642,-1.0706,-1.0778,-1.0807,-1.0807,-1.0807,-1.0807,-1.0807,-0.792,-0.8745,-0.8815,-0.8864,-0.8922,-0.8987,-0.904,-0.9054,-0.9087,-0.9095,-0.9099,-0.9099,-0.9099,-0.9099,-0.9099,-0.9099,-0.9099,-0.9332,-1.009,-1.1416,-1.2592,-1.4099,-1.5772,-1.7036,-1.805,-1.8729,-1.8874,-1.8923,-1.8964,-1.9029,-1.8964,-1.8907,-1.8899,-1.8866,-1.8818,-1.8809,-1.8818,-1.8899,-1.8907,-1.8956,-1.9077,-1.9135,-1.9118,-1.9216,-1.9175,-1.9257,-1.9306,-1.9314,-1.9314,-1.9314,-1.9314,-1.9314,-1.9306,-1.9314,-1.9314,-1.9314,-1.9314,-1.9454,-1.975,-1.9799,-1.9947,-2.026,-2.0453,-2.0548,-2.0625,-2.0686,-2.084,-2.1071,-2.1157,-2.1131,-2.0948,-2.0903,-2.0756,-2.0299,-2.0239,-2.0247,-2.0304,-2.0268,-2.0268,-2.0268,-2.0268,-2.0268,-2.0268,-2.0268,-2.0268,-2.0268,-2.0268,-2.0268,-2.0328,-2.0344,-2.0385,-2.0474,-2.0507,-2.0572,-2.0702,-2.0799,-2.0335,-1.9639,-1.8452,-1.723,-1.6248,-1.5112,-1.3943,-1.2772,-1.1891,-1.1317,-1.1073,-1.0862,-1.0918,-1.0867,-1.0867,-1.0811,-1.0807,-1.0815,-1.0831,-0.7994,-0.8877,-0.8909,-0.8954,-0.9011,-0.904,-0.9089,-0.9095,-0.9099,-0.9099,-0.9099,-0.9099,-0.9099,-0.9099,-0.9099,-0.9099,-0.9099,-0.9099,-0.9733,-1.0901,-1.1947,-1.3412,-1.5249,-1.6866,-1.7927,-1.8471,-1.8664,-1.8753,-1.8891,-1.8883,-1.8826,-1.8696,-1.8728,-1.8728,-1.8728,-1.8728,-1.8785,-1.8874,-1.8883,-1.8939,-1.9037,-1.9061,-1.9143,-1.9192,-1.9404,-1.9536,-1.9544,-1.975,-1.9651,-1.9355,-1.9314,-1.9355,-1.9553,-1.9553,-1.9651,-1.9849,-1.9849,-1.9997,-2.0284,-2.0333,-2.0432,-2.0753,-2.101,-2.1109,-2.1238,-2.1397,-2.1599,-2.1766,-2.1758,-2.1699,-2.1544,-2.1509,-2.1301,-2.0989,-2.052,-2.032,-2.0268,-2.0268,-2.0268,-2.0268,-2.0268,-2.0268,-2.0268,-2.0268,-2.0268,-2.0268,-2.0268,-2.0369,-2.0393,-2.0426,-2.0531,-2.0629,-2.0677,-2.0783,-2.0921,-2.0986,-2.1035,-2.0611,-2.0024,-1.8969,-1.7998,-1.6601,-1.5313,-1.368,-1.2561,-1.2228,-1.1926,-1.1364,-1.1197,-1.1086,-1.1094,-1.0811,-1.0815,-1.086,-1.0824,-0.8008,-0.8897,-0.8979,-0.9016,-0.9032,-0.9054,-0.9091,-0.9095,-0.9099,-0.9099,-0.9099,-0.9099,-0.9099,-0.9099,-0.9099,-0.9099,-0.9099,-0.9099,-0.9382,-1.0155,-1.1132,-1.2569,-1.4489,-1.6471,-1.7609,-1.7998,-1.8155,-1.8374,-1.8672,-1.8696,-1.872,-1.8688,-1.8704,-1.8728,-1.8728,-1.8728,-1.8744,-1.8881,-1.8817,-1.8881,-1.8971,-1.8954,-1.902,-1.9265,-1.9671,-1.9934,-2.0111,-2.0432,-2.0284,-1.9553,-1.9503,-1.9701,-1.9939,-2.0038,-2.0235,-2.0629,-2.0776,-2.0776,-2.0826,-2.0875,-2.0942,-2.1084,-2.1303,-2.1262,-2.1658,-2.1905,-2.2083,-2.2235,-2.2209,-2.2175,-2.208,-2.2029,-2.1977,-2.1882,-2.1101,-2.0581,-2.0372,-2.0372,-2.0424,-2.032,-2.0268,-2.0268,-2.0268,-2.0268,-2.0268,-2.0328,-2.0344,-2.0434,-2.0523,-2.0588,-2.0694,-2.0783,-2.0864,-2.097,-2.11,-2.114,-2.1181,-2.1088,-2.0715,-2.0092,-1.9261,-1.7902,-1.6599,-1.4963,-1.3758,-1.3314,-1.2868,-1.2534,-1.2107,-1.2018,-1.1674,-1.1098,-1.1024,-1.126,-1.1233,-0.8504,-0.9026,-0.905,-0.9062,-0.9062,-0.9091,-0.9099,-0.9099,-0.9099,-0.9099,-0.9099,-0.9099,-0.9099,-0.9099,-0.9099,-0.9099,-0.9099,-0.9099,-0.9191,-0.9605,-1.0528,-1.2641,-1.4921,-1.6512,-1.7474,-1.7918,-1.8005,-1.8216,-1.855,-1.8671,-1.8663,-1.8533,-1.8767,-1.8776,-1.8728,-1.8784,-1.8986,-1.9432,-1.9489,-1.9759,-2.0153,-2.017,-2.0253,-2.0337,-2.0444,-2.0568,-2.0571,-2.0727,-2.0727,-2.0481,-2.0432,-2.0432,-2.0579,-2.0579,-2.0678,-2.0826,-2.0875,-2.1022,-2.1317,-2.1424,-2.1626,-2.2128,-2.2263,-2.2567,-2.278,-2.2974,-2.3104,-2.3169,-2.3169,-2.2962,-2.2703,-2.2599,-2.2444,-2.2029,-2.1717,-2.1405,-2.1049,-2.0945,-2.0789,-2.0372,-2.032,-2.032,-2.0372,-2.032,-2.0328,-2.0353,-2.0426,-2.0547,-2.0645,-2.0751,-2.0848,-2.0978,-2.1075,-2.1165,-2.1246,-2.1295,-2.1327,-2.1335,-2.1116,-2.0889,-2.0035,-1.9045,-1.7784,-1.6471,-1.5751,-1.5197,-1.4647,-1.4147,-1.3684,-1.3354,-1.2981,-1.2705,-1.2282,-1.2241,-1.2013,-0.8664,-0.9099,-0.9099,-0.9099,-0.9099,-0.9099,-0.9099,-0.9099,-0.9099,-0.9099,-0.9099,-0.9099,-0.9099,-0.9099,-0.9099,-0.9099,-0.9099,-0.9183,-0.9252,-0.958,-1.0787,-1.271,-1.4741,-1.607,-1.7005,-1.7629,-1.7731,-1.8055,-1.8567,-1.8871,-1.899,-1.9044,-1.9246,-1.9426,-1.9575,-1.9518,-1.9699,-2.0136,-2.0219,-2.0426,-2.0768,-2.0826,-2.0776,-2.0875,-2.0973,-2.1219,-2.1415,-2.1465,-2.1268,-2.0924,-2.0826,-2.0866,-2.1121,-2.1121,-2.121,-2.1406,-2.1456,-2.1652,-2.1867,-2.202,-2.223,-2.2637,-2.2913,-2.313,-2.3291,-2.346,-2.3583,-2.3583,-2.3583,-2.3428,-2.3221,-2.3117,-2.2962,-2.2755,-2.2703,-2.234,-2.1665,-2.157,-2.1414,-2.1101,-2.0841,-2.0685,-2.0633,-2.0476,-2.0361,-2.0426,-2.0523,-2.0669,-2.0807,-2.0905,-2.101,-2.114,-2.1213,-2.1278,-2.1303,-2.1343,-2.1352,-2.1376,-2.1384,-2.1164,-2.067,-1.9845,-1.9012,-1.8019,-1.7522,-1.7037,-1.6459,-1.6002,-1.5683,-1.5348,-1.4875,-1.4416,-1.4031,-1.3656,-1.3317,-0.8715,-0.9099,-0.9099,-0.9099,-0.9099,-0.9099,-0.9099,-0.9099,-0.9099,-0.9099,-0.9099,-0.9099,-0.9099,-0.9099,-0.9099,-0.9099,-0.9103,-0.9228,-0.9463,-1.0055,-1.1245,-1.2864,-1.4201,-1.538,-1.6383,-1.7169,-1.7329,-1.7963,-1.8688,-1.9305,-1.9522,-1.9683,-2.0076,-2.0364,-2.0399,-2.0482,-2.0667,-2.0822,-2.0839,-2.0987,-2.1112,-2.117,-2.1161,-2.1219,-2.1456,-2.1848,-2.2142,-2.224,-2.1946,-2.1022,-2.0973,-2.1268,-2.1652,-2.1652,-2.1848,-2.2191,-2.224,-2.2289,-2.2376,-2.2468,-2.2668,-2.2812,-2.3074,-2.33,-2.3357,-2.3498,-2.3583,-2.3583,-2.3583,-2.3583,-2.3531,-2.3531,-2.3479,-2.3428,-2.3479,-2.3065,-2.2444,-2.2132,-2.208,-2.1977,-2.1509,-2.1362,-2.1154,-2.0814,-2.0514,-2.0786,-2.0804,-2.084,-2.0978,-2.1083,-2.1189,-2.1295,-2.1343,-2.136,-2.1376,-2.1376,-2.1376,-2.1384,-2.1384,-2.1274,-2.1,-2.0395,-2.0003,-1.9405,-1.9007,-1.8739,-1.8469,-1.8028,-1.7653,-1.7343,-1.689,-1.6403,-1.5978,-1.5567,-1.5204,-0.9,-0.9099,-0.9099,-0.9099,-0.9099,-0.9099,-0.9099,-0.9099,-0.9099,-0.9099,-0.9099,-0.9099,-0.9099,-0.9099,-0.9099,-0.9099,-0.9119,-0.93,-0.9713,-1.0729,-1.1486,-1.276,-1.3994,-1.4973,-1.6021,-1.695,-1.7217,-1.7998,-1.9098,-1.9649,-1.995,-2.0355,-2.0646,-2.0711,-2.0787,-2.0885,-2.1018,-2.1357,-2.1415,-2.1603,-2.1897,-2.1946,-2.1946,-2.1995,-2.2093,-2.224,-2.2338,-2.2387,-2.2289,-2.2093,-2.2054,-2.1995,-2.2142,-2.2191,-2.224,-2.2338,-2.2387,-2.2387,-2.2425,-2.2595,-2.2784,-2.2995,-2.3232,-2.3347,-2.3507,-2.3648,-2.3635,-2.3583,-2.3583,-2.3686,-2.3686,-2.3635,-2.3635,-2.3635,-2.3583,-2.3531,-2.3221,-2.2858,-2.2495,-2.2132,-2.1925,-2.183,-2.1838,-2.1454,-2.1224,-2.1202,-2.1119,-2.1064,-2.1132,-2.1238,-2.1311,-2.1384,-2.1384,-2.1384,-2.1384,-2.1384,-2.1384,-2.1384,-2.1384,-2.1433,-2.1213,-2.1103,-2.0725,-2.0599,-2.059,-2.0286,-1.9953,-1.9851,-1.9375,-1.9128,-1.882,-1.8454,-1.7978,-1.7537,-1.6984,-0.9099,-0.9099,-0.9099,-0.9099,-0.9099,-0.9099,-0.9099,-0.9099,-0.9099,-0.9099,-0.9099,-0.9099,-0.9099,-0.9099,-0.9099,-0.9115,-0.9236,-0.9346,-0.9894,-1.0765,-1.158,-1.2704,-1.3948,-1.5063,-1.6181,-1.7232,-1.7682,-1.8526,-1.9483,-2.0119,-2.057,-2.1067,-2.1361,-2.1575,-2.1563,-2.1505,-2.1701,-2.1897,-2.1946,-2.2142,-2.2338,-2.2387,-2.2387,-2.2387,-2.2387,-2.2387,-2.2387,-2.2387,-2.2387,-2.2387,-2.2436,-2.2387,-2.2387,-2.2387,-2.2387,-2.2387,-2.2387,-2.2387,-2.2444,-2.2671,-2.2998,-2.3363,-2.3651,-2.4048,-2.4277,-2.4409,-2.4409,-2.4409,-2.4409,-2.4358,-2.4048,-2.4048,-2.3945,-2.3635,-2.3635,-2.3583,-2.3583,-2.3324,-2.3065,-2.2755,-2.2547,-2.2506,-2.2326,-2.2074,-2.1842,-2.174,-2.1664,-2.1549,-2.1238,-2.1327,-2.1343,-2.1384,-2.1384,-2.1384,-2.1384,-2.1384,-2.1384,-2.1384,-2.1384,-2.1465,-2.1483,-2.1475,-2.1467,-2.1365,-2.1223,-2.1438,-2.1163,-2.1113,-2.1077,-2.0915,-2.0662,-2.0361,-1.998,-1.9395,-1.8881,-0.9099,-0.9099,-0.9099,-0.9099,-0.9099,-0.9099,-0.9099,-0.9099,-0.9099,-0.9099,-0.9099,-0.9099,-0.9099,-0.9099,-0.9099,-0.9199,-0.9318,-0.9497,-0.991,-1.0795,-1.1659,-1.2852,-1.4141,-1.5532,-1.6701,-1.7527,-1.8102,-1.901,-2.0004,-2.0579,-2.1027,-2.1652,-2.2093,-2.2191,-2.2338,-2.2387,-2.2289,-2.2289,-2.2289,-2.2338,-2.2387,-2.2387,-2.2387,-2.2387,-2.2387,-2.2387,-2.2436,-2.2485,-2.2583,-2.2534,-2.2583,-2.2632,-2.2583,-2.2436,-2.2485,-2.2485,-2.2583,-2.2719,-2.2972,-2.3183,-2.3514,-2.3965,-2.4379,-2.4792,-2.5079,-2.5141,-2.5141,-2.5192,-2.5141,-2.4986,-2.4677,-2.4625,-2.4358,-2.41,-2.3893,-2.3841,-2.3738,-2.3738,-2.3686,-2.3428,-2.3126,-2.3026,-2.2973,-2.2803,-2.2503,-2.2274,-2.2198,-2.2067,-2.1748,-2.1549,-2.1658,-2.1494,-2.1549,-2.1439,-2.1384,-2.1384,-2.1384,-2.1416,-2.1408,-2.1522,-2.1708,-2.1805,-2.1774,-2.1758,-2.1735,-2.1888,-2.201,-2.1895,-2.1942,-2.2317,-2.211,-2.146,-2.1229,-2.1187,-2.0609,-0.9099,-0.9099,-0.9099,-0.9099,-0.9099,-0.9099,-0.9099,-0.9099,-0.9099,-0.9099,-0.9099,-0.9099,-0.9099,-0.9146,-0.9099,-0.9232,-0.9468,-0.9654,-1.0147,-1.1073,-1.1884,-1.2984,-1.4825,-1.6169,-1.7288,-1.808,-1.8647,-1.9388,-2.0333,-2.0826,-2.1357,-2.2044,-2.2338,-2.2387,-2.2387,-2.2387,-2.2485,-2.2534,-2.2534,-2.2583,-2.2583,-2.2583,-2.2583,-2.2583,-2.2583,-2.2534,-2.2583,-2.2828,-2.3072,-2.3131,-2.3512,-2.3668,-2.3463,-2.2877,-2.273,-2.2974,-2.3072,-2.3229,-2.372,-2.4108,-2.4458,-2.4759,-2.5041,-2.5172,-2.5347,-2.5398,-2.5501,-2.545,-2.5398,-2.5295,-2.5192,-2.5192,-2.5141,-2.4986,-2.4873,-2.4719,-2.4461,-2.4306,-2.4161,-2.379,-2.3602,-2.3531,-2.3475,-2.3467,-2.3251,-2.3071,-2.2961,-2.2796,-2.2547,-2.2261,-2.2152,-2.1932,-2.1713,-2.1549,-2.1384,-2.1384,-2.1392,-2.1457,-2.1506,-2.162,-2.1774,-2.1985,-2.205,-2.2017,-2.2034,-2.2147,-2.2253,-2.2326,-2.2383,-2.2456,-2.2349,-2.2291,-2.206,-2.1772,-2.1714,-0.9099,-0.9099,-0.9099,-0.9099,-0.9099,-0.9099,-0.9099,-0.9099,-0.9099,-0.9099,-0.9099,-0.9099,-0.9284,-0.9474,-0.9522,-0.9767,-1.0082,-1.0054,-1.0681,-1.1633,-1.2084,-1.3234,-1.528,-1.6665,-1.7855,-1.8746,-1.9388,-1.9931,-2.0776,-2.1121,-2.1652,-2.2191,-2.2387,-2.2387,-2.2485,-2.2681,-2.2779,-2.2877,-2.3023,-2.317,-2.3219,-2.317,-2.3219,-2.3219,-2.3219,-2.3229,-2.3268,-2.3414,-2.3609,-2.3668,-2.3853,-2.3951,-2.3853,-2.3658,-2.3316,-2.3561,-2.3619,-2.3768,-2.4235,-2.4507,-2.482,-2.5348,-2.5584,-2.5851,-2.6016,-2.618,-2.6067,-2.6067,-2.6118,-2.6016,-2.5759,-2.5707,-2.5604,-2.5347,-2.5347,-2.5192,-2.4986,-2.4935,-2.4574,-2.418,-2.3984,-2.3961,-2.4054,-2.3986,-2.3968,-2.3854,-2.3665,-2.3492,-2.3237,-2.2964,-2.2699,-2.248,-2.2152,-2.1878,-2.1721,-2.1581,-2.1614,-2.1671,-2.1628,-2.1749,-2.1896,-2.2099,-2.2221,-2.2253,-2.2294,-2.2302,-2.235,-2.2407,-2.2448,-2.2464,-2.2407,-2.2407,-2.2464,-2.2407,-2.2234,-0.9142,-0.9284,-0.9237,-0.9284,-0.9237,-0.9237,-0.9289,-0.9237,-0.9284,-0.9379,-0.9427,-0.9474,-0.9711,-1.0009,-1.0153,-1.0436,-1.0987,-1.0686,-1.1223,-1.1884,-1.2284,-1.3384,-1.5224,-1.6765,-1.8053,-1.9141,-2.0128,-2.0817,-2.1063,-2.1366,-2.1906,-2.2436,-2.2583,-2.2632,-2.2837,-2.3229,-2.3326,-2.3522,-2.3766,-2.3951,-2.4,-2.4,-2.4,-2.4,-2.4,-2.3961,-2.3853,-2.4048,-2.4107,-2.4146,-2.4292,-2.4351,-2.4351,-2.4302,-2.4302,-2.4302,-2.4205,-2.4299,-2.4692,-2.4906,-2.5404,-2.601,-2.6167,-2.6508,-2.6694,-2.6694,-2.6796,-2.6899,-2.6847,-2.6694,-2.6334,-2.6283,-2.6067,-2.5861,-2.5707,-2.5604,-2.5501,-2.5398,-2.5192,-2.4808,-2.4516,-2.4366,-2.4423,-2.44,-2.4311,-2.4343,-2.4201,-2.4155,-2.3901,-2.3519,-2.3246,-2.2964,-2.269,-2.2307,-2.2122,-2.1906,-2.19,-2.1975,-2.1933,-2.1928,-2.2066,-2.2221,-2.2367,-2.244,-2.2407,-2.2407,-2.2456,-2.2464,-2.2464,-2.2464,-2.2464,-2.2464,-2.2464,-2.2464,-2.2407,-0.9379,-0.9806,-0.9806,-0.9806,-0.9806,-0.9806,-0.9806,-0.9806,-0.9806,-1.009,-1.0375,-1.0469,-1.0469,-1.0645,-1.0849,-1.093,-1.1074,-1.1227,-1.1583,-1.2184,-1.259,-1.3634,-1.528,-1.6417,-1.7855,-1.9141,-2.0275,-2.1022,-2.1366,-2.1554,-2.2142,-2.2828,-2.3023,-2.3277,-2.3571,-2.3815,-2.3912,-2.3912,-2.4,-2.4048,-2.4048,-2.4097,-2.4097,-2.4097,-2.4097,-2.4146,-2.4243,-2.4497,-2.4643,-2.4692,-2.5081,-2.5275,-2.5324,-2.5324,-2.5324,-2.5178,-2.5026,-2.4977,-2.5631,-2.5808,-2.6031,-2.6491,-2.6723,-2.6847,-2.6899,-2.6899,-2.6899,-2.6899,-2.6899,-2.6847,-2.6745,-2.6745,-2.6745,-2.6642,-2.6488,-2.6272,-2.6118,-2.5964,-2.5759,-2.5582,-2.5296,-2.4888,-2.4683,-2.4617,-2.4592,-2.4724,-2.4773,-2.4664,-2.4501,-2.4119,-2.3683,-2.3401,-2.3182,-2.2909,-2.2578,-2.2418,-2.2434,-2.2454,-2.2441,-2.2366,-2.2554,-2.2719,-2.2498,-2.2621,-2.2579,-2.2522,-2.2464,-2.2464,-2.2464,-2.2464,-2.2464,-2.2464,-2.2464,-2.2464,-2.2464,-1.0138,-1.0375,-1.0327,-1.0375,-1.0327,-1.0327,-1.0375,-1.0327,-1.0375,-1.0469,-1.0659,-1.0706,-1.0848,-1.1129,-1.1602,-1.1845,-1.1847,-1.1788,-1.2034,-1.2434,-1.289,-1.3734,-1.5224,-1.6417,-1.7707,-1.9092,-2.0226,-2.1063,-2.1505,-2.1995,-2.2485,-2.3072,-2.3219,-2.3414,-2.4107,-2.4292,-2.4341,-2.4497,-2.4643,-2.4838,-2.4838,-2.4838,-2.4838,-2.4838,-2.4838,-2.4789,-2.4886,-2.4984,-2.5129,-2.5178,-2.5421,-2.5518,-2.5518,-2.5518,-2.5518,-2.5469,-2.5275,-2.5499,-2.6043,-2.6168,-2.6458,-2.6759,-2.6899,-2.6899,-2.6899,-2.6899,-2.6899,-2.6899,-2.6899,-2.6899,-2.6899,-2.6899,-2.6899,-2.6899,-2.6899,-2.6796,-2.658,-2.658,-2.6417,-2.6224,-2.6077,-2.5663,-2.5334,-2.5376,-2.5208,-2.4915,-2.4936,-2.4828,-2.4773,-2.461,-2.4174,-2.3737,-2.3619,-2.3455,-2.3198,-2.2947,-2.3146,-2.3212,-2.3337,-2.3317,-2.3396,-2.3392,-2.3139,-2.2867,-2.2752,-2.2637,-2.2579,-2.2464,-2.2464,-2.2464,-2.2464,-2.2464,-2.2464,-2.2464,-2.2464,-1.1085,-1.1085,-1.0943,-1.0895,-1.0895,-1.0895,-1.0895,-1.0895,-1.0895,-1.0943,-1.1037,-1.1132,-1.1321,-1.1657,-1.2171,-1.239,-1.2455,-1.2384,-1.2568,-1.279,-1.309,-1.3734,-1.4925,-1.6119,-1.731,-1.9042,-2.0038,-2.0866,-2.1603,-2.225,-2.2886,-2.3424,-2.3658,-2.3951,-2.4341,-2.474,-2.4935,-2.4935,-2.5227,-2.5372,-2.5421,-2.5421,-2.5469,-2.5469,-2.5518,-2.5518,-2.5518,-2.5469,-2.5469,-2.5469,-2.5469,-2.5518,-2.5518,-2.5518,-2.5518,-2.5518,-2.5421,-2.5646,-2.6028,-2.6222,-2.6458,-2.6716,-2.6899,-2.6899,-2.6899,-2.6899,-2.6899,-2.6899,-2.6899,-2.6899,-2.6899,-2.6899,-2.6899,-2.6899,-2.6899,-2.6899,-2.6899,-2.6796,-2.6766,-2.6677,-2.6556,-2.6608,-2.636,-2.6236,-2.591,-2.5298,-2.51,-2.5045,-2.4991,-2.4936,-2.4664,-2.4174,-2.4174,-2.4092,-2.4,-2.3833,-2.3957,-2.3967,-2.4106,-2.4077,-2.4037,-2.3926,-2.3722,-2.3386,-2.3155,-2.3213,-2.3377,-2.2925,-2.2464,-2.2464,-2.2464,-2.2464,-2.2464,-2.2464,-2.2464,-1.2125,-1.2078,-1.1558,-1.1364,-1.1364,-1.1369,-1.1369,-1.1364,-1.1369,-1.1605,-1.1936,-1.203,-1.1983,-1.2185,-1.231,-1.2536,-1.2499,-1.2731,-1.2813,-1.289,-1.304,-1.3634,-1.4532,-1.5423,-1.6516,-1.8301,-1.9446,-2.0472,-2.1554,-2.2446,-2.3229,-2.3902,-2.4146,-2.4779,-2.5129,-2.5227,-2.5324,-2.5324,-2.5469,-2.5518,-2.5518,-2.5518,-2.5518,-2.5518,-2.5518,-2.5518,-2.5518,-2.5518,-2.5518,-2.5518,-2.5518,-2.5518,-2.5518,-2.5518,-2.5518,-2.5518,-2.5518,-2.5766,-2.605,-2.6211,-2.6447,-2.6727,-2.6899,-2.6899,-2.6899,-2.6899,-2.6899,-2.6899,-2.6899,-2.6899,-2.6899,-2.6899,-2.6899,-2.6899,-2.6899,-2.6899,-2.6899,-2.6899,-2.688,-2.6944,-2.7003,-2.7028,-2.7165,-2.7031,-2.6515,-2.5915,-2.548,-2.5372,-2.51,-2.5045,-2.4936,-2.4719,-2.4719,-2.4803,-2.4945,-2.4873,-2.4631,-2.4598,-2.4741,-2.4621,-2.4499,-2.4354,-2.4239,-2.4124,-2.3952,-2.4058,-2.4001,-2.3492,-2.2983,-2.2637,-2.2464,-2.2464,-2.2464,-2.2464,-2.2464,-1.2219,-1.2172,-1.1983,-1.1883,-1.1889,-1.1889,-1.1889,-1.1883,-1.1889,-1.1983,-1.2219,-1.2219,-1.2219,-1.2237,-1.2411,-1.2536,-1.2569,-1.2781,-1.2863,-1.304,-1.3284,-1.3634,-1.4233,-1.4931,-1.5977,-1.7169,-1.8408,-1.9594,-2.0629,-2.1995,-2.318,-2.3863,-2.4438,-2.4973,-2.5324,-2.5518,-2.5518,-2.5518,-2.5518,-2.5518,-2.5518,-2.5518,-2.5518,-2.5518,-2.5518,-2.5518,-2.5518,-2.5518,-2.5518,-2.5518,-2.5518,-2.5518,-2.5518,-2.5518,-2.5518,-2.5518,-2.5518,-2.5776,-2.6082,-2.6222,-2.6404,-2.677,-2.6899,-2.6899,-2.6899,-2.6899,-2.6899,-2.6899,-2.6899,-2.6899,-2.6899,-2.6899,-2.6899,-2.6899,-2.6899,-2.6899,-2.6899,-2.6899,-2.6952,-2.7017,-2.7275,-2.7512,-2.7632,-2.7749,-2.7156,-2.6522,-2.6088,-2.5707,-2.549,-2.5272,-2.5154,-2.51,-2.5045,-2.5069,-2.5213,-2.517,-2.5189,-2.5281,-2.5323,-2.5207,-2.509,-2.4918,-2.4861,-2.4746,-2.4632,-2.4517,-2.4288,-2.3952,-2.355,-2.3205,-2.281,-2.2464,-2.2464,-2.2637,-2.2637,-1.2219,-1.2219,-1.2219,-1.2219,-1.2219,-1.2219,-1.2219,-1.2219,-1.2172,-1.2219,-1.2219,-1.2219,-1.2219,-1.2237,-1.2422,-1.2531,-1.2602,-1.2765,-1.2857,-1.304,-1.319,-1.354,-1.3939,-1.4488,-1.523,-1.6175,-1.7268,-1.8548,-1.9832,-2.1406,-2.2485,-2.3414,-2.4292,-2.4935,-2.5372,-2.5518,-2.5518,-2.5518,-2.5518,-2.5518,-2.5518,-2.5518,-2.5518,-2.5518,-2.5518,-2.5518,-2.5518,-2.5518,-2.5518,-2.5518,-2.5518,-2.5518,-2.5518,-2.5518,-2.5518,-2.5518,-2.5572,-2.5695,-2.606,-2.6372,-2.6533,-2.6845,-2.6899,-2.6899,-2.6899,-2.6899,-2.6899,-2.6899,-2.6899,-2.6899,-2.6899,-2.6899,-2.6899,-2.6899,-2.6899,-2.6899,-2.6899,-2.6899,-2.6974,-2.706,-2.7391,-2.7735,-2.7908,-2.7963,-2.7651,-2.7063,-2.6522,-2.6196,-2.6088,-2.5816,-2.5599,-2.5436,-2.5327,-2.5281,-2.5315,-2.5365,-2.5423,-2.5667,-2.5778,-2.5863,-2.5729,-2.5548,-2.5434,-2.5434,-2.5214,-2.4918,-2.4746,-2.4632,-2.4239,-2.378,-2.3435,-2.3089,-2.3262,-2.3377,-2.3098,-1.2219,-1.2219,-1.2219,-1.2219,-1.2219,-1.2219,-1.2219,-1.2219,-1.2219,-1.2219,-1.2219,-1.2219,-1.2219,-1.2274,-1.2428,-1.2526,-1.2591,-1.2776,-1.289,-1.294,-1.299,-1.329,-1.354,-1.3989,-1.4688,-1.5877,-1.6821,-1.7806,-1.9141,-2.0571,-2.1652,-2.2828,-2.3912,-2.4984,-2.5469,-2.5518,-2.5518,-2.5518,-2.5518,-2.5518,-2.5518,-2.5518,-2.5518,-2.5518,-2.5518,-2.5518,-2.5518,-2.5518,-2.5518,-2.5518,-2.5518,-2.5518,-2.5518,-2.5518,-2.5518,-2.5518,-2.5518,-2.5755,-2.6136,-2.6598,-2.6823,-2.6877,-2.6899,-2.6899,-2.6899,-2.6899,-2.6899,-2.6899,-2.6899,-2.6899,-2.6899,-2.6899,-2.6899,-2.6899,-2.6899,-2.6899,-2.6899,-2.6985,-2.706,-2.7219,-2.7478,-2.7799,-2.7984,-2.8135,-2.7962,-2.755,-2.6955,-2.6684,-2.6576,-2.6305,-2.6033,-2.5925,-2.5771,-2.5887,-2.5851,-2.5643,-2.5675,-2.594,-2.611,-2.6063,-2.6072,-2.5901,-2.5901,-2.6015,-2.5844,-2.55,-2.5491,-2.5548,-2.5099,-2.4641,-2.423,-2.4001,-2.4173,-2.4067,-2.3722,-1.2219,-1.2219,-1.2219,-1.2219,-1.2219,-1.2219,-1.2219,-1.2219,-1.2219,-1.2219,-1.2219,-1.2219,-1.2219,-1.2248,-1.2401,-1.2482,-1.258,-1.2776,-1.289,-1.289,-1.289,-1.299,-1.324,-1.359,-1.4133,-1.5031,-1.592,-1.6921,-1.821,-1.9536,-2.0768,-2.1946,-2.3561,-2.4886,-2.5372,-2.5518,-2.5518,-2.5518,-2.5518,-2.5518,-2.5518,-2.5518,-2.5518,-2.5518,-2.5518,-2.5518,-2.5518,-2.5518,-2.5518,-2.5518,-2.5518,-2.5518,-2.5518,-2.5518,-2.5518,-2.5518,-2.5529,-2.5744,-2.6157,-2.6587,-2.6866,-2.6899,-2.6899,-2.6899,-2.6899,-2.6899,-2.6899,-2.6899,-2.6899,-2.6899,-2.6899,-2.6899,-2.6899,-2.6899,-2.6899,-2.6899,-2.6931,-2.7081,-2.7251,-2.7381,-2.7585,-2.7908,-2.8177,-2.8242,-2.8166,-2.8037,-2.7496,-2.7324,-2.7226,-2.6793,-2.6413,-2.6413,-2.6355,-2.6529,-2.6508,-2.6267,-2.6313,-2.6632,-2.6406,-2.6072,-2.6072,-2.6301,-2.6187,-2.6187,-2.6129,-2.6072,-2.5958,-2.5834,-2.5777,-2.5491,-2.4976,-2.4574,-2.4517,-2.4402,-2.4115,-1.2219,-1.2219,-1.2219,-1.2219,-1.2219,-1.2219,-1.2219,-1.2219,-1.2219,-1.2219,-1.2219,-1.2219,-1.2219,-1.2279,-1.2362,-1.2466,-1.2553,-1.2727,-1.2873,-1.2879,-1.289,-1.294,-1.304,-1.329,-1.3684,-1.4383,-1.513,-1.6076,-1.7176,-1.8152,-1.9783,-2.1603,-2.3121,-2.4194,-2.4876,-2.5324,-2.5518,-2.5518,-2.5518,-2.5518,-2.5518,-2.5518,-2.5518,-2.5518,-2.5518,-2.5518,-2.5518,-2.5518,-2.5518,-2.5518,-2.5518,-2.5518,-2.5518,-2.5518,-2.5518,-2.5518,-2.5733,-2.5867,-2.6211,-2.663,-2.6856,-2.6899,-2.6899,-2.6899,-2.6899,-2.6899,-2.6899,-2.6899,-2.6899,-2.6899,-2.6899,-2.6899,-2.6899,-2.6899,-2.6899,-2.6899,-2.6963,-2.7165,-2.737,-2.751,-2.7736,-2.8059,-2.836,-2.8382,-2.836,-2.8199,-2.8037,-2.7929,-2.7756,-2.7388,-2.7019,-2.6965,-2.6949,-2.7084,-2.7131,-2.6978,-2.7048,-2.7279,-2.6986,-2.6586,-2.6815,-2.71,-2.6758,-2.6472,-2.6472,-2.6472,-2.6187,-2.6015,-2.5958,-2.5844,-2.5548,-2.5205,-2.4976,-2.4861,-2.4746,-1.2219,-1.2219,-1.2219,-1.2219,-1.2219,-1.2219,-1.2219,-1.2219,-1.2219,-1.2219,-1.2219,-1.2219,-1.2219,-1.2241,-1.2356,-1.2428,-1.2493,-1.2667,-1.2781,-1.2863,-1.289,-1.289,-1.289,-1.299,-1.339,-1.3784,-1.4383,-1.518,-1.6133,-1.7417,-1.9248,-2.0964,-2.2093,-2.3219,-2.4146,-2.4984,-2.5324,-2.5469,-2.5518,-2.5518,-2.5518,-2.5518,-2.5518,-2.5518,-2.5518,-2.5518,-2.5518,-2.5518,-2.5518,-2.5518,-2.5518,-2.5518,-2.5518,-2.5518,-2.5518,-2.5626,-2.5889,-2.6099,-2.6282,-2.6619,-2.6834,-2.6888,-2.6899,-2.6899,-2.6899,-2.6899,-2.6899,-2.6899,-2.6899,-2.6899,-2.6899,-2.6899,-2.6899,-2.6899,-2.6899,-2.6931,-2.6985,-2.7208,-2.7434,-2.765,-2.7897,-2.8145,-2.836,-2.8414,-2.8414,-2.836,-2.8253,-2.8253,-2.8145,-2.8145,-2.7831,-2.7582,-2.7609,-2.7684,-2.768,-2.7652,-2.7707,-2.7914,-2.7774,-2.7499,-2.7717,-2.7717,-2.7385,-2.71,-2.6986,-2.6815,-2.6529,-2.6244,-2.6072,-2.5958,-2.5777,-2.572,-2.55,-2.5605,-2.5548,-1.2219,-1.2219,-1.2219,-1.2219,-1.2219,-1.2219,-1.2219,-1.2219,-1.2219,-1.2219,-1.2219,-1.2219,-1.2219,-1.223,-1.235,-1.2417,-1.2536,-1.2656,-1.2776,-1.2846,-1.289,-1.289,-1.289,-1.294,-1.324,-1.359,-1.3989,-1.4482,-1.5628,-1.6871,-1.821,-1.9783,-2.1063,-2.2142,-2.317,-2.4292,-2.4886,-2.5372,-2.5421,-2.5518,-2.5518,-2.5518,-2.5518,-2.5518,-2.5518,-2.5518,-2.5518,-2.5518,-2.5518,-2.5518,-2.5518,-2.5518,-2.5518,-2.5518,-2.5518,-2.555,-2.5809,-2.6035,-2.6239,-2.6519,-2.6767,-2.6866,-2.6899,-2.6899,-2.6899,-2.6899,-2.6899,-2.6899,-2.6899,-2.6899,-2.6899,-2.6899,-2.6899,-2.6899,-2.6931,-2.7017,-2.7155,-2.7391,-2.7618,-2.7865,-2.8102,-2.8199,-2.8404,-2.8414,-2.8414,-2.8414,-2.8414,-2.8414,-2.8414,-2.8414,-2.8371,-2.8058,-2.8172,-2.8262,-2.8396,-2.8429,-2.848,-2.8518,-2.8379,-2.8239,-2.8172,-2.8115,-2.7898,-2.7727,-2.7442,-2.7157,-2.6872,-2.6644,-2.6529,-2.6187,-2.6072,-2.6072,-2.6129,-2.6129,-2.6129,-1.2219,-1.2219,-1.2219,-1.2219,-1.2219,-1.2219,-1.2219,-1.2219,-1.2219,-1.2219,-1.2219,-1.2219,-1.2219,-1.2225,-1.2301,-1.2368,-1.2488,-1.2602,-1.2716,-1.2863,-1.289,-1.289,-1.289,-1.294,-1.309,-1.334,-1.364,-1.4039,-1.5031,-1.6225,-1.7566,-1.835,-1.9873,-2.0915,-2.1897,-2.3023,-2.4107,-2.474,-2.5227,-2.5421,-2.5518,-2.5518,-2.5518,-2.5518,-2.5518,-2.5518,-2.5518,-2.5518,-2.5518,-2.5518,-2.5518,-2.5518,-2.5518,-2.5518,-2.5518,-2.5561,-2.5755,-2.6002,-2.6218,-2.6455,-2.6702,-2.6823,-2.6899,-2.6899,-2.6899,-2.6899,-2.6899,-2.6899,-2.6899,-2.6899,-2.6899,-2.6899,-2.6899,-2.6899,-2.6995,-2.7155,-2.737,-2.7607,-2.7854,-2.8091,-2.8242,-2.8371,-2.8414,-2.8414,-2.8414,-2.8414,-2.8414,-2.8414,-2.8414,-2.8414,-2.8414,-2.8263,-2.8542,-2.8832,-2.8903,-2.8973,-2.9106,-2.9105,-2.9116,-2.891,-2.8683,-2.8683,-2.8683,-2.8353,-2.7841,-2.7613,-2.7385,-2.7214,-2.7043,-2.6758,-2.6701,-2.6872,-2.6758,-2.6358,-2.6301,-1.2219,-1.2219,-1.2219,-1.2219,-1.2219,-1.2219,-1.2219,-1.2219,-1.2219,-1.2219,-1.2219,-1.2219,-1.2219,-1.2225,-1.2252,-1.2367,-1.2455,-1.2547,-1.2667,-1.2873,-1.2884,-1.289,-1.289,-1.294,-1.299,-1.309,-1.334,-1.369,-1.4139,-1.523,-1.6325,-1.6864,-1.8251,-1.9487,-2.0522,-2.175,-2.2779,-2.3619,-2.4594,-2.5227,-2.5469,-2.5518,-2.5518,-2.5518,-2.5518,-2.5518,-2.5518,-2.5518,-2.5518,-2.5518,-2.5518,-2.5518,-2.5518,-2.5518,-2.5518,-2.555,-2.5701,-2.5949,-2.6175,-2.6401,-2.6659,-2.6791,-2.6899,-2.6899,-2.6899,-2.6899,-2.6899,-2.6899,-2.6899,-2.6899,-2.6899,-2.6909,-2.692,-2.6995,-2.7165,-2.7338,-2.7574,-2.7822,-2.807,-2.8253,-2.835,-2.8414,-2.8414,-2.8414,-2.8414,-2.8414,-2.8414,-2.8414,-2.8414,-2.8414,-2.8414,-2.8436,-2.877,-2.8996,-2.9146,-2.9239,-2.9575,-2.9647,-2.959,-2.959,-2.9307,-2.9364,-2.9544,-2.9034,-2.8466,-2.8239,-2.8011,-2.7784,-2.7613,-2.7613,-2.7613,-2.7841,-2.7556,-2.6986,-2.6586,-1.2219,-1.2219,-1.2219,-1.2219,-1.2219,-1.2219,-1.2219,-1.2219,-1.2219,-1.2219,-1.2219,-1.2219,-1.2219,-1.2219,-1.2219,-1.2318,-1.239,-1.2509,-1.2623,-1.2759,-1.2841,-1.2884,-1.289,-1.289,-1.289,-1.294,-1.309,-1.334,-1.379,-1.4582,-1.5379,-1.6225,-1.7261,-1.8152,-1.9092,-2.0325,-2.1505,-2.2289,-2.3512,-2.4643,-2.5275,-2.5469,-2.5518,-2.5518,-2.5518,-2.5518,-2.5518,-2.5518,-2.5518,-2.5518,-2.5518,-2.5518,-2.5518,-2.5518,-2.5518,-2.5529,-2.5593,-2.5852,-2.6132,-2.6286,-2.6501,-2.677,-2.6899,-2.6899,-2.6899,-2.6899,-2.6899,-2.6899,-2.6899,-2.6899,-2.6909,-2.6931,-2.6974,-2.7144,-2.7305,-2.7553,-2.779,-2.8027,-2.8274,-2.8382,-2.8414,-2.8414,-2.8414,-2.8414,-2.8414,-2.8414,-2.8414,-2.8414,-2.8414,-2.8414,-2.8414,-2.8501,-2.8846,-2.905,-2.9179,-2.9362,-2.962,-2.9749,-2.9704,-2.976,-2.976,-2.976,-2.9647,-2.9544,-2.9147,-2.8864,-2.8523,-2.8182,-2.8125,-2.8239,-2.8296,-2.8409,-2.8296,-2.7784,-2.7328,-1.2219,-1.2219,-1.2219,-1.2219,-1.2219,-1.2219,-1.2219,-1.2219,-1.2219,-1.2219,-1.2219,-1.2219,-1.2219,-1.2219,-1.2219,-1.2279,-1.2405,-1.2482,-1.2602,-1.2716,-1.2808,-1.2873,-1.289,-1.289,-1.289,-1.289,-1.289,-1.314,-1.344,-1.3884,-1.4582,-1.523,-1.5927,-1.6871,-1.7714,-1.8944,-2.0177,-2.0906,-2.2289,-2.3512,-2.474,-2.5178,-2.5469,-2.5518,-2.5518,-2.5518,-2.5518,-2.5518,-2.5518,-2.5518,-2.5518,-2.5518,-2.5518,-2.5518,-2.5518,-2.5518,-2.5583,-2.5684,-2.6017,-2.6243,-2.6415,-2.6727,-2.6899,-2.6899,-2.6899,-2.6899,-2.6899,-2.6899,-2.6899,-2.6899,-2.6952,-2.6985,-2.7133,-2.7251,-2.7553,-2.7854,-2.8027,-2.822,-2.8393,-2.8404,-2.8414,-2.8414,-2.8414,-2.8414,-2.8414,-2.8414,-2.8414,-2.8414,-2.8414,-2.8414,-2.8414,-2.8479,-2.8792,-2.8985,-2.9114,-2.9319,-2.9577,-2.9674,-2.976,-2.976,-2.976,-2.976,-2.9704,-2.9601,-2.9544,-2.9431,-2.9091,-2.875,-2.8864,-2.9034,-2.9024,-2.891,-2.875,-2.8637,-2.8353,-1.2408,-1.2408,-1.2408,-1.2361,-1.2314,-1.2314,-1.2267,-1.2219,-1.2219,-1.2219,-1.2219,-1.2219,-1.2219,-1.2219,-1.2225,-1.2296,-1.2378,-1.2428,-1.2558,-1.2678,-1.2792,-1.2852,-1.2879,-1.289,-1.289,-1.289,-1.289,-1.289,-1.304,-1.344,-1.374,-1.3989,-1.4838,-1.5884,-1.6424,-1.7367,-1.8598,-1.9684,-2.0906,-2.2191,-2.3463,-2.4779,-2.5227,-2.5469,-2.5518,-2.5518,-2.5518,-2.5518,-2.5518,-2.5518,-2.5518,-2.5518,-2.5518,-2.5518,-2.5518,-2.5518,-2.5518,-2.5787,-2.605,-2.6189,-2.648,-2.6748,-2.6845,-2.6899,-2.6899,-2.6899,-2.6899,-2.6899,-2.6899,-2.6942,-2.7006,-2.7144,-2.7241,-2.7467,-2.7811,-2.8091,-2.8231,-2.8414,-2.8414,-2.8414,-2.8414,-2.8414,-2.8414,-2.8414,-2.8414,-2.8414,-2.8414,-2.8414,-2.8414,-2.8414,-2.8414,-2.8447,-2.8598,-2.878,-2.9028,-2.9276,-2.9534,-2.9685,-2.976,-2.976,-2.976,-2.976,-2.976,-2.976,-2.9704,-2.9658,-2.9658,-2.9477,-2.9601,-2.9647,-2.9534,-2.9307,-2.9364,-2.9261,-2.9261,-1.3405,-1.3399,-1.3399,-1.3163,-1.2833,-1.2786,-1.255,-1.2219,-1.2219,-1.2219,-1.2267,-1.2219,-1.2219,-1.2219,-1.2219,-1.2252,-1.229,-1.2352,-1.246,-1.252,-1.2705,-1.2797,-1.2857,-1.2879,-1.2884,-1.289,-1.289,-1.289,-1.289,-1.304,-1.329,-1.374,-1.379,-1.4688,-1.5529,-1.6424,-1.7268,-1.84,-1.9684,-2.1013,-2.2338,-2.3658,-2.4984,-2.5324,-2.5518,-2.5518,-2.5518,-2.5518,-2.5518,-2.5518,-2.5518,-2.5518,-2.5518,-2.5518,-2.5518,-2.5518,-2.5518,-2.5787,-2.6007,-2.6157,-2.6447,-2.6823,-2.6899,-2.6899,-2.6899,-2.6899,-2.6899,-2.6899,-2.6931,-2.7017,-2.7144,-2.7241,-2.737,-2.7757,-2.8124,-2.822,-2.8393,-2.8414,-2.8414,-2.8414,-2.8414,-2.8414,-2.8414,-2.8414,-2.8414,-2.8414,-2.8414,-2.8414,-2.8414,-2.8414,-2.8414,-2.8447,-2.849,-2.8694,-2.8996,-2.9222,-2.9448,-2.9631,-2.976,-2.976,-2.976,-2.976,-2.976,-2.976,-2.976,-2.976,-2.976,-2.976,-2.976,-2.9704,-2.976,-2.9704,-2.976,-2.976,-2.9601]},{"header":{"parameterUnit":"m.s-1","parameterCategory":1,"la1":31.0,"la2":29.5877,"lo1":-88.7671,"lo2":-86.6584,"dy":0.0162,"dx":0.0185,"nx":115,"ny":88,"refTime":"2023-04-09T12:00:00:Z","depth":0,"parameterNumber":3,"parameterNumberName":"V-component_of_WINDS"},"data":[0.0,0.0,0.0,0.0,0.0,0.0,0.0,0.0,0.0,0.0,0.0,0.0,0.0,0.0,0.0,0.0,0.0,0.0,0.0,0.0,0.0,0.0,0.0,0.0,0.0,0.0,0.0,0.0,0.0,0.0,0.0,0.0,0.0,0.0,0.0,0.0,0.0,0.0,0.0,0.0,0.0,0.0,0.0,0.0,0.0,0.0,0.0,0.0,0.0,0.0,0.0,0.0,0.0,0.0,0.0,0.0,0.0,0.0,0.0,0.0,0.0,0.0,0.0,0.0,0.0,0.0,0.0,0.0,0.0,0.0,0.0,0.0,0.0,0.0,0.0,0.0,0.0,0.0,0.0,0.0,0.0,0.0,0.0,0.0,0.0,0.0,0.0,0.0,0.0,0.0,0.0,0.0,0.0,0.0,0.0,0.0,0.0,0.0,0.0,0.0,0.0,0.0,0.0,0.0,0.0,0.0,0.0,0.0,0.0,0.0,0.0,0.0,0.0,0.0,0.0,0.0,0.0,0.0,0.0,0.0,0.0,0.0,0.0,0.0,0.0,0.0,0.0,0.0,0.0,0.0,0.0,0.0,0.0,0.0,0.0,0.0,0.0,0.0,0.0,0.0,0.0,0.0,0.0,0.0,0.0,0.0,0.0,0.0,0.0,0.0,0.0,0.0,0.0,0.0,0.0,0.0,0.0,0.0,0.0,0.0,0.0,0.0,0.0,0.0,0.0,0.0,0.0,0.0,0.0,0.0,0.0,0.0,0.0,0.0,0.0,0.0,0.0,0.0,0.0,0.0,0.0,0.0,0.0,0.0,0.0,0.0,0.0,0.0,0.0,0.0,0.0,0.0,0.0,0.0,0.0,0.0,0.0,0.0,0.0,0.0,0.0,0.0,0.0,0.0,0.0,0.0,0.0,0.0,0.0,0.0,0.0,0.0,0.0,0.0,0.0,0.0,0.0,0.0,0.0,0.0,0.0,0.0,0.0,0.0,0.0,0.0,0.0,0.0,0.0,0.0,0.0,0.0,0.0,0.0,0.0,0.0,0.0,0.0,0.0,0.0,0.0,0.0,0.0,0.0,0.0,0.0,0.0,0.0,0.0,0.0,0.0,0.0,0.0,0.0,0.0,0.0,0.0,0.0,0.0,0.0,0.0,0.0,0.0,0.0,0.0,0.0,0.0,0.0,0.0,0.0,0.0,0.0,0.0,0.0,0.0,0.0,0.0,0.0,0.0,0.0,0.0,0.0,0.0,0.0,0.0,0.0,0.0,0.0,0.0,0.0,0.0,0.0,0.0,0.0,0.0,0.0,0.0,0.0,0.0,0.0,0.0,0.0,0.0,0.0,0.0,0.0,0.0,0.0,0.0,0.0,0.0,0.0,0.0,0.0,0.0,0.0,0.0,0.0,0.0,0.0,0.0,0.0,0.0,0.0,0.0,0.0,0.0,0.0,0.0,0.0,0.0,0.0,0.0,0.0,0.0,0.0,0.0,0.0,0.0,0.0,0.0,0.0,0.0,0.0,0.0,0.0,0.0,0.0,0.0,0.0,0.0,0.0,0.0,0.0,0.0,0.0,0.0,0.0,0.0,0.0,0.0,0.0,0.0,0.0,0.0,0.0,0.0,0.0,0.0,0.0,0.0,0.0,0.0,0.0,0.0,0.0,0.0,0.0,0.0,0.0,0.0,0.0,0.0,0.0,0.0,0.0,0.0,0.0,0.0,0.0,0.0,0.0,0.0,0.0,0.0,0.0,0.0,0.0,0.0,0.0,0.0,0.0,0.0,0.0,0.0,0.0,0.0,0.0,0.0,0.0,0.0,0.0,0.0,0.0,0.0,0.0,0.0,0.0,0.0,0.0,0.0,0.0,0.0,0.0,0.0,0.0,0.0,0.0,0.0,0.0,0.0,0.0,0.0,0.0,0.0,0.0,0.0,0.0,0.0,0.0,0.0,0.0,0.0,0.0,0.0,0.0,0.0,0.0,0.0,0.0,0.0,0.0,0.0,0.0,0.0,0.0,0.0,0.0,0.0,0.0,0.0,0.0,0.0,0.0,0.0,0.0,0.0,0.0,0.0,0.0,0.0,0.0,0.0,0.0,0.0,0.0,0.0,0.0,0.0,0.0,0.0,0.0,0.0,0.0,0.0,0.0,0.0,0.0,0.0,0.0,0.0,0.0,0.0,0.0,0.0,0.0,0.0,0.0,0.0,0.0,0.0,0.0,0.0,0.0,0.0,0.0,0.0,0.0,0.0,0.0,0.0,0.0,0.0,0.0,0.0,0.0,0.0,0.0,0.0,0.0,0.0,0.0,0.0,0.0,0.0,0.0,0.0,0.0,0.0,0.0,0.0,0.0,0.0,0.0,0.0,0.0,0.0,0.0,0.0,0.0,0.0,0.0,0.0,0.0,0.0,0.0,0.0,0.0,0.0,0.0,0.0,0.0,0.0,0.0,0.0,0.0,0.0,0.0,0.0,0.0,0.0,0.0,0.0,0.0,0.0,0.0,0.0,0.0,0.0,0.0,0.0,0.0,0.0,0.0,0.0,0.0,0.0,0.0,0.0,0.0,0.0,0.0,0.0,0.0,0.0,0.0,0.0,0.0,0.0,0.0,0.0,0.0,0.0,0.0,0.0,0.0,0.0,0.0,0.0,0.0,0.0,0.0,0.0,0.0,0.0,0.0,0.0,0.0,0.0,0.0,0.0,0.0,0.0,0.0,0.0,0.0,0.0,0.0,0.0,0.0,0.0,0.0,0.0,0.0,0.0,0.0,0.0,0.0,0.0,0.0,0.0,0.0,0.0,0.0,0.0,0.0,0.0,0.0,0.0,0.0,0.0,0.0,0.0,0.0,0.0,0.0,0.0,0.0,0.0,0.0,0.0,0.0,0.0,0.0,0.0,0.0,0.0,0.0,0.0,0.0,0.0,0.0,0.0,0.0,0.0,0.0,0.0,0.0,0.0,0.0,0.0,0.0,0.0,0.0,0.0,0.0,0.0,0.0,0.0,0.0,0.0,0.0,0.0,0.0,0.0,0.0,0.0,0.0,0.0,0.0,0.0,0.0,0.0,0.0,0.0,0.0,0.0,0.0,0.0,0.0,0.0,0.0,0.0,0.0,0.0,0.0,0.0,0.0,0.0,0.0,0.0,0.0,0.0,0.0,0.0,0.0,0.0,0.0,0.0,0.0,0.0,0.0,0.0,0.0,0.0,0.0,0.0,0.0,0.0,0.0,0.0,0.0,0.0,0.0,0.0,0.0,0.0,0.0,0.0,0.0,0.0,0.0,0.0,0.0,0.0,0.0,0.0,0.0,0.0,0.0,0.0,0.0,0.0,0.0,0.0,0.0,0.0,0.0,0.0,0.0,0.0,0.0,0.0,0.0,0.0,0.0,0.0,0.0,0.0,0.0,0.0,0.0,0.0,0.0,0.0,0.0,0.0,0.0,0.0,0.0,0.0,0.0,0.0,0.0,0.0,0.0,0.0,0.0,0.0,0.0,0.0,0.0,0.0,0.0,0.0,0.0,0.0,0.0,0.0,0.0,0.0,0.0,0.0,0.0,0.0,0.0,0.0,0.0,0.0,0.0,0.0,0.0,0.0,0.0,0.0,0.0,0.0,0.0,0.0,0.0,0.0,0.0,0.0,0.0,0.0,0.0,0.0,0.0,0.0,0.0,0.0,0.0,0.0,0.0,0.0,0.0,0.0,0.0,0.0,0.0,0.0,0.0,0.0,0.0,0.0,0.0,0.0,0.0,0.0,0.0,0.0,0.0,0.0,0.0,0.0,0.0,0.0,0.0,0.0,0.0,0.0,0.0,0.0,0.0,0.0,0.0,0.0,0.0,0.0,0.0,0.0,0.0,0.0,0.0,0.0,0.0,0.0,0.0,0.0,0.0,0.0,0.0,0.0,0.0,0.0,0.0,0.0,0.0,0.0,0.0,0.0,0.0,0.0,0.0,0.0,0.0,0.0,0.0,0.0,0.0,0.0,0.0,0.0,0.0,0.0,0.0,0.0,0.0,0.0,0.0,0.0,0.0,0.0,0.0,0.0,0.0,0.0,0.0,0.0,0.0,0.0,0.0,0.0,0.0,0.0,0.0,0.0,0.0,0.0,0.0,0.0,0.0,0.0,0.0,0.0,0.0,0.0,0.0,0.0,0.0,0.0,0.0,0.0,0.0,0.0,0.0,0.0,0.0,0.0,0.0,0.0,0.0,0.0,0.0,0.0,0.0,0.0,0.0,0.0,0.0,0.0,0.0,0.0,0.0,0.0,0.0,5.0114,0.0,0.0,0.0,0.0,0.0,0.0,0.0,0.0,0.0,0.0,0.0,0.0,0.0,0.0,0.0,0.0,0.0,0.0,0.0,0.0,0.0,0.0,0.0,0.0,0.0,0.0,0.0,0.0,0.0,0.0,0.0,0.0,0.0,0.0,0.0,0.0,0.0,0.0,0.0,0.0,0.0,0.0,0.0,0.0,0.0,0.0,0.0,0.0,0.0,0.0,0.0,0.0,0.0,0.0,0.0,0.0,0.0,0.0,0.0,0.0,0.0,0.0,0.0,0.0,0.0,0.0,0.0,0.0,0.0,0.0,0.0,0.0,0.0,0.0,0.0,0.0,0.0,0.0,0.0,0.0,0.0,0.0,0.0,0.0,0.0,0.0,0.0,0.0,0.0,0.0,0.0,0.0,0.0,0.0,0.0,0.0,0.0,0.0,0.0,0.0,0.0,0.0,0.0,0.0,0.0,0.0,0.0,0.0,0.0,0.0,4.9893,4.9893,4.9926,4.9992,5.0114,0.0,0.0,0.0,0.0,0.0,0.0,0.0,0.0,0.0,0.0,0.0,0.0,0.0,0.0,0.0,0.0,0.0,0.0,0.0,0.0,0.0,0.0,0.0,0.0,0.0,0.0,0.0,0.0,0.0,0.0,0.0,0.0,0.0,0.0,0.0,0.0,0.0,0.0,0.0,0.0,0.0,0.0,0.0,0.0,0.0,0.0,0.0,0.0,0.0,0.0,0.0,0.0,0.0,0.0,0.0,0.0,0.0,0.0,0.0,0.0,0.0,0.0,0.0,0.0,0.0,0.0,0.0,0.0,0.0,0.0,0.0,0.0,0.0,0.0,0.0,0.0,0.0,0.0,0.0,0.0,0.0,0.0,0.0,0.0,0.0,0.0,0.0,0.0,0.0,0.0,0.0,0.0,0.0,0.0,0.0,0.0,0.0,0.0,0.0,0.0,0.0,0.0,0.0,0.0,0.0,0.0,0.0,0.0,0.0,0.0,0.0,0.0,5.0156,5.0456,5.0704,0.0,0.0,0.0,0.0,0.0,0.0,0.0,0.0,0.0,0.0,0.0,0.0,0.0,0.0,0.0,0.0,0.0,0.0,0.0,0.0,0.0,0.0,0.0,0.0,0.0,0.0,0.0,0.0,0.0,0.0,0.0,0.0,0.0,0.0,0.0,0.0,0.0,0.0,0.0,0.0,0.0,0.0,0.0,0.0,0.0,0.0,0.0,0.0,0.0,0.0,0.0,0.0,0.0,0.0,0.0,0.0,0.0,0.0,0.0,0.0,0.0,0.0,0.0,0.0,0.0,0.0,0.0,0.0,0.0,0.0,0.0,0.0,0.0,0.0,0.0,0.0,0.0,0.0,0.0,0.0,0.0,0.0,0.0,0.0,0.0,0.0,0.0,0.0,0.0,0.0,0.0,0.0,0.0,0.0,0.0,0.0,0.0,0.0,0.0,0.0,0.0,0.0,0.0,0.0,0.0,0.0,0.0,0.0,0.0,0.0,4.992,5.0011,5.0783,0.0,5.2481,0.0,0.0,0.0,0.0,0.0,0.0,0.0,0.0,0.0,0.0,0.0,0.0,0.0,0.0,0.0,0.0,0.0,0.0,0.0,0.0,0.0,0.0,0.0,0.0,0.0,0.0,0.0,0.0,0.0,0.0,0.0,0.0,0.0,0.0,0.0,0.0,0.0,0.0,0.0,0.0,0.0,0.0,0.0,0.0,0.0,0.0,0.0,0.0,0.0,0.0,0.0,0.0,0.0,0.0,0.0,0.0,0.0,0.0,0.0,0.0,0.0,0.0,0.0,0.0,0.0,0.0,0.0,0.0,0.0,0.0,0.0,0.0,0.0,0.0,0.0,0.0,0.0,0.0,0.0,0.0,0.0,0.0,0.0,0.0,0.0,0.0,0.0,0.0,0.0,0.0,0.0,0.0,0.0,0.0,0.0,0.0,0.0,0.0,0.0,0.0,0.0,0.0,0.0,0.0,0.0,0.0,0.0,0.0,0.0,0.0,5.0757,5.0783,5.1669,5.2653,0.0,0.0,0.0,0.0,0.0,0.0,0.0,0.0,0.0,0.0,0.0,0.0,0.0,0.0,0.0,0.0,0.0,0.0,0.0,0.0,0.0,0.0,0.0,0.0,0.0,0.0,0.0,0.0,0.0,0.0,0.0,0.0,0.0,0.0,0.0,0.0,0.0,0.0,0.0,0.0,0.0,0.0,0.0,0.0,0.0,0.0,0.0,0.0,0.0,0.0,0.0,0.0,0.0,0.0,0.0,0.0,0.0,0.0,0.0,0.0,0.0,0.0,0.0,0.0,0.0,0.0,0.0,0.0,0.0,0.0,0.0,0.0,0.0,0.0,0.0,0.0,0.0,0.0,0.0,0.0,0.0,0.0,0.0,0.0,0.0,0.0,0.0,0.0,0.0,0.0,0.0,0.0,0.0,0.0,0.0,0.0,0.0,0.0,0.0,0.0,0.0,0.0,0.0,0.0,0.0,0.0,0.0,0.0,0.0,0.0,5.0953,5.1539,5.2061,5.2812,5.3684,5.4593,0.0,0.0,0.0,0.0,0.0,0.0,0.0,0.0,0.0,0.0,0.0,0.0,0.0,0.0,0.0,0.0,0.0,0.0,0.0,0.0,0.0,0.0,0.0,0.0,0.0,0.0,0.0,0.0,0.0,0.0,0.0,0.0,0.0,0.0,0.0,0.0,0.0,0.0,0.0,0.0,0.0,0.0,0.0,0.0,0.0,0.0,0.0,0.0,0.0,0.0,0.0,0.0,0.0,0.0,0.0,0.0,0.0,0.0,0.0,0.0,0.0,0.0,0.0,0.0,0.0,0.0,0.0,0.0,0.0,0.0,0.0,0.0,0.0,0.0,0.0,0.0,0.0,0.0,0.0,0.0,0.0,0.0,0.0,0.0,0.0,0.0,0.0,0.0,0.0,0.0,0.0,0.0,0.0,0.0,0.0,0.0,0.0,0.0,0.0,0.0,0.0,0.0,0.0,0.0,0.0,0.0,0.0,0.0,5.1195,5.1284,5.2182,5.3894,5.4155,5.4632,0.0,0.0,0.0,0.0,0.0,0.0,0.0,0.0,0.0,0.0,0.0,0.0,0.0,0.0,0.0,0.0,0.0,0.0,0.0,0.0,0.0,0.0,0.0,0.0,0.0,0.0,0.0,0.0,0.0,0.0,0.0,0.0,0.0,0.0,0.0,0.0,0.0,0.0,0.0,0.0,0.0,0.0,0.0,0.0,0.0,0.0,0.0,0.0,0.0,0.0,0.0,0.0,0.0,0.0,0.0,0.0,0.0,0.0,0.0,0.0,0.0,0.0,0.0,0.0,0.0,0.0,0.0,0.0,0.0,0.0,0.0,0.0,0.0,0.0,0.0,0.0,0.0,0.0,0.0,0.0,0.0,0.0,0.0,0.0,0.0,0.0,0.0,0.0,0.0,0.0,0.0,0.0,0.0,0.0,0.0,0.0,0.0,0.0,0.0,0.0,0.0,0.0,0.0,0.0,0.0,0.0,0.0,0.0,0.0,5.1322,5.2481,5.369,5.4915,5.5086,5.5308,0.0,0.0,0.0,0.0,0.0,0.0,0.0,0.0,0.0,0.0,0.0,0.0,0.0,0.0,0.0,0.0,0.0,0.0,0.0,0.0,0.0,0.0,0.0,0.0,0.0,0.0,0.0,0.0,0.0,0.0,0.0,0.0,0.0,0.0,0.0,0.0,0.0,0.0,0.0,0.0,0.0,0.0,0.0,0.0,0.0,0.0,0.0,0.0,0.0,0.0,0.0,0.0,0.0,0.0,0.0,0.0,0.0,0.0,0.0,0.0,0.0,0.0,0.0,0.0,0.0,0.0,0.0,0.0,0.0,0.0,0.0,0.0,0.0,0.0,0.0,0.0,0.0,0.0,0.0,0.0,0.0,0.0,0.0,0.0,0.0,0.0,0.0,0.0,0.0,0.0,0.0,0.0,0.0,0.0,0.0,0.0,0.0,0.0,0.0,0.0,0.0,0.0,0.0,0.0,0.0,0.0,0.0,0.0,0.0,5.2227,0.0,5.4883,5.5499,5.5582,5.5687,0.0,0.0,0.0,0.0,0.0,0.0,0.0,0.0,0.0,0.0,0.0,0.0,0.0,0.0,0.0,0.0,0.0,0.0,0.0,0.0,0.0,0.0,0.0,0.0,0.0,0.0,0.0,0.0,0.0,0.0,0.0,0.0,0.0,0.0,0.0,0.0,0.0,0.0,0.0,0.0,0.0,0.0,0.0,0.0,0.0,0.0,0.0,0.0,0.0,0.0,0.0,0.0,0.0,0.0,0.0,0.0,0.0,0.0,0.0,0.0,0.0,0.0,0.0,0.0,0.0,0.0,0.0,0.0,0.0,0.0,0.0,0.0,0.0,0.0,0.0,0.0,0.0,0.0,0.0,0.0,0.0,0.0,0.0,0.0,0.0,0.0,0.0,0.0,0.0,0.0,0.0,0.0,0.0,0.0,0.0,0.0,0.0,0.0,0.0,0.0,0.0,0.0,0.0,0.0,0.0,0.0,0.0,0.0,5.2271,5.4065,5.5042,5.5664,5.5742,5.5791,5.5825,0.0,0.0,0.0,0.0,0.0,0.0,0.0,0.0,0.0,0.0,0.0,0.0,0.0,0.0,0.0,0.0,0.0,0.0,0.0,0.0,0.0,0.0,0.0,0.0,0.0,0.0,0.0,0.0,0.0,0.0,0.0,0.0,0.0,0.0,0.0,0.0,0.0,0.0,0.0,0.0,0.0,0.0,0.0,0.0,0.0,0.0,0.0,0.0,0.0,0.0,0.0,0.0,0.0,0.0,0.0,0.0,0.0,0.0,0.0,0.0,0.0,0.0,0.0,0.0,0.0,0.0,0.0,0.0,0.0,0.0,0.0,0.0,0.0,0.0,0.0,0.0,0.0,0.0,0.0,0.0,0.0,0.0,0.0,0.0,0.0,0.0,0.0,0.0,0.0,0.0,0.0,0.0,0.0,0.0,0.0,0.0,0.0,0.0,0.0,0.0,0.0,0.0,0.0,0.0,0.0,0.0,0.0,0.0,0.0,5.6103,5.6988,5.7505,5.7607,5.7617,5.767,0.0,0.0,0.0,0.0,0.0,0.0,0.0,0.0,0.0,0.0,0.0,0.0,0.0,0.0,0.0,0.0,0.0,0.0,0.0,0.0,0.0,0.0,0.0,0.0,0.0,0.0,0.0,0.0,0.0,0.0,0.0,0.0,0.0,0.0,0.0,0.0,0.0,0.0,0.0,0.0,0.0,0.0,0.0,0.0,0.0,0.0,0.0,0.0,0.0,0.0,0.0,0.0,0.0,0.0,0.0,0.0,0.0,0.0,0.0,0.0,0.0,0.0,0.0,0.0,0.0,0.0,0.0,0.0,0.0,0.0,0.0,0.0,0.0,0.0,0.0,0.0,0.0,0.0,0.0,0.0,0.0,0.0,0.0,0.0,0.0,0.0,0.0,0.0,0.0,0.0,0.0,0.0,0.0,0.0,0.0,0.0,0.0,0.0,0.0,0.0,0.0,0.0,0.0,0.0,0.0,0.0,0.0,0.0,0.0,5.8533,5.8415,5.8427,5.8583,5.8583,5.8596,5.8692,0.0,0.0,0.0,0.0,0.0,0.0,0.0,0.0,0.0,0.0,0.0,0.0,0.0,0.0,0.0,0.0,0.0,0.0,0.0,0.0,0.0,0.0,0.0,0.0,0.0,0.0,0.0,0.0,0.0,0.0,0.0,0.0,0.0,0.0,0.0,0.0,0.0,0.0,0.0,0.0,0.0,0.0,0.0,0.0,0.0,0.0,0.0,0.0,0.0,0.0,0.0,0.0,0.0,0.0,0.0,0.0,0.0,0.0,0.0,0.0,0.0,0.0,0.0,0.0,0.0,0.0,0.0,0.0,0.0,0.0,0.0,0.0,0.0,0.0,0.0,0.0,0.0,0.0,0.0,0.0,0.0,0.0,0.0,0.0,0.0,0.0,0.0,0.0,0.0,0.0,0.0,0.0,0.0,0.0,0.0,0.0,0.0,0.0,0.0,0.0,0.0,0.0,0.0,0.0,0.0,0.0,0.0,0.0,6.1255,5.9657,5.8901,5.9068,5.8994,5.8969,0.0,0.0,0.0,0.0,0.0,0.0,0.0,0.0,0.0,0.0,0.0,0.0,0.0,0.0,0.0,0.0,0.0,0.0,0.0,0.0,0.0,0.0,0.0,0.0,0.0,0.0,0.0,0.0,0.0,0.0,0.0,0.0,0.0,0.0,0.0,0.0,0.0,0.0,0.0,0.0,0.0,0.0,0.0,0.0,0.0,0.0,0.0,0.0,0.0,0.0,0.0,0.0,0.0,0.0,0.0,0.0,0.0,0.0,0.0,0.0,0.0,0.0,0.0,0.0,0.0,0.0,0.0,0.0,0.0,0.0,0.0,0.0,0.0,0.0,0.0,0.0,0.0,0.0,0.0,0.0,0.0,0.0,0.0,0.0,0.0,0.0,0.0,0.0,0.0,0.0,0.0,0.0,0.0,0.0,0.0,0.0,0.0,0.0,0.0,0.0,0.0,0.0,0.0,0.0,0.0,0.0,0.0,0.0,0.0,6.2183,6.2424,6.2578,6.2606,6.1984,6.1697,0.0,0.0,0.0,0.0,0.0,0.0,0.0,0.0,0.0,0.0,0.0,0.0,0.0,0.0,0.0,0.0,0.0,0.0,0.0,0.0,0.0,0.0,0.0,0.0,0.0,0.0,0.0,0.0,0.0,0.0,0.0,0.0,0.0,0.0,0.0,0.0,0.0,0.0,0.0,0.0,0.0,0.0,0.0,0.0,0.0,0.0,0.0,0.0,0.0,0.0,0.0,0.0,0.0,0.0,0.0,0.0,0.0,0.0,0.0,0.0,0.0,0.0,0.0,0.0,0.0,0.0,0.0,0.0,0.0,0.0,0.0,0.0,0.0,0.0,0.0,0.0,0.0,0.0,0.0,0.0,0.0,0.0,0.0,0.0,0.0,0.0,0.0,0.0,0.0,0.0,0.0,0.0,0.0,0.0,0.0,0.0,0.0,0.0,0.0,0.0,0.0,0.0,0.0,0.0,0.0,0.0,0.0,0.0,6.2383,6.3708,6.4302,6.4777,6.5139,6.3567,6.2764,0.0,0.0,0.0,0.0,0.0,0.0,0.0,0.0,0.0,0.0,0.0,0.0,0.0,0.0,0.0,0.0,0.0,0.0,0.0,0.0,0.0,0.0,0.0,0.0,0.0,0.0,0.0,0.0,0.0,0.0,0.0,0.0,0.0,0.0,0.0,0.0,0.0,0.0,0.0,0.0,0.0,0.0,0.0,0.0,0.0,0.0,0.0,0.0,0.0,0.0,0.0,0.0,0.0,0.0,0.0,0.0,0.0,0.0,0.0,0.0,0.0,0.0,0.0,0.0,0.0,0.0,0.0,0.0,0.0,0.0,0.0,0.0,0.0,0.0,0.0,0.0,0.0,0.0,0.0,0.0,0.0,0.0,0.0,0.0,0.0,0.0,0.0,0.0,0.0,0.0,0.0,0.0,0.0,0.0,0.0,0.0,0.0,0.0,0.0,0.0,0.0,0.0,0.0,0.0,0.0,0.0,0.0,0.0,6.3592,6.5255,6.547,6.5913,6.6596,6.4354,6.3077,0.0,0.0,0.0,0.0,0.0,0.0,0.0,0.0,0.0,0.0,0.0,0.0,0.0,0.0,0.0,0.0,0.0,0.0,0.0,0.0,0.0,0.0,0.0,0.0,0.0,0.0,0.0,0.0,0.0,0.0,0.0,0.0,0.0,0.0,0.0,0.0,0.0,0.0,0.0,0.0,0.0,0.0,0.0,0.0,0.0,0.0,0.0,0.0,0.0,0.0,0.0,0.0,0.0,0.0,0.0,0.0,0.0,0.0,0.0,0.0,0.0,0.0,0.0,0.0,0.0,0.0,0.0,0.0,0.0,0.0,0.0,0.0,0.0,0.0,0.0,0.0,0.0,0.0,0.0,0.0,0.0,0.0,0.0,0.0,0.0,0.0,0.0,0.0,0.0,0.0,0.0,0.0,0.0,0.0,0.0,0.0,0.0,0.0,0.0,0.0,0.0,0.0,0.0,0.0,0.0,0.0,0.0,0.0,6.4821,6.5288,6.6039,6.6521,6.6775,6.5564,6.4591,0.0,0.0,0.0,0.0,0.0,0.0,0.0,0.0,0.0,0.0,0.0,0.0,0.0,0.0,0.0,0.0,0.0,0.0,0.0,0.0,0.0,0.0,0.0,0.0,0.0,0.0,0.0,0.0,0.0,0.0,0.0,0.0,0.0,0.0,0.0,0.0,0.0,0.0,0.0,0.0,0.0,0.0,0.0,0.0,0.0,0.0,0.0,0.0,7.0387,0.0,0.0,0.0,0.0,0.0,0.0,0.0,0.0,0.0,0.0,0.0,0.0,0.0,0.0,0.0,0.0,0.0,0.0,0.0,0.0,0.0,0.0,0.0,0.0,0.0,0.0,0.0,0.0,0.0,0.0,0.0,0.0,0.0,0.0,0.0,0.0,0.0,0.0,0.0,0.0,0.0,0.0,0.0,0.0,0.0,0.0,0.0,0.0,0.0,0.0,0.0,0.0,0.0,0.0,0.0,0.0,0.0,0.0,0.0,6.6085,6.6591,6.7438,6.7953,6.798,6.717,6.6154,0.0,0.0,0.0,0.0,0.0,0.0,0.0,0.0,0.0,0.0,0.0,0.0,0.0,0.0,0.0,0.0,0.0,0.0,0.0,0.0,0.0,0.0,0.0,0.0,0.0,0.0,0.0,0.0,0.0,0.0,0.0,0.0,0.0,0.0,0.0,0.0,0.0,0.0,0.0,0.0,0.0,0.0,0.0,0.0,0.0,0.0,0.0,0.0,0.0,0.0,0.0,0.0,0.0,0.0,0.0,0.0,0.0,0.0,0.0,0.0,0.0,0.0,0.0,0.0,0.0,0.0,0.0,0.0,0.0,0.0,0.0,0.0,0.0,0.0,0.0,0.0,0.0,0.0,0.0,0.0,0.0,0.0,0.0,0.0,0.0,0.0,0.0,0.0,0.0,0.0,0.0,0.0,0.0,0.0,0.0,0.0,0.0,0.0,0.0,0.0,0.0,0.0,0.0,0.0,0.0,0.0,0.0,6.5913,6.7262,6.8161,6.8921,6.9351,6.9378,6.8688,6.7558,6.6026,0.0,0.0,0.0,0.0,0.0,0.0,0.0,0.0,0.0,0.0,0.0,0.0,0.0,0.0,0.0,0.0,0.0,0.0,0.0,0.0,0.0,0.0,0.0,0.0,0.0,0.0,0.0,0.0,0.0,0.0,0.0,0.0,0.0,0.0,0.0,0.0,0.0,0.0,6.9763,6.9802,0.0,0.0,0.0,0.0,0.0,0.0,0.0,0.0,7.269,0.0,0.0,0.0,0.0,0.0,0.0,0.0,0.0,0.0,0.0,0.0,0.0,0.0,0.0,0.0,0.0,0.0,0.0,0.0,0.0,0.0,0.0,0.0,0.0,0.0,0.0,0.0,0.0,0.0,0.0,0.0,0.0,0.0,0.0,0.0,0.0,0.0,0.0,0.0,0.0,0.0,0.0,0.0,0.0,0.0,0.0,0.0,0.0,0.0,0.0,0.0,0.0,0.0,0.0,0.0,0.0,6.589,6.7086,6.8132,6.9085,6.9279,6.9391,6.9402,6.9255,6.871,6.7694,0.0,0.0,0.0,0.0,0.0,0.0,0.0,0.0,0.0,0.0,0.0,0.0,0.0,0.0,0.0,0.0,0.0,0.0,0.0,0.0,0.0,0.0,0.0,0.0,0.0,0.0,0.0,0.0,0.0,0.0,0.0,0.0,0.0,0.0,0.0,0.0,0.0,0.0,0.0,7.1558,7.1558,0.0,0.0,0.0,0.0,0.0,0.0,0.0,0.0,7.3079,0.0,0.0,0.0,0.0,0.0,0.0,0.0,0.0,0.0,0.0,0.0,0.0,0.0,0.0,0.0,0.0,0.0,0.0,0.0,0.0,0.0,0.0,0.0,0.0,0.0,0.0,0.0,0.0,0.0,0.0,0.0,0.0,0.0,0.0,0.0,0.0,0.0,0.0,0.0,0.0,0.0,0.0,0.0,0.0,0.0,0.0,0.0,0.0,0.0,0.0,0.0,0.0,0.0,0.0,0.0,6.651,6.833,6.9543,7.0027,7.0488,7.07,7.0702,7.0268,6.9599,0.0,0.0,0.0,0.0,0.0,0.0,0.0,0.0,0.0,0.0,0.0,0.0,0.0,0.0,0.0,0.0,0.0,0.0,0.0,0.0,0.0,0.0,0.0,0.0,0.0,0.0,0.0,0.0,0.0,0.0,0.0,0.0,0.0,0.0,0.0,0.0,0.0,0.0,0.0,0.0,7.2378,7.2689,7.2689,0.0,0.0,0.0,0.0,0.0,0.0,7.4212,7.3939,0.0,0.0,0.0,0.0,0.0,0.0,0.0,0.0,0.0,0.0,0.0,0.0,0.0,0.0,0.0,0.0,0.0,0.0,0.0,0.0,0.0,0.0,0.0,0.0,0.0,0.0,0.0,0.0,0.0,0.0,0.0,0.0,0.0,0.0,0.0,0.0,0.0,0.0,0.0,0.0,0.0,0.0,0.0,0.0,0.0,0.0,0.0,0.0,0.0,0.0,0.0,0.0,0.0,0.0,0.0,6.7204,6.9408,7.0705,7.0932,7.1562,7.1909,7.1879,7.1208,7.0335,0.0,0.0,0.0,0.0,0.0,0.0,0.0,0.0,0.0,0.0,0.0,0.0,0.0,0.0,0.0,0.0,0.0,0.0,0.0,0.0,0.0,0.0,0.0,0.0,0.0,0.0,0.0,0.0,0.0,0.0,0.0,0.0,0.0,0.0,0.0,0.0,0.0,0.0,0.0,0.0,0.0,7.3352,7.3508,7.4095,0.0,0.0,0.0,0.0,7.5697,7.519,0.0,0.0,0.0,0.0,0.0,0.0,0.0,0.0,0.0,0.0,0.0,0.0,0.0,0.0,0.0,0.0,0.0,0.0,0.0,0.0,0.0,0.0,0.0,0.0,0.0,0.0,0.0,0.0,0.0,0.0,0.0,0.0,0.0,0.0,0.0,0.0,0.0,0.0,0.0,0.0,0.0,0.0,0.0,0.0,0.0,0.0,0.0,0.0,0.0,0.0,0.0,0.0,0.0,0.0,0.0,0.0,6.889,7.0016,7.0975,7.1718,7.185,7.1891,7.1903,7.1748,7.0902,0.0,0.0,0.0,0.0,0.0,0.0,0.0,0.0,0.0,0.0,0.0,0.0,0.0,0.0,0.0,0.0,0.0,0.0,0.0,0.0,0.0,0.0,0.0,0.0,0.0,0.0,0.0,0.0,0.0,0.0,0.0,0.0,0.0,0.0,0.0,0.0,0.0,0.0,0.0,0.0,0.0,7.3547,7.4251,7.4447,7.4486,0.0,0.0,7.5697,7.5775,7.5697,0.0,0.0,0.0,0.0,0.0,0.0,0.0,0.0,0.0,0.0,0.0,0.0,0.0,0.0,0.0,0.0,0.0,0.0,0.0,0.0,0.0,0.0,0.0,0.0,0.0,0.0,0.0,0.0,0.0,0.0,0.0,0.0,0.0,0.0,0.0,0.0,0.0,0.0,0.0,0.0,0.0,0.0,0.0,0.0,0.0,0.0,0.0,0.0,0.0,0.0,0.0,0.0,0.0,0.0,0.0,6.933,7.0695,7.1561,7.2441,7.3277,7.3265,7.3249,7.3244,7.275,7.191,0.0,0.0,0.0,0.0,0.0,0.0,0.0,0.0,0.0,0.0,0.0,0.0,0.0,0.0,0.0,0.0,0.0,0.0,0.0,0.0,0.0,0.0,0.0,0.0,0.0,0.0,0.0,0.0,0.0,0.0,0.0,0.0,0.0,0.0,0.0,0.0,0.0,0.0,0.0,0.0,0.0,0.0,7.5151,7.6088,0.0,0.0,0.0,7.7999,7.7999,0.0,0.0,0.0,0.0,0.0,0.0,0.0,0.0,0.0,0.0,0.0,0.0,0.0,0.0,0.0,0.0,0.0,0.0,0.0,0.0,0.0,0.0,0.0,0.0,0.0,0.0,0.0,0.0,0.0,0.0,0.0,0.0,0.0,0.0,0.0,0.0,0.0,0.0,0.0,0.0,0.0,0.0,0.0,0.0,0.0,0.0,0.0,0.0,0.0,0.0,0.0,0.0,0.0,0.0,0.0,0.0,0.0,7.1903,7.2923,7.3737,7.4358,7.4302,7.4282,7.4272,7.3639,0.0,0.0,0.0,0.0,0.0,0.0,0.0,0.0,0.0,0.0,0.0,0.0,0.0,0.0,0.0,0.0,0.0,0.0,0.0,0.0,0.0,0.0,0.0,0.0,0.0,0.0,0.0,7.1363,0.0,0.0,0.0,0.0,0.0,0.0,0.0,0.0,0.0,0.0,0.0,0.0,0.0,0.0,7.5462,7.6322,7.7766,7.8742,0.0,0.0,7.9715,7.9715,7.9715,7.9287,0.0,0.0,0.0,0.0,0.0,0.0,0.0,0.0,0.0,0.0,0.0,0.0,0.0,0.0,0.0,0.0,0.0,0.0,0.0,0.0,0.0,0.0,0.0,0.0,0.0,0.0,0.0,0.0,0.0,0.0,0.0,0.0,0.0,0.0,0.0,0.0,0.0,0.0,0.0,0.0,0.0,0.0,0.0,0.0,0.0,0.0,0.0,0.0,0.0,0.0,0.0,0.0,0.0,0.0,0.0,7.1947,7.3514,7.4344,7.4308,7.4237,7.4192,7.4188,7.4152,7.3354,0.0,0.0,0.0,0.0,0.0,0.0,0.0,0.0,0.0,0.0,0.0,0.0,0.0,0.0,0.0,0.0,0.0,0.0,0.0,0.0,0.0,0.0,0.0,0.0,0.0,0.0,0.0,0.0,0.0,0.0,0.0,0.0,0.0,0.0,0.0,0.0,0.0,0.0,0.0,0.0,0.0,7.7218,7.8118,7.9014,7.9639,0.0,0.0,7.9715,7.9715,7.9715,7.9637,7.9561,0.0,0.0,0.0,0.0,0.0,0.0,0.0,0.0,0.0,0.0,0.0,0.0,0.0,0.0,0.0,0.0,0.0,0.0,0.0,0.0,0.0,0.0,0.0,0.0,0.0,0.0,0.0,0.0,0.0,0.0,0.0,0.0,0.0,0.0,0.0,0.0,0.0,0.0,0.0,0.0,0.0,0.0,0.0,0.0,0.0,0.0,0.0,0.0,0.0,0.0,0.0,0.0,0.0,7.2411,7.3432,7.4566,7.5362,7.5828,7.577,7.5737,7.5737,7.5258,7.471,0.0,0.0,0.0,0.0,0.0,0.0,0.0,0.0,0.0,0.0,0.0,0.0,0.0,0.0,0.0,0.0,0.0,0.0,0.0,0.0,0.0,0.0,0.0,0.0,0.0,0.0,0.0,0.0,7.3727,7.3966,7.378,0.0,0.0,0.0,0.0,0.0,0.0,0.0,0.0,0.0,0.0,7.7609,7.9014,7.9951,0.0,0.0,8.0966,8.1316,8.1317,8.1277,8.1122,8.0576,7.9951,0.0,0.0,0.0,0.0,0.0,0.0,0.0,0.0,0.0,0.0,0.0,0.0,0.0,0.0,0.0,0.0,0.0,0.0,0.0,0.0,0.0,0.0,0.0,0.0,0.0,0.0,0.0,0.0,0.0,0.0,0.0,0.0,0.0,0.0,0.0,0.0,0.0,0.0,0.0,0.0,0.0,0.0,0.0,0.0,0.0,0.0,0.0,0.0,0.0,0.0,0.0,0.0,7.3215,7.4374,7.5436,7.6233,7.6773,7.6739,7.6682,7.6682,7.6143,7.5754,0.0,0.0,0.0,0.0,0.0,0.0,0.0,0.0,0.0,0.0,0.0,0.0,0.0,0.0,0.0,0.0,0.0,0.0,0.0,0.0,0.0,0.0,0.0,0.0,0.0,0.0,0.0,0.0,7.4728,7.4971,7.4125,0.0,0.0,0.0,0.0,0.0,0.0,0.0,0.0,0.0,0.0,7.8702,7.9912,8.0849,8.1396,8.1396,8.1903,8.2292,8.2292,8.2292,8.2176,8.1786,0.0,0.0,0.0,0.0,0.0,0.0,0.0,0.0,0.0,0.0,0.0,0.0,0.0,0.0,0.0,0.0,0.0,0.0,0.0,0.0,0.0,0.0,0.0,0.0,0.0,0.0,0.0,0.0,0.0,0.0,6.3118,0.0,0.0,0.0,0.0,0.0,0.0,0.0,0.0,0.0,0.0,0.0,0.0,0.0,0.0,0.0,0.0,0.0,0.0,0.0,0.0,0.0,0.0,7.4324,7.4298,7.5902,7.6734,7.6687,7.6682,7.6682,7.6682,7.6682,7.6294,7.5526,0.0,0.0,0.0,0.0,0.0,0.0,0.0,0.0,0.0,0.0,0.0,0.0,0.0,0.0,0.0,0.0,0.0,0.0,0.0,0.0,0.0,0.0,0.0,0.0,0.0,0.0,7.5558,7.6515,7.6644,0.0,0.0,0.0,0.0,0.0,0.0,0.0,0.0,0.0,0.0,7.9875,8.0927,8.1005,8.1708,8.2253,8.2253,8.2292,8.2331,8.2331,8.2331,8.2567,0.0,0.0,0.0,0.0,0.0,0.0,0.0,0.0,0.0,0.0,0.0,0.0,0.0,0.0,0.0,0.0,0.0,0.0,0.0,0.0,0.0,0.0,0.0,0.0,0.0,0.0,0.0,6.447,6.4971,0.0,0.0,0.0,0.0,0.0,0.0,0.0,0.0,0.0,0.0,0.0,7.2691,7.2734,0.0,0.0,0.0,0.0,0.0,0.0,0.0,0.0,0.0,0.0,0.0,0.0,7.4362,7.4307,7.5911,7.6768,7.6687,7.6682,7.6682,7.6682,7.6682,7.6298,7.5526,0.0,0.0,0.0,0.0,0.0,0.0,0.0,0.0,0.0,0.0,0.0,0.0,0.0,0.0,0.0,0.0,0.0,0.0,0.0,0.0,0.0,0.0,0.0,0.0,0.0,7.5203,0.0,0.0,0.0,0.0,0.0,0.0,0.0,0.0,0.0,0.0,0.0,7.9366,8.081,8.1005,8.1397,8.2489,8.245,8.2489,0.0,0.0,0.0,0.0,0.0,0.0,0.0,0.0,0.0,0.0,0.0,0.0,0.0,0.0,8.2723,8.1628,8.1433,8.1433,8.1433,0.0,0.0,0.0,0.0,0.0,0.0,0.0,0.0,0.0,0.0,0.0,0.0,0.0,0.0,6.6506,0.0,6.7067,0.0,0.0,0.0,0.0,0.0,0.0,0.0,0.0,7.3355,7.3944,7.4477,7.4495,7.4513,0.0,7.4449,7.3295,0.0,0.0,0.0,0.0,0.0,0.0,0.0,0.0,7.43,7.4266,7.5883,7.6747,7.6703,7.6699,7.669,7.6671,7.669,7.6475,7.591,7.5642,7.4977,0.0,0.0,0.0,0.0,0.0,0.0,0.0,0.0,0.0,0.0,0.0,0.0,0.0,0.0,0.0,0.0,0.0,0.0,0.0,0.0,0.0,0.0,0.0,7.6665,0.0,0.0,0.0,0.0,0.0,0.0,0.0,0.0,0.0,7.8896,7.9873,8.1238,8.2955,8.2684,8.2723,8.3777,0.0,0.0,0.0,0.0,0.0,0.0,0.0,8.4712,8.4441,8.5104,8.5805,8.6118,8.6431,8.651,8.6197,0.0,0.0,8.3582,8.319,8.319,8.319,8.3151,8.3151,8.319,8.319,8.3151,0.0,0.0,0.0,0.0,0.0,0.0,0.0,0.0,6.8719,6.9161,0.0,6.9305,0.0,0.0,0.0,0.0,0.0,7.2017,0.0,0.0,7.4562,7.4584,7.4595,7.4636,7.4565,7.446,7.4514,7.4446,7.4301,7.3602,0.0,0.0,0.0,0.0,0.0,0.0,7.4219,7.4293,7.5845,7.6694,7.6691,7.6691,7.6667,7.6656,7.6706,7.6754,7.676,7.6104,7.5603,7.5565,7.4744,0.0,0.0,0.0,0.0,0.0,0.0,0.0,0.0,0.0,0.0,0.0,0.0,0.0,0.0,0.0,0.0,0.0,0.0,0.0,0.0,7.7607,0.0,0.0,0.0,0.0,0.0,0.0,0.0,0.0,0.0,0.0,8.2365,8.237,8.2995,8.4595,0.0,0.0,0.0,0.0,8.479,8.4829,8.4829,8.4829,8.4907,8.4907,8.5259,8.6041,0.0,0.0,8.8579,8.9398,8.9634,8.8891,8.9281,8.893,8.561,8.5064,8.5064,8.5024,8.5103,8.4987,8.4985,8.5142,8.5103,6.9091,0.0,0.0,0.0,0.0,6.9162,7.0029,7.0656,7.1555,7.2289,7.2858,7.2886,0.0,0.0,0.0,0.0,0.0,0.0,7.4952,7.5481,7.6026,7.6299,7.6264,7.6183,7.6133,7.6119,7.6078,7.6015,7.5964,7.5152,7.4498,7.3993,0.0,0.0,0.0,0.0,7.5051,7.5137,7.6099,7.6594,7.6537,7.6576,7.6863,7.7431,7.7521,7.7879,7.8513,7.8323,7.7934,7.7308,7.6454,0.0,0.0,0.0,0.0,0.0,0.0,0.0,0.0,0.0,0.0,0.0,0.0,0.0,0.0,0.0,0.0,0.0,0.0,0.0,7.8052,7.8568,7.8801,0.0,0.0,0.0,0.0,0.0,0.0,0.0,0.0,0.0,8.4785,8.4423,8.448,0.0,0.0,8.5026,8.5651,8.5221,8.5026,8.5651,8.5729,0.0,8.6586,8.7172,8.7681,8.7915,8.8696,8.9359,8.9594,8.9828,8.9908,8.9672,8.9828,8.9634,8.8813,8.8501,8.8502,8.8501,8.8501,8.8501,8.8501,8.8502,8.8461,7.2244,7.1214,7.0895,7.0728,7.0798,7.1695,7.2396,7.2896,7.3429,7.3956,7.4438,7.4448,7.414,7.3672,7.3709,0.0,0.0,0.0,7.596,7.631,7.6765,7.6942,7.6873,7.6785,7.6682,7.6642,7.6589,7.6516,7.6491,7.6283,7.5966,7.5536,0.0,0.0,7.4114,7.4901,7.5484,7.5816,7.6598,7.7141,7.7417,7.7517,7.7755,7.8284,7.8374,7.8695,7.9251,7.9294,7.9061,7.8552,7.8008,7.7503,0.0,0.0,0.0,0.0,0.0,0.0,0.0,0.0,0.0,0.0,0.0,7.4373,7.4779,0.0,0.0,0.0,7.7787,7.8851,8.0442,8.0209,0.0,0.0,0.0,0.0,0.0,0.0,0.0,8.2946,8.4139,8.5264,8.6323,8.6641,8.6747,8.6601,8.6414,8.6497,8.7005,0.0,8.7056,8.7564,8.7642,8.7837,8.8344,8.8852,8.932,8.9672,9.014,9.0649,9.0962,9.1001,9.1001,9.1001,9.1001,9.1001,9.1001,9.1001,9.0727,9.0142,8.9986,8.9986,8.9986,8.9986,8.9986,7.4604,7.4526,7.3815,7.3449,7.3397,7.425,7.4581,7.4633,7.4685,7.4687,7.4718,7.4701,7.4682,7.4708,7.4693,0.0,7.5891,7.587,7.6264,7.6987,7.6914,7.6797,7.6665,7.6686,7.6607,7.6488,7.6475,7.6454,7.643,7.7138,7.7517,7.7512,7.5443,7.4297,7.4221,7.4989,7.573,7.6484,7.7251,7.8069,7.8861,7.901,7.9117,7.921,7.9267,7.9359,7.9484,7.9527,7.9488,7.9527,7.945,7.9411,7.9367,0.0,0.0,0.0,0.0,0.0,0.0,0.0,0.0,0.0,0.0,0.0,0.0,0.0,0.0,0.0,8.0207,0.0,8.3261,8.2194,0.0,0.0,0.0,8.1207,8.2803,8.3148,8.363,8.4548,0.0,0.0,8.7365,8.8774,8.9199,8.7668,8.8211,8.87,8.87,8.9343,8.9981,8.9823,8.9941,8.9982,8.9981,9.0179,9.0492,9.1155,9.1389,9.1663,9.2248,9.2404,9.2445,9.2406,9.2484,9.2445,9.2484,9.2404,9.2016,9.0532,9.0259,9.0259,9.0337,9.0337,9.0376,7.5477,7.5558,7.6007,7.5421,7.4277,7.5111,7.5468,7.5543,7.6147,7.6396,7.6413,7.6368,7.6342,7.6336,7.6331,7.6432,7.664,7.6637,7.6712,7.6836,7.6721,7.6589,7.6503,7.6966,7.7158,7.715,7.7691,7.7949,7.7973,7.8144,7.8259,7.8243,7.7715,7.7163,7.668,7.6739,7.6905,7.7084,7.7932,7.8527,7.8831,7.8954,7.9355,8.0068,8.0164,8.0524,8.1271,8.1271,8.1271,8.1271,8.0649,8.03,8.0256,7.929,0.0,0.0,0.0,0.0,0.0,0.0,0.0,0.0,0.0,7.6687,7.7836,0.0,7.8873,0.0,8.1773,8.2915,8.3281,8.3047,0.0,0.0,8.307,8.3136,8.3536,8.4811,8.5777,8.6066,8.7708,8.8767,8.8802,8.9279,8.9493,8.9121,8.9375,8.9608,8.9608,8.9769,8.993,8.9974,8.999,9.0157,9.082,9.1497,9.1936,9.217,9.2209,9.2287,9.2482,9.2484,9.2484,9.2484,9.2484,9.2484,9.2484,9.2484,9.2404,9.1977,9.1897,9.1897,9.1899,9.1899,9.1899,7.6392,7.6438,7.6914,7.6522,7.562,7.6124,7.6309,7.6361,7.6782,7.6975,7.695,7.69,7.6917,7.6917,7.6917,7.6904,7.6922,7.7273,7.7373,7.7304,7.7521,7.7534,7.7389,7.7712,7.7814,7.777,7.8153,7.8305,7.8335,7.8686,7.8886,7.8881,7.8878,7.8683,7.8353,7.7992,7.7977,7.8369,7.9355,7.9884,7.9964,8.0132,8.0451,8.0921,8.0981,8.1294,8.1786,8.1824,8.1824,8.1824,8.1359,8.1087,8.1087,8.0247,7.9523,0.0,0.0,0.0,0.0,0.0,0.0,0.0,0.0,0.0,0.0,0.0,8.0585,8.224,8.3197,8.4039,8.4796,8.4573,8.4712,8.5479,8.5411,8.5466,8.5851,8.6809,8.7478,8.7547,8.8801,8.9681,8.9778,9.0252,9.0607,9.0595,9.0811,9.0811,9.0534,9.0752,9.1047,9.1047,9.1059,9.1186,9.1732,9.2173,9.2498,9.2507,9.251,9.2512,9.2522,9.2484,9.2484,9.2484,9.2484,9.2484,9.2484,9.2484,9.2484,9.2484,9.2484,9.2484,9.2484,9.2484,9.2484,7.7107,7.7109,7.7105,7.7043,7.6987,7.696,7.6985,7.6988,7.693,7.6881,7.6883,7.6894,7.6921,7.7034,7.7034,7.7073,7.7229,7.7925,7.8164,7.8093,7.8635,7.8754,7.8558,7.8546,7.8495,7.8403,7.8411,7.8415,7.8453,7.91,7.9491,7.9524,7.9491,7.9491,7.9533,7.9067,7.9149,7.9835,8.0834,8.1374,8.1387,8.1577,8.1641,8.1583,8.1585,8.1608,8.1613,8.1646,8.1646,8.1646,8.1646,8.1646,8.1608,8.0975,8.0508,0.0,7.9744,0.0,0.0,0.0,0.0,0.0,0.0,0.0,0.0,8.1661,8.276,8.4327,8.4556,8.5244,8.6839,8.6383,8.6595,8.7972,8.7685,8.7642,8.8323,8.8605,8.8756,8.8905,8.9678,9.0288,9.0463,9.1236,9.174,9.173,9.1859,9.1802,9.142,9.1886,9.2359,9.2482,9.2485,9.2292,9.2415,9.2456,9.2503,9.2483,9.2488,9.2494,9.251,9.2512,9.2514,9.2514,9.2516,9.2518,9.252,9.2522,9.2482,9.2518,9.2518,9.2518,9.2522,9.2518,9.252,7.7107,7.71,7.7022,7.7016,7.7014,7.6873,7.6888,7.6933,7.6862,7.6801,7.6721,7.6713,7.714,7.7762,7.7801,7.8189,7.8855,7.9006,7.8966,7.8801,7.8828,7.8699,7.8477,7.899,7.9159,7.9156,7.974,8.0037,8.0037,8.021,8.0286,8.0305,8.0286,8.0295,8.0343,0.0,0.0,0.0,8.097,8.121,8.1312,8.1388,8.1432,8.1363,8.1317,0.0,8.1296,8.1296,8.1296,8.1296,8.129,0.0,0.0,0.0,0.0,0.0,0.0,0.0,0.0,0.0,0.0,0.0,8.2648,8.2582,8.2728,8.3391,8.4212,8.5206,8.5922,8.6734,8.7727,8.7748,8.7758,8.8074,8.8059,8.8088,8.828,8.8912,8.9418,8.9446,9.0248,9.0849,9.0872,9.1228,9.1484,9.1578,9.1804,9.1949,9.1908,9.2187,9.2409,9.2412,9.2438,9.2462,9.2487,9.249,9.2487,9.25,9.25,9.2542,9.2588,9.2588,9.2547,9.2588,9.2485,9.2537,9.2537,9.2512,9.2594,9.25,9.2537,9.2503,9.2518,9.2509,9.2498,7.8323,0.0,7.8245,7.8228,0.0,7.8104,7.8104,7.8027,7.7131,7.6743,7.6721,7.7149,7.7576,7.8008,7.8474,7.8862,7.9333,7.9733,7.9789,7.9612,7.9829,7.9798,7.9594,7.9828,7.9941,7.9942,8.0735,8.1117,8.1156,8.1538,8.1738,8.1738,8.1738,8.1738,8.1738,8.2197,8.229,8.2019,8.2199,8.2325,8.2401,8.2441,8.2463,8.2384,8.2347,0.0,0.0,0.0,0.0,0.0,0.0,0.0,0.0,8.2671,0.0,8.2269,8.2614,8.277,8.268,8.342,8.4009,8.4299,8.5131,8.5246,8.4404,8.5464,8.6352,8.6734,8.7192,8.7804,8.8568,8.8683,8.8874,8.9256,8.9373,8.9404,8.9414,8.9799,9.0089,9.0176,9.057,9.0848,9.0944,9.1163,9.1333,9.14,9.1634,9.1853,9.1982,9.2187,9.2362,9.2423,9.2402,9.2422,9.2441,9.2444,9.2648,9.2972,9.3095,9.3296,9.3658,9.3738,9.3738,9.3741,9.3712,9.372,9.3722,9.3732,9.3734,9.3725,9.372,9.3725,9.3697,9.3105,9.2513,7.9578,7.9586,7.949,7.9428,7.9404,7.9363,7.9364,7.9216,0.0,0.0,0.0,7.7891,7.8318,7.8474,7.9216,7.9605,7.9795,8.0442,8.0595,8.0453,8.0891,8.1077,8.0975,8.0828,8.0812,8.0974,8.1652,8.1996,8.2034,8.2693,8.2999,8.2999,8.2999,8.3076,8.3228,8.3228,8.3381,8.3653,8.353,8.3459,8.3459,8.3524,8.3524,8.3435,8.3418,8.341,8.3418,8.341,8.3418,8.341,8.3418,8.3418,8.341,8.3496,8.3615,8.3759,8.3889,8.397,8.4079,8.537,8.6097,8.597,8.7422,8.7651,8.6084,8.7269,8.8148,8.8311,8.8301,8.8644,8.9447,8.9513,8.9829,9.0544,9.0621,9.0583,9.0593,9.0621,9.0597,9.0669,9.0689,9.0709,9.0837,9.0972,9.1127,9.1249,9.147,9.1779,9.2031,9.2234,9.2293,9.2366,9.2533,9.2653,9.2664,9.2862,9.3107,9.3796,9.392,9.4202,9.4769,9.497,9.497,9.4847,9.4973,9.4939,9.4978,9.4867,9.5023,9.5017,9.5017,9.5015,9.4892,9.3917,9.3062,7.9553,7.9494,7.9458,7.9415,7.9398,7.9321,7.9299,7.9294,7.9022,7.894,7.8945,7.9061,7.9523,8.0217,8.0339,8.0844,8.1504,8.1568,8.153,8.131,8.1168,8.1346,8.1819,8.1707,8.1996,8.2617,8.277,8.2808,8.2846,8.2961,8.2999,8.3037,8.2999,8.3381,8.4069,8.4136,8.4461,8.513,8.395,8.332,8.332,8.3337,8.3332,8.3252,8.3169,8.3084,8.3075,8.3084,8.3084,8.3075,8.3084,8.3084,8.3075,8.384,8.4471,8.5188,8.5895,8.6649,8.7337,8.7633,8.7748,8.7776,8.8606,8.8721,8.7842,8.7957,8.8387,8.9027,8.9141,8.9485,9.0277,9.0392,9.043,9.0544,9.0621,9.0621,9.0621,9.0621,9.0593,9.0614,9.0614,9.0614,9.0656,9.0719,9.0848,9.0963,9.1318,9.1747,9.2574,9.2491,9.2278,9.2405,9.2962,9.3406,9.355,9.4145,9.446,9.4701,9.4744,9.4825,9.5105,9.5147,9.5147,9.4984,9.5164,9.5141,9.5105,9.5009,9.5165,9.5186,9.5219,9.5135,9.5151,9.4793,9.4566,8.083,8.0808,8.0785,8.0754,8.0754,8.0736,8.0688,8.0732,8.0732,8.0149,7.9372,7.9799,8.0222,8.0606,8.1077,8.1543,8.1927,8.2275,8.2333,8.2097,8.2299,8.2512,8.2639,8.253,8.2646,8.3037,8.3496,8.3725,8.3725,8.4136,8.4327,8.4365,8.4365,8.4556,8.4938,8.4938,8.5119,8.5473,8.4835,8.4499,8.4499,8.4499,8.4481,8.4433,8.4385,8.4365,8.4365,8.4365,8.4556,8.5053,8.5053,8.5282,8.575,8.6171,8.6543,8.6887,8.7307,8.7689,8.8071,8.8492,8.895,8.9447,8.9791,8.9867,8.9485,8.9485,8.96,8.9971,9.0009,9.0162,9.0544,9.0621,9.0621,9.0621,9.0621,9.0621,9.0621,9.0621,9.0621,9.0621,9.0621,9.0621,9.0621,9.0638,9.0719,9.0837,9.1353,9.2313,9.3345,9.3335,9.3302,9.3571,9.3986,9.4219,9.4337,9.4618,9.5058,9.5505,9.559,9.5824,9.6171,9.6292,9.6288,9.6331,9.6345,9.6352,9.6317,9.6366,9.6366,9.6362,9.6352,9.6345,9.6331,9.6331,9.5987,8.1959,8.1904,8.1911,8.1892,8.1892,8.1892,8.1892,8.1892,8.1892,8.1154,8.0105,8.061,8.0882,8.096,8.1776,8.2164,8.2267,8.2947,8.3138,8.2971,8.3326,8.3491,8.3465,8.3353,8.3381,8.3611,8.426,8.4594,8.4632,8.5206,8.5511,8.5511,8.5511,8.5511,8.5511,8.5511,8.5588,8.5769,8.5807,8.5692,8.5511,8.5511,8.5588,8.5769,8.5807,8.5883,8.6084,8.6084,8.639,8.703,8.7068,8.7384,8.8043,8.811,8.8186,8.8339,8.8377,8.8453,8.8683,8.9218,8.9857,9.0544,9.0621,9.0621,9.0621,9.0621,9.0621,9.0621,9.0583,9.0583,9.0621,9.0621,9.0621,9.0621,9.0621,9.0621,9.0621,9.0621,9.0621,9.0621,9.0621,9.0659,9.0833,9.0895,9.11,9.1439,9.2066,9.3009,9.389,9.4153,9.4448,9.4911,9.5055,9.5073,9.5128,9.5422,9.5797,9.6386,9.6468,9.6706,9.7181,9.7457,9.7457,9.7379,9.7418,9.7344,9.7461,9.7461,9.7383,9.7344,9.7305,9.7383,9.7344,9.7329,9.7099,8.1981,8.1906,8.1897,8.1892,8.1892,8.1892,8.1892,8.1892,8.1931,8.1854,8.1659,8.1737,8.1776,8.1892,8.2631,8.2985,8.3053,8.3762,8.3957,8.3782,8.3595,8.3798,8.425,8.4184,8.4556,8.5167,8.532,8.532,8.532,8.5435,8.5511,8.5511,8.5511,8.555,8.555,8.555,8.5883,8.6648,8.6686,8.6304,8.555,8.5511,8.5883,8.6648,8.6686,8.704,8.7699,8.7852,8.788,8.7957,8.8005,8.8005,8.811,8.811,8.8453,8.9141,8.9179,8.9513,9.0239,9.043,9.0468,9.0583,9.0621,9.0621,9.0621,9.0621,9.0621,9.0621,9.0621,9.0621,9.0621,9.0621,9.0621,9.0621,9.0621,9.0621,9.0621,9.0621,9.0621,9.0621,9.0735,9.0888,9.1548,9.1722,9.2032,9.2755,9.307,9.3659,9.4522,9.4815,9.5195,9.5911,9.5982,9.5794,9.5942,9.6638,9.6909,9.7191,9.7242,9.7298,9.7438,9.7492,9.7496,9.7496,9.7496,9.7496,9.7492,9.7496,9.7492,9.7672,9.7676,9.7609,9.7531,9.7621,9.7453,8.1955,8.1895,8.1906,8.1892,8.1892,8.1892,8.1892,8.1931,8.2398,8.2592,8.2708,8.3136,8.3097,8.2669,8.3485,8.3874,8.3903,8.4654,8.4841,8.4663,8.4859,8.5104,8.514,8.5064,8.5206,8.5473,8.5511,8.5511,8.5511,8.5511,8.5511,8.5588,8.5998,8.6265,8.6304,8.6772,8.7231,8.7536,8.7575,8.7384,8.7078,8.704,8.7192,8.7498,8.7575,8.7727,8.8043,8.811,8.8339,8.8759,8.8835,8.9065,8.9561,8.96,8.9714,9.0048,9.0048,9.0201,9.0583,9.0621,9.0621,9.0621,9.0621,9.0621,9.0621,9.0621,9.0621,9.0621,9.0621,9.0621,9.0621,9.0621,9.0621,9.0621,9.0621,9.0621,9.0621,9.1052,9.1319,9.1357,9.1778,9.216,9.2465,9.258,9.2945,9.3714,9.3986,9.4366,9.5208,9.5452,9.5675,9.6114,9.612,9.6203,9.6475,9.6899,9.724,9.7339,9.736,9.7402,9.741,9.7485,9.7496,9.7496,9.757,9.752,9.7457,9.7496,9.7531,9.7904,9.8705,9.8939,9.8895,9.8882,9.8878,8.1971,8.1921,8.1911,8.1892,8.1931,8.2164,8.2242,8.232,8.3097,8.3446,8.3563,8.4379,8.4418,8.3951,8.4495,8.4762,8.483,8.5541,8.5693,8.552,8.5899,8.5949,8.5686,8.5561,8.5511,8.5511,8.5511,8.5616,8.5807,8.5845,8.596,8.6275,8.6849,8.7144,8.7221,8.7804,8.8234,8.8415,8.8415,8.853,8.8721,8.8797,8.8683,8.8453,8.8415,8.853,8.8797,8.8797,8.9065,8.96,8.9676,8.9933,9.0544,9.0621,9.0621,9.0621,9.0621,9.0621,9.0621,9.0621,9.0621,9.0621,9.0621,9.0621,9.0621,9.0621,9.0621,9.0621,9.0774,9.0899,9.0621,9.0621,9.0697,9.0899,9.0937,9.0965,9.1308,9.1854,9.216,9.2198,9.2618,9.3229,9.3421,9.365,9.4108,9.4605,9.4758,9.4894,9.5544,9.5702,9.5776,9.5979,9.6069,9.6308,9.6689,9.6922,9.7073,9.7215,9.7255,9.7328,9.7351,9.7433,9.7461,9.7476,9.7613,9.7843,9.8004,9.7952,9.8181,9.8811,9.9459,9.9887,9.9668,9.9843,9.9829,8.1964,8.1921,8.1911,8.1931,8.197,8.2669,8.3024,8.3097,8.399,8.4335,8.4456,8.5272,8.5622,8.5544,8.5622,8.5622,8.5724,8.6361,8.6513,8.6268,8.6138,8.5949,8.5714,8.5561,8.5511,8.5511,8.5626,8.5998,8.6724,8.6724,8.7192,8.788,8.7995,8.8033,8.8071,8.8186,8.853,8.9179,8.9256,8.96,9.0315,9.043,9.0009,8.9332,8.9256,8.96,9.0287,9.043,9.0468,9.0506,9.0506,9.0544,9.0621,9.0621,9.0621,9.0621,9.0621,9.0621,9.0621,9.0621,9.0621,9.0621,9.0621,9.0621,9.0621,9.0621,9.0659,9.0621,9.1281,9.1395,9.0888,9.0888,9.109,9.1663,9.1739,9.2083,9.2847,9.2886,9.3038,9.3038,9.3229,9.365,9.4288,9.5025,9.5255,9.5446,9.5522,9.5533,9.5544,9.5621,9.5675,9.5772,9.587,9.603,9.6442,9.6638,9.6793,9.6909,9.7067,9.7271,9.7323,9.7368,9.7431,9.7648,9.8202,9.8592,9.869,9.9031,9.9493,9.9906,10.0018,10.0213,10.0509,10.0027,10.0094,8.1948,8.192,8.1902,8.2203,8.2674,8.2985,8.3408,8.399,8.4845,8.5233,8.5389,8.6132,8.652,8.6559,8.652,8.652,8.6549,8.6787,8.6723,8.6524,8.6254,8.6035,8.577,8.559,8.5511,8.5588,8.6074,8.6772,8.7575,8.7613,8.7766,8.811,8.8644,8.8874,8.895,8.9447,8.9867,9.0086,9.0124,9.0277,9.0506,9.0621,9.043,9.0162,9.0124,9.0277,9.0583,9.0621,9.0621,9.0621,9.0621,9.0621,9.0621,9.0621,9.0621,9.0621,9.0621,9.0621,9.0621,9.0621,9.0621,9.0621,9.0621,9.0621,9.0621,9.0621,9.0812,9.1281,9.1586,9.1816,9.2198,9.2198,9.2302,9.258,9.2656,9.2733,9.3115,9.3563,9.3945,9.4021,9.4338,9.4872,9.5025,9.5446,9.5598,9.5609,9.5609,9.5609,9.5609,9.5609,9.5621,9.5653,9.5708,9.5766,9.6009,9.6281,9.6519,9.6653,9.6831,9.7387,9.764,9.7986,9.815,9.8691,9.9201,9.943,9.9614,10.0045,10.055,10.0695,10.0773,10.105,10.1451,10.1062,10.1168,8.1967,8.1941,8.2203,8.2596,8.314,8.3723,8.4262,8.4884,8.5738,8.6127,8.6248,8.6753,8.7025,8.7025,8.7025,8.7025,8.6982,8.6925,8.6809,8.6636,8.6375,8.6088,8.587,8.5657,8.5694,8.6046,8.681,8.7651,8.8377,8.8492,8.8606,8.895,8.9485,8.9561,8.9485,8.9895,9.0086,8.9867,8.9791,8.9791,8.9791,8.978,8.9933,9.0124,9.0201,9.0315,9.0583,9.0621,9.0621,9.0621,9.0621,9.0621,9.0621,9.0621,9.0621,9.0621,9.0621,9.0621,9.0621,9.0621,9.0621,9.0621,9.0621,9.0659,9.0926,9.0975,9.1395,9.2007,9.2542,9.2924,9.3382,9.3726,9.3803,9.3612,9.3535,9.365,9.3879,9.4452,9.4758,9.4834,9.5178,9.5522,9.5609,9.5609,9.5609,9.5609,9.5609,9.5609,9.5609,9.5609,9.5609,9.5609,9.5609,9.5845,9.6182,9.6546,9.6779,9.6903,9.7123,9.7625,9.8213,9.8626,9.908,9.9674,10.0089,10.0317,10.0646,10.1073,10.1289,10.1394,10.16,10.1812,10.2028,10.2177,10.2022,8.2055,8.213,8.2791,8.3174,8.3529,8.4845,8.5622,8.5816,8.6559,8.687,8.687,8.6987,8.7025,8.7025,8.7025,8.7025,8.6977,8.6936,8.6838,8.6655,8.6409,8.6215,8.5987,8.5866,8.6288,8.6925,8.7689,8.8492,8.9141,8.9179,8.9523,9.0239,9.0162,8.9791,8.9245,8.9256,8.895,8.8568,8.8492,8.8387,8.8148,8.8492,8.8912,8.9409,8.9513,8.9857,9.0583,9.0621,9.0621,9.0621,9.0621,9.0621,9.0621,9.0621,9.0621,9.0621,9.0621,9.0621,9.0572,9.0572,9.0561,9.0589,9.061,9.0971,9.1457,9.1697,9.2127,9.2957,9.3683,9.4305,9.443,9.4927,9.5091,9.4567,9.4376,9.4681,9.5255,9.5533,9.5609,9.5522,9.5598,9.5609,9.5609,9.5609,9.5609,9.5609,9.5609,9.5609,9.5609,9.5609,9.5609,9.5724,9.5866,9.6156,9.6565,9.6931,9.7138,9.7344,9.7584,9.7984,9.8802,9.9309,9.974,10.0282,10.0856,10.1089,10.1429,10.1789,10.1861,10.201,10.2282,10.2282,10.2282,10.2282,10.2282,8.3688,8.3645,8.3874,8.434,8.4884,8.5505,8.601,8.6598,8.6909,8.6987,8.7025,8.7025,8.7025,8.7025,8.7025,8.7025,8.7025,8.6961,8.6877,8.6713,8.651,8.6277,8.6146,8.6383,8.7254,8.8349,8.8797,8.9027,8.9218,8.9284,8.9218,8.895,8.8912,8.8759,8.853,8.8492,8.853,8.8912,8.895,8.9179,8.9752,8.978,8.9944,9.0162,9.0211,9.0353,9.0583,9.0621,9.0621,9.0621,9.0621,9.0621,9.0583,9.0621,9.0621,9.0621,9.0621,9.0551,9.0487,9.0476,9.0443,9.0454,9.0851,9.127,9.1613,9.212,9.2806,9.3595,9.3976,9.4342,9.4983,9.5273,9.5345,9.5243,9.5216,9.5255,9.5522,9.5609,9.5609,9.5609,9.5609,9.5609,9.5609,9.5609,9.5609,9.5609,9.5609,9.5609,9.5637,9.5713,9.5904,9.6324,9.6477,9.6783,9.7394,9.7853,9.803,9.8172,9.8362,9.8663,9.9423,9.9997,10.0403,10.0835,10.1414,10.1794,10.2136,10.2276,10.227,10.2315,10.2315,10.2321,10.2282,10.236,10.2515,8.4466,8.4456,8.4767,8.5195,8.5738,8.601,8.6477,8.6987,8.7025,8.7025,8.7025,8.7025,8.7025,8.7025,8.7025,8.7025,8.7025,8.7025,8.7114,8.7212,8.7075,8.6822,8.6756,8.753,8.8116,8.8802,8.9241,8.9182,8.8874,8.8835,8.8568,8.8196,8.811,8.811,8.811,8.811,8.8377,8.8797,8.8835,8.9103,8.9561,8.9676,8.9818,9.0048,9.0082,9.0213,9.0491,9.0487,9.0508,9.0572,9.0621,9.0572,9.053,9.053,9.0508,9.0465,9.0465,9.0433,9.0328,9.0317,9.0295,9.0342,9.1004,9.1663,9.1994,9.2679,9.3555,9.4278,9.448,9.4694,9.521,9.5298,9.5345,9.5414,9.5516,9.5598,9.5609,9.5609,9.5609,9.5609,9.5609,9.5609,9.5609,9.5609,9.5609,9.5609,9.5609,9.5828,9.5942,9.6095,9.6592,9.705,9.728,9.7776,9.8426,9.8732,9.8961,9.909,9.925,9.9616,10.0153,10.0553,10.0954,10.1346,10.1845,10.1886,10.2197,10.2222,10.224,10.2252,10.233,10.2321,10.236,10.2787,10.2987,8.4622,8.4651,8.5428,8.5777,8.5933,8.6598,8.6948,8.6987,8.7025,8.7025,8.7025,8.7025,8.7025,8.7025,8.7025,8.7025,8.7025,8.7025,8.7428,8.7852,8.7891,8.7697,8.7757,8.8599,8.8778,8.8461,8.8987,8.8822,8.8081,8.8196,8.8071,8.7918,8.7995,8.811,8.811,8.811,8.8186,8.8356,8.829,8.8356,8.8537,8.8461,8.8766,8.9433,8.9424,8.9686,9.0247,9.0295,9.0328,9.053,9.054,9.0497,9.0405,9.0383,9.034,9.025,9.0216,9.0216,9.0205,9.0194,9.0258,9.0426,9.1137,9.1868,9.2658,9.3483,9.4244,9.4891,9.5017,9.5105,9.5167,9.5179,9.5191,9.5253,9.5429,9.5543,9.5587,9.5587,9.5576,9.5598,9.5609,9.5609,9.5609,9.5609,9.5609,9.5637,9.5713,9.6133,9.6554,9.6859,9.7356,9.7776,9.8158,9.8655,9.9266,9.9458,9.9649,9.9748,9.9866,10.0153,10.0554,10.0885,10.1226,10.1639,10.1927,10.1986,10.2043,10.2085,10.2294,10.2501,10.2462,10.2369,10.273,10.3333,10.3611,8.634,8.6326,8.6559,8.6676,8.6676,8.6948,8.7025,8.7025,8.7025,8.7025,8.7025,8.7025,8.7025,8.7025,8.7025,8.7025,8.7025,8.7025,8.7448,8.815,8.8123,8.82,8.8279,8.8552,8.8606,8.8318,8.8499,8.8057,8.7269,8.7842,8.7804,8.7192,8.7822,8.8099,8.811,8.8137,8.8374,8.8797,8.8824,8.9125,8.9517,8.9593,8.9735,8.9876,8.9892,8.9984,9.0224,9.0228,9.0228,9.0284,9.0295,9.0295,9.0262,9.0262,9.0239,9.0205,9.0194,9.0159,9.009,9.0105,9.0298,9.086,9.1631,9.2441,9.3314,9.4111,9.4642,9.4908,9.4908,9.4958,9.5021,9.5045,9.5082,9.5179,9.5251,9.5321,9.544,9.5463,9.5498,9.5587,9.5598,9.5598,9.5587,9.5598,9.5637,9.5751,9.6095,9.6668,9.7127,9.7623,9.8082,9.8693,9.9152,9.9572,9.9954,10.0183,10.0336,10.0375,10.0421,10.0428,10.0722,10.0914,10.1183,10.1484,10.1599,10.1683,10.1803,10.1874,10.2213,10.2729,10.2934,10.3008,10.3768,10.4402,10.4428,8.6991,8.7025,8.7025,8.7025,8.7025,8.7025,8.7025,8.7025,8.7025,8.7025,8.7025,8.7025,8.7025,8.7025,8.7025,8.7025,8.7025,8.737,8.8031,8.8821,8.9469,8.9374,8.8982,8.8871,8.8776,8.8376,8.8634,8.825,8.7585,8.7839,8.7694,8.7482,8.7718,8.8078,8.8525,8.8498,8.8858,8.9441,8.9582,8.9816,9.0178,9.0205,9.0216,9.0194,9.0171,9.0113,9.0067,9.0055,9.0102,9.0182,9.0205,9.0156,9.0137,9.0137,9.0075,9.0029,9.0017,8.997,8.9999,9.0202,9.0634,9.1217,9.2115,9.2986,9.3631,9.4313,9.4806,9.4806,9.4806,9.4844,9.4895,9.4921,9.4958,9.5008,9.5021,9.5107,9.5263,9.5324,9.5359,9.5429,9.5486,9.552,9.5531,9.5565,9.5789,9.6095,9.6554,9.7241,9.7891,9.8349,9.8846,9.9458,9.9801,10.0107,10.0222,10.0413,10.0451,10.0566,10.0604,10.065,10.0753,10.0919,10.1039,10.1221,10.1308,10.147,10.1763,10.2113,10.2637,10.3082,10.3388,10.3808,10.4373,10.5053,10.5136,8.7025,8.7025,8.7025,8.7025,8.7025,8.7025,8.7025,8.7025,8.7025,8.7025,8.7025,8.7025,8.7025,8.7025,8.7025,8.7025,8.7064,8.7797,8.8637,8.9554,9.0357,9.0457,8.9031,8.9508,8.9211,8.8586,8.9151,8.8787,8.8158,8.7985,8.8057,8.8101,8.8053,8.8427,8.9021,8.9162,8.952,8.9965,9.0042,9.0007,9.0098,9.0125,9.0087,9.0113,9.0017,8.9923,8.9851,8.9827,8.9899,9.0159,9.0171,9.0102,8.997,8.997,8.9923,8.9839,8.9827,8.9814,8.9954,9.0535,9.1129,9.1496,9.2759,9.3669,9.3896,9.4465,9.4806,9.4806,9.4806,9.4806,9.4819,9.4819,9.4832,9.4844,9.4832,9.4933,9.5082,9.5155,9.5167,9.5191,9.5298,9.5371,9.5417,9.5612,9.5996,9.6497,9.7093,9.8044,9.8693,9.919,9.9687,10.0183,10.0413,10.0489,10.0566,10.0566,10.0566,10.0604,10.0604,10.0627,10.0685,10.0809,10.0848,10.1004,10.1318,10.1726,10.2132,10.2568,10.3069,10.3637,10.4068,10.4304,10.4567,10.534,10.5669,8.6996,8.7025,8.7025,8.7025,8.7025,8.7025,8.7025,8.7025,8.7025,8.7025,8.7025,8.7025,8.7025,8.7025,8.7025,8.7025,8.722,8.8025,8.8688,8.9397,9.0288,9.0077,8.9301,8.9775,8.9435,8.8747,8.8576,8.8461,8.819,8.8629,8.8842,8.883,8.9204,8.971,8.9813,8.979,8.992,9.0041,9.0067,8.9982,8.9911,8.9899,8.9899,8.9887,8.9863,8.9827,8.9802,8.979,8.9814,8.9863,8.9913,8.9887,8.9851,8.9839,8.9827,8.9802,8.979,8.979,8.9942,9.0624,9.1382,9.2014,9.2961,9.3858,9.4503,9.4629,9.4793,9.4806,9.4806,9.478,9.478,9.4793,9.4793,9.4793,9.4806,9.4819,9.4895,9.4983,9.507,9.5155,9.5203,9.5265,9.5303,9.6031,9.6482,9.6887,9.7784,9.8835,9.9419,9.9916,10.026,10.0604,10.0604,10.0604,10.0604,10.0604,10.0604,10.0604,10.0604,10.0833,10.088,10.0903,10.1021,10.1246,10.1487,10.1986,10.2649,10.3027,10.3594,10.4156,10.4728,10.4992,10.5312,10.5862,10.611,8.7025,8.7025,8.7025,8.7025,8.7025,8.7025,8.7025,8.7025,8.7025,8.7025,8.7025,8.7025,8.7025,8.7025,8.7025,8.7181,8.7875,8.8924,8.9887,9.0534,9.1024,9.0756,9.0296,9.0315,9.0042,8.917,8.9401,8.931,8.9265,8.9365,8.9543,8.9467,8.9839,8.9868,9.0032,9.0006,8.9958,8.9911,8.9899,8.9851,8.9802,8.979,8.979,8.979,8.979,8.979,8.979,8.979,8.979,8.979,8.9778,8.979,8.979,8.979,8.979,8.979,8.979,8.979,9.0017,9.0927,9.1812,9.2203,9.3339,9.4044,9.451,9.4597,9.4597,9.4597,9.4597,9.461,9.4689,9.4689,9.4715,9.4793,9.4793,9.4806,9.4806,9.487,9.4933,9.5008,9.5058,9.5348,9.5752,9.6331,9.7265,9.7808,9.8225,9.925,9.9916,10.0336,10.0413,10.0604,10.0604,10.0604,10.0604,10.0604,10.0604,10.0604,10.0604,10.0986,10.1341,10.1303,10.1265,10.1606,10.2035,10.2788,10.3443,10.3772,10.4178,10.4848,10.5376,10.5673,10.5865,10.5934,10.6067,8.7025,8.7025,8.7025,8.7025,8.7025,8.7025,8.7025,8.7025,8.7025,8.7025,8.7025,8.7025,8.7025,8.7025,8.7025,8.7525,8.8652,8.989,9.0946,9.1632,9.1644,9.1445,9.1215,9.0988,9.0662,8.9909,9.0233,9.0406,9.0231,9.0262,8.9958,8.997,8.9863,8.9839,8.9802,8.979,8.9814,8.9814,8.9814,8.9802,8.979,8.979,8.979,8.979,8.979,8.979,8.9778,8.9766,8.9741,8.9753,8.9741,8.9729,8.9741,8.9778,8.9766,8.9766,8.9741,8.9868,9.0247,9.1282,9.2165,9.225,9.3636,9.4376,9.4421,9.4445,9.4445,9.4431,9.4445,9.4486,9.4567,9.4581,9.461,9.4676,9.4728,9.4741,9.4767,9.4767,9.478,9.4844,9.4959,9.5224,9.592,9.6603,9.7715,9.8689,9.9107,9.9536,10.0166,10.0569,10.0545,10.058,10.0569,10.0592,10.0604,10.0604,10.0604,10.0757,10.0718,10.1253,10.1853,10.2311,10.2438,10.2361,10.2805,10.3532,10.4105,10.4408,10.4917,10.5557,10.572,10.5774,10.5821,10.5909,10.6023,8.7025,8.7025,8.7025,8.7025,8.7025,8.7025,8.7025,8.7025,8.7025,8.7025,8.7025,8.7025,8.7025,8.702,8.7025,8.7836,8.9147,9.0423,9.1273,9.1835,9.1812,9.1663,9.1344,9.1115,9.079,9.0636,9.0641,9.0485,9.0317,9.0205,9.0041,8.9875,8.9802,8.979,8.979,8.979,8.9766,8.9753,8.9753,8.9741,8.9741,8.9741,8.9741,8.9741,8.9741,8.9753,8.9741,8.9679,8.9616,8.9642,8.9502,8.9501,8.9515,8.9667,8.9704,8.9642,8.9616,8.9818,9.0497,9.1365,9.2283,9.3011,9.3865,9.4356,9.439,9.4376,9.4349,9.4362,9.4376,9.4404,9.4431,9.4431,9.4445,9.4486,9.4476,9.4516,9.4583,9.4623,9.4701,9.4754,9.4882,9.5262,9.616,9.7047,9.8022,9.8947,9.9454,9.9732,10.0149,10.0413,10.0438,10.0486,10.0533,10.0569,10.0604,10.0604,10.0642,10.0948,10.1177,10.1712,10.2438,10.3431,10.3737,10.3584,10.366,10.4195,10.4692,10.5036,10.5303,10.5647,10.571,10.5722,10.5771,10.583,10.5842,8.7025,8.7025,8.7025,8.7025,8.7025,8.7025,8.7025,8.7025,8.7025,8.7025,8.7025,8.7025,8.6967,8.6946,8.6941,8.7857,8.9355,9.0891,9.1527,9.1844,9.1786,9.1627,9.1308,9.1026,9.08,9.062,9.0485,9.0367,9.0216,9.0137,8.997,8.9839,8.979,8.979,8.9766,8.9716,8.9692,8.9667,8.9629,8.9591,8.9579,8.9591,8.9579,8.9579,8.9579,8.9616,8.9566,8.9528,8.9476,8.9501,8.9412,8.9386,8.9412,8.9464,8.9553,8.9489,8.9514,8.9879,9.0644,9.1461,9.2226,9.2974,9.384,9.4213,9.4208,9.4203,9.4194,9.4194,9.418,9.4208,9.4279,9.4293,9.4321,9.439,9.439,9.4431,9.4486,9.45,9.4594,9.4776,9.531,9.5879,9.6701,9.7563,9.8412,9.9123,9.9771,10.0012,10.0152,10.0215,10.0315,10.0365,10.0438,10.0498,10.0571,10.0721,10.0874,10.1142,10.175,10.2323,10.3011,10.3966,10.4539,10.4692,10.4883,10.4921,10.5151,10.5418,10.5609,10.5686,10.5698,10.5698,10.5686,10.5698,10.5734,8.6982,8.6967,8.6972,8.6967,8.6972,8.6972,8.7005,8.6972,8.6967,8.6956,8.6951,8.6946,8.692,8.7004,8.742,8.8173,8.9484,9.1133,9.1816,9.1812,9.1759,9.1605,9.1278,9.1008,9.0761,9.0538,9.0323,9.0167,9.011,9.0079,8.9949,8.9778,8.9741,8.9729,8.9717,8.9616,8.9591,8.954,8.9475,8.9386,8.9373,8.9373,8.9373,8.9373,8.9373,8.9423,8.9412,8.9359,8.9384,8.9333,8.9294,8.9318,8.9318,8.9331,8.9331,8.9331,8.9358,8.9899,9.0764,9.1353,9.2189,9.3196,9.376,9.399,9.4059,9.4059,9.403,9.4,9.4015,9.4059,9.416,9.4174,9.4194,9.425,9.4293,9.4321,9.4349,9.4376,9.4431,9.4856,9.5658,9.6382,9.7052,9.7863,9.865,9.9246,9.9843,9.9894,10.0036,10.0126,10.019,10.0215,10.0277,10.0363,10.0564,10.0891,10.1132,10.1476,10.2364,10.3164,10.3813,10.4539,10.4947,10.5291,10.5418,10.5418,10.5647,10.5686,10.5686,10.5686,10.5686,10.5686,10.5686,10.5686,10.5698,8.6956,8.6909,8.6909,8.6909,8.6909,8.6909,8.6909,8.6909,8.6909,8.6877,8.6843,8.6832,8.6832,8.7086,8.836,8.9019,8.9788,9.1029,9.185,9.1773,9.1757,9.1568,9.1308,9.1071,9.08,9.0538,9.029,9.0159,9.0079,8.9994,8.9851,8.9679,8.9629,8.9604,8.9527,8.9462,8.9436,8.9436,8.9373,8.9359,8.9359,8.9346,8.9346,8.9346,8.9346,8.9333,8.9307,8.9278,8.9238,8.9224,8.9116,8.9061,8.9047,8.9047,8.9047,8.9088,8.9294,8.9875,9.1071,9.1508,9.2298,9.3345,9.3969,9.4015,9.4,9.4,9.4,9.4,9.4,9.4015,9.4044,9.4044,9.4044,9.4073,9.4117,9.4137,9.418,9.4222,9.4279,9.4853,9.5657,9.645,9.7188,9.805,9.8862,9.9393,9.9823,9.985,9.989,9.9983,10.0088,10.0114,10.0165,10.0227,10.0543,10.0859,10.1455,10.1811,10.2814,10.3829,10.4428,10.4912,10.5279,10.5572,10.5661,10.5673,10.5686,10.5686,10.5686,10.5686,10.5686,10.5686,10.5686,10.5686,10.5686,8.6871,8.6843,8.6849,8.6843,8.6849,8.6849,8.6843,8.6849,8.6843,8.6832,8.6809,8.6803,8.6785,8.7104,8.85,8.9217,8.9611,9.1076,9.1792,9.1739,9.1716,9.1554,9.1278,9.1071,9.0829,9.0548,9.0301,9.011,9.0006,8.9887,8.9766,8.9616,8.9579,8.9528,8.9384,8.9294,8.928,8.9278,8.9238,8.9184,8.9184,8.9184,8.9184,8.9184,8.9184,8.9197,8.917,8.9143,8.9102,8.9088,8.9019,8.8992,8.8992,8.8992,8.8992,8.9006,8.9061,8.985,9.1198,9.1447,9.2461,9.3512,9.4,9.4,9.4,9.4,9.4,9.4,9.4,9.4,9.4,9.4,9.4,9.4,9.4,9.403,9.405,9.405,9.4258,9.4961,9.5649,9.6408,9.7303,9.8341,9.9029,9.9466,9.9783,9.981,9.9823,9.9864,9.997,10.0075,10.0062,10.0101,10.0482,10.09,10.1776,10.2322,10.3135,10.41,10.4723,10.5244,10.546,10.5599,10.5624,10.5649,10.5661,10.5686,10.5686,10.5686,10.5686,10.5686,10.5686,10.5686,10.5686,8.6755,8.6755,8.6773,8.6779,8.6779,8.6779,8.6779,8.6779,8.6779,8.6773,8.6761,8.6749,8.6725,8.7075,8.8345,8.9222,8.9331,9.0997,9.1603,9.173,9.1687,9.1554,9.1327,9.1124,9.0905,9.0558,9.0383,9.0156,8.9982,8.9864,8.9704,8.9566,8.9464,8.9386,8.928,8.9211,8.9157,8.9157,8.9075,8.9033,8.9019,8.9019,8.9006,8.9006,8.8992,8.8992,8.8992,8.9006,8.9006,8.9006,8.9006,8.8992,8.8992,8.8992,8.8992,8.8992,8.9019,8.9808,9.0958,9.1634,9.2461,9.3362,9.4,9.4,9.4,9.4,9.4,9.4,9.4,9.4,9.4,9.4,9.4,9.4,9.4,9.4,9.4,9.403,9.4119,9.4591,9.5355,9.6354,9.7313,9.856,9.9292,9.9611,9.9742,9.9755,9.9769,9.9783,9.985,9.997,9.997,10.011,10.0695,10.1216,10.199,10.2789,10.364,10.4288,10.4898,10.5204,10.537,10.5485,10.5536,10.5524,10.5447,10.5587,10.5686,10.5686,10.5686,10.5686,10.5686,10.5686,10.5686,8.6616,8.6623,8.6694,8.668,8.668,8.6719,8.6719,8.668,8.6719,8.6687,8.6642,8.6629,8.6636,8.7042,8.8286,8.9201,8.9285,9.0949,9.1529,9.1716,9.1694,9.1568,9.143,9.1245,9.1053,9.0711,9.0513,9.0246,8.9994,8.9816,8.9616,8.9399,8.9333,8.916,8.9102,8.9075,8.9047,8.9047,8.9006,8.8992,8.8992,8.8992,8.8992,8.8992,8.8992,8.8992,8.8992,8.8992,8.8992,8.8992,8.8992,8.8992,8.8992,8.8992,8.8992,8.8992,8.8992,8.9855,9.1033,9.1597,9.2423,9.3399,9.4,9.4,9.4,9.4,9.4,9.4,9.4,9.4,9.4,9.4,9.4,9.4,9.4,9.4,9.4,9.4,9.4128,9.4353,9.5149,9.6237,9.7132,9.8304,9.9173,9.9533,9.9645,9.9673,9.9742,9.9755,9.9783,9.9837,9.9837,10.0178,10.0988,10.1649,10.2351,10.3203,10.4052,10.4562,10.5072,10.5226,10.5253,10.5279,10.5318,10.5254,10.5267,10.5422,10.5574,10.5649,10.5686,10.5686,10.5686,10.5686,10.5686,8.6603,8.661,8.6636,8.661,8.6649,8.6649,8.6649,8.661,8.6649,8.6636,8.6603,8.6603,8.6603,8.7074,8.8312,8.9201,8.9433,9.0942,9.1522,9.1694,9.162,9.1568,9.1477,9.1366,9.1189,9.0972,9.0729,9.0481,9.025,8.9887,8.9629,8.9449,8.9254,8.9105,8.9047,8.8992,8.8992,8.8992,8.8992,8.8992,8.8992,8.8992,8.8992,8.8992,8.8992,8.8992,8.8992,8.8992,8.8992,8.8992,8.8992,8.8992,8.8992,8.8992,8.8992,8.8992,8.8992,8.9893,9.1146,9.1634,9.2273,9.355,9.4,9.4,9.4,9.4,9.4,9.4,9.4,9.4,9.4,9.4,9.4,9.4,9.4,9.4,9.4,9.4,9.4188,9.4413,9.5315,9.6344,9.7163,9.7982,9.8756,9.9413,9.9528,9.9627,9.9683,9.9738,9.9728,9.9742,9.9755,10.0313,10.1123,10.1898,10.2698,10.356,10.4475,10.4744,10.5013,10.5054,10.5067,10.5094,10.5121,10.5148,10.5201,10.5318,10.5409,10.5485,10.5611,10.5686,10.5686,10.5649,10.5649,8.6603,8.6603,8.6603,8.6603,8.6603,8.6603,8.6603,8.6603,8.661,8.6603,8.6603,8.6603,8.6603,8.7074,8.8389,8.9163,8.9665,9.0826,9.1484,9.1694,9.1673,9.1622,9.1562,9.1477,9.1317,9.1154,9.0953,9.0661,9.0389,9.0029,8.9766,8.9528,8.9294,8.9157,8.9033,8.8992,8.8992,8.8992,8.8992,8.8992,8.8992,8.8992,8.8992,8.8992,8.8992,8.8992,8.8992,8.8992,8.8992,8.8992,8.8992,8.8992,8.8992,8.8992,8.8992,8.8992,8.9179,8.9794,9.1071,9.216,9.2723,9.3813,9.4,9.4,9.4,9.4,9.4,9.4,9.4,9.4,9.4,9.4,9.4,9.4,9.4,9.4,9.4,9.4,9.4263,9.4564,9.5525,9.6524,9.7328,9.8124,9.8659,9.9267,9.9413,9.95,9.9528,9.9599,9.9655,9.9697,9.9725,10.0461,10.1298,10.197,10.2681,10.3908,10.4605,10.4704,10.4898,10.4902,10.493,10.493,10.5023,10.5054,10.5094,10.5121,10.5253,10.5357,10.5435,10.5511,10.5473,10.5447,10.5549,8.6603,8.6603,8.6603,8.6603,8.6603,8.6603,8.6603,8.6603,8.6603,8.6603,8.6603,8.6603,8.6603,8.699,8.8428,8.9124,8.9588,9.0903,9.1716,9.1709,9.1702,9.1659,9.1622,9.1554,9.1445,9.1206,9.1037,9.081,9.0538,9.0224,8.997,8.9679,8.9436,8.9143,8.9006,8.8992,8.8992,8.8992,8.8992,8.8992,8.8992,8.8992,8.8992,8.8992,8.8992,8.8992,8.8992,8.8992,8.8992,8.8992,8.8992,8.8992,8.8992,8.8992,8.8992,8.8992,8.8992,8.9818,9.1334,9.2949,9.3737,9.3925,9.4,9.4,9.4,9.4,9.4,9.4,9.4,9.4,9.4,9.4,9.4,9.4,9.4,9.4,9.4,9.4301,9.4564,9.4924,9.5826,9.6749,9.759,9.8319,9.8734,9.9133,9.9297,9.937,9.9399,9.9471,9.9542,9.9571,9.9651,10.0549,10.1324,10.1901,10.2739,10.4041,10.4723,10.4776,10.4814,10.4856,10.4856,10.4828,10.487,10.4954,10.4916,10.4902,10.5051,10.5159,10.5215,10.5267,10.5228,10.5292,10.537,8.6603,8.6603,8.6603,8.6603,8.6603,8.6603,8.6603,8.6603,8.6603,8.6603,8.6603,8.6603,8.6603,8.7151,8.8234,8.9169,8.9511,9.0903,9.1716,9.1716,9.1716,9.1702,9.1666,9.1615,9.1493,9.135,9.1159,9.1018,9.0769,9.0453,9.0178,8.9899,8.9489,8.917,8.9033,8.8992,8.8992,8.8992,8.8992,8.8992,8.8992,8.8992,8.8992,8.8992,8.8992,8.8992,8.8992,8.8992,8.8992,8.8992,8.8992,8.8992,8.8992,8.8992,8.8992,8.8992,8.9029,8.978,9.1409,9.2911,9.3888,9.4,9.4,9.4,9.4,9.4,9.4,9.4,9.4,9.4,9.4,9.4,9.4,9.4,9.4,9.4,9.4113,9.4639,9.5037,9.5488,9.6201,9.7328,9.8266,9.8492,9.8838,9.8997,9.9148,9.9156,9.9223,9.9341,9.9442,9.9442,9.966,10.0543,10.1356,10.2024,10.29,10.4149,10.469,10.4814,10.4814,10.4756,10.4785,10.4785,10.4799,10.4814,10.4842,10.4832,10.4846,10.4916,10.504,10.5135,10.5148,10.5175,10.5241,8.6603,8.6603,8.6603,8.6603,8.6603,8.6603,8.6603,8.6603,8.6603,8.6603,8.6603,8.6603,8.6603,8.7028,8.7963,8.9053,8.9317,9.0555,9.16,9.1638,9.1716,9.1709,9.1694,9.1659,9.1561,9.1454,9.1333,9.1171,9.101,9.0741,9.04,8.9982,8.9604,8.932,8.9133,8.9047,8.8992,8.8992,8.8992,8.8992,8.8992,8.8992,8.8992,8.8992,8.8992,8.8992,8.8992,8.8992,8.8992,8.8992,8.8992,8.8992,8.8992,8.8992,8.8992,8.8992,8.9743,9.0395,9.1597,9.3061,9.385,9.4,9.4,9.4,9.4,9.4,9.4,9.4,9.4,9.4,9.4,9.4,9.4,9.4,9.4,9.4,9.4226,9.4737,9.545,9.5938,9.6727,9.7853,9.8701,9.8776,9.8905,9.8951,9.8997,9.9027,9.9035,9.9178,9.932,9.9334,9.9703,10.0638,10.1475,10.2243,10.3193,10.4304,10.4582,10.4684,10.4626,10.4553,10.4641,10.4713,10.4713,10.4713,10.4785,10.4828,10.4842,10.487,10.4902,10.4985,10.504,10.5067,10.5094,8.6603,8.6603,8.6603,8.6603,8.6603,8.6603,8.6603,8.6603,8.6603,8.6603,8.6603,8.6603,8.6603,8.6758,8.757,8.8428,8.9247,9.013,9.0942,9.1522,9.1716,9.1716,9.1716,9.1702,9.1644,9.1546,9.1454,9.1325,9.1201,9.0925,9.0555,9.0133,8.9863,8.9579,8.9333,8.9143,8.9047,8.9006,8.8992,8.8992,8.8992,8.8992,8.8992,8.8992,8.8992,8.8992,8.8992,8.8992,8.8992,8.8992,8.8992,8.8992,8.8992,8.8992,8.8992,8.9367,9.047,9.1019,9.1658,9.3024,9.3775,9.3963,9.4,9.4,9.4,9.4,9.4,9.4,9.4,9.4,9.4,9.4,9.4,9.4,9.4,9.4113,9.4301,9.4887,9.5675,9.6426,9.729,9.8154,9.8701,9.8889,9.8889,9.8905,9.8935,9.8935,9.8966,9.8966,9.9095,9.9246,9.9766,10.0677,10.1529,10.2305,10.318,10.4176,10.4335,10.4448,10.435,10.435,10.4478,10.4553,10.4582,10.4626,10.4699,10.4771,10.4814,10.4842,10.4846,10.486,10.4954,10.4888,10.4902,8.6603,8.6603,8.6603,8.6603,8.6603,8.6603,8.6603,8.6603,8.6603,8.6603,8.6603,8.6603,8.6603,8.668,8.7531,8.835,8.9201,9.0052,9.0903,9.1406,9.1716,9.1716,9.1716,9.1709,9.1666,9.1615,9.1554,9.1438,9.1249,9.1028,9.0769,9.04,9.011,8.9851,8.9591,8.9294,8.917,8.9033,8.9019,8.8992,8.8992,8.8992,8.8992,8.8992,8.8992,8.8992,8.8992,8.8992,8.8992,8.8992,8.8992,8.8992,8.8992,8.8992,8.8992,8.9104,9.0005,9.0794,9.1507,9.2484,9.3347,9.3888,9.4,9.4,9.4,9.4,9.4,9.4,9.4,9.4,9.4,9.4,9.4,9.4,9.4113,9.4413,9.4699,9.5525,9.6314,9.7177,9.8003,9.8341,9.8852,9.8889,9.8889,9.8889,9.8889,9.8889,9.8889,9.8889,9.8942,9.9072,9.9892,10.0841,10.1533,10.2295,10.3132,10.3932,10.4091,10.4251,10.4228,10.4244,10.4343,10.4388,10.4463,10.4538,10.4611,10.467,10.4699,10.4785,10.4814,10.4814,10.4799,10.4799,10.4799,8.6603,8.6603,8.6603,8.6603,8.6603,8.6603,8.6603,8.6603,8.6603,8.6603,8.6603,8.6603,8.6603,8.6642,8.7183,8.8002,8.9208,8.9665,9.0478,9.1522,9.1716,9.1716,9.1716,9.1709,9.1687,9.1651,9.1607,9.1547,9.135,9.1145,9.0896,9.0701,9.034,9.0144,8.9911,8.9629,8.9384,8.9211,8.9075,8.9019,8.8992,8.8992,8.8992,8.8992,8.8992,8.8992,8.8992,8.8992,8.8992,8.8992,8.8992,8.8992,8.8992,8.8992,8.8992,8.9142,8.9818,9.0681,9.1432,9.2258,9.3122,9.3737,9.4,9.4,9.4,9.4,9.4,9.4,9.4,9.4,9.4,9.4,9.4,9.4,9.4338,9.4699,9.545,9.6276,9.714,9.7966,9.8492,9.8739,9.8889,9.8889,9.8889,9.8889,9.8889,9.8889,9.8889,9.8889,9.8889,9.8973,9.995,10.0964,10.1634,10.2304,10.3201,10.385,10.3887,10.4026,10.4089,10.4089,10.4089,10.422,10.4358,10.4418,10.4478,10.4523,10.4567,10.4641,10.4655,10.4611,10.4641,10.4742,10.4756,8.6603,8.6603,8.6603,8.6603,8.6603,8.6603,8.6603,8.6603,8.6603,8.6603,8.6603,8.6603,8.6603,8.6642,8.6835,8.7647,8.8621,8.9279,9.013,9.16,9.1677,9.1716,9.1716,9.1709,9.1702,9.1687,9.1651,9.16,9.1531,9.1317,9.1127,9.0989,9.0721,9.0464,9.0235,8.9947,8.9692,8.9514,8.9251,8.9075,8.9006,8.8992,8.8992,8.8992,8.8992,8.8992,8.8992,8.8992,8.8992,8.8992,8.8992,8.8992,8.8992,8.8992,8.8992,8.9104,8.963,9.0494,9.1282,9.2071,9.2972,9.3625,9.4,9.4,9.4,9.4,9.4,9.4,9.4,9.4,9.4,9.4038,9.4075,9.4338,9.4737,9.5337,9.6163,9.7027,9.7891,9.8529,9.8664,9.8889,9.8889,9.8889,9.8889,9.8889,9.8889,9.8889,9.8889,9.8889,9.8889,9.8964,10.0128,10.112,10.1646,10.2391,10.3352,10.3818,10.3835,10.3835,10.3915,10.3899,10.3888,10.4032,10.4189,10.4251,10.4312,10.4373,10.4418,10.4418,10.4418,10.4358,10.4433,10.4582,10.4684,8.6603,8.6603,8.6603,8.6603,8.6603,8.6603,8.6603,8.6603,8.6603,8.6603,8.6603,8.6603,8.6603,8.6603,8.6603,8.7299,8.8157,8.9008,8.982,9.0787,9.1367,9.1677,9.1716,9.1716,9.1716,9.1709,9.1687,9.1651,9.1585,9.1422,9.1292,9.1145,9.0915,9.0741,9.0548,9.0279,9.0006,8.9814,8.9502,8.9238,8.9061,8.9006,8.8992,8.8992,8.8992,8.8992,8.8992,8.8992,8.8992,8.8992,8.8992,8.8992,8.8992,8.8992,8.8992,8.9029,8.9254,9.0156,9.1132,9.186,9.2611,9.355,9.4,9.4,9.4,9.4,9.4,9.4,9.4,9.4,9.4038,9.4113,9.4263,9.4662,9.5225,9.6088,9.6914,9.7741,9.8604,9.8776,9.8889,9.8889,9.8889,9.8889,9.8889,9.8889,9.8889,9.8889,9.8889,9.8889,9.8889,9.9189,10.0391,10.1308,10.1758,10.2397,10.3298,10.3748,10.3802,10.3786,10.3786,10.3786,10.3818,10.3888,10.4,10.4079,10.4173,10.4266,10.4281,10.4251,10.4235,10.4204,10.4235,10.4373,10.4493,8.6603,8.6603,8.6603,8.6603,8.6603,8.6603,8.6603,8.6603,8.6603,8.6603,8.6603,8.6603,8.6603,8.6603,8.6603,8.7028,8.7918,8.8814,8.9665,9.0478,9.1135,9.16,9.1716,9.1716,9.1716,9.1716,9.1716,9.168,9.1637,9.1531,9.1422,9.1317,9.1198,9.1028,9.0867,9.0579,9.0312,9.0106,8.9814,8.9502,8.9211,8.9088,8.9006,8.8992,8.8992,8.8992,8.8992,8.8992,8.8992,8.8992,8.8992,8.8992,8.8992,8.8992,8.8992,8.8992,8.9217,8.9757,9.0921,9.1709,9.231,9.3399,9.4,9.4,9.4,9.4,9.4,9.4,9.4,9.4,9.4188,9.4301,9.4624,9.5037,9.6088,9.714,9.7741,9.8416,9.8814,9.8852,9.8889,9.8889,9.8889,9.8889,9.8889,9.8889,9.8889,9.8889,9.8889,9.8889,9.8889,9.9114,10.0203,10.1082,10.1533,10.2246,10.3148,10.3486,10.3786,10.3786,10.3786,10.3786,10.3802,10.3872,10.3888,10.392,10.4016,10.4111,10.4079,10.4032,10.3994,10.4026,10.4111,10.4142,10.422,8.6576,8.6576,8.6576,8.6583,8.659,8.659,8.6596,8.6603,8.6603,8.6603,8.6603,8.6603,8.6603,8.6603,8.6642,8.7144,8.7725,8.8428,8.9356,9.0207,9.1019,9.1445,9.1638,9.1716,9.1716,9.1716,9.1716,9.1716,9.1694,9.1637,9.1592,9.1554,9.1421,9.1245,9.1109,9.0934,9.0651,9.0421,9.0106,8.9839,8.9515,8.916,8.9075,8.9006,8.8992,8.8992,8.8992,8.8992,8.8992,8.8992,8.8992,8.8992,8.8992,8.8992,8.8992,8.8992,8.8992,8.993,9.1033,9.1522,9.2536,9.3475,9.3813,9.4,9.4,9.4,9.4,9.4,9.4,9.4151,9.4376,9.4662,9.4999,9.5788,9.699,9.7966,9.8454,9.8889,9.8889,9.8889,9.8889,9.8889,9.8889,9.8889,9.8889,9.8889,9.8889,9.8889,9.8889,9.8889,9.8889,9.9002,9.9527,10.0369,10.1233,10.2096,10.2997,10.3523,10.3786,10.3786,10.3786,10.3786,10.3786,10.3786,10.3802,10.3856,10.3856,10.3867,10.3872,10.3818,10.3851,10.3915,10.3899,10.3968,10.3968,8.6467,8.6428,8.6428,8.6464,8.6514,8.6521,8.6556,8.6603,8.6603,8.6603,8.6596,8.6603,8.6603,8.6603,8.6603,8.6835,8.7106,8.7886,8.866,8.944,9.04,9.1058,9.1484,9.1638,9.1677,9.1716,9.1716,9.1716,9.1716,9.1694,9.1659,9.1592,9.1585,9.1445,9.1266,9.1109,9.0953,9.0691,9.0421,9.0121,8.9802,8.9464,8.9143,8.9047,8.8992,8.8992,8.8992,8.8992,8.8992,8.8992,8.8992,8.8992,8.8992,8.8992,8.8992,8.8992,8.8992,8.993,9.0883,9.1409,9.2423,9.3737,9.4,9.4,9.4,9.4,9.4,9.4,9.4113,9.4413,9.4662,9.4999,9.545,9.6802,9.8079,9.8416,9.8814,9.8889,9.8889,9.8889,9.8889,9.8889,9.8889,9.8889,9.8889,9.8889,9.8889,9.8889,9.8889,9.8889,9.8889,9.9002,9.9152,10.0069,10.112,10.1909,10.2697,10.3335,10.3786,10.3786,10.3786,10.3786,10.3786,10.3786,10.3786,10.3786,10.3786,10.3786,10.3786,10.3802,10.3786,10.3802,10.3786,10.3786,10.3872]}]]